Wetterdaten: Montag, 09.01.2023
Datum Zeit Temp. 2m Temp +5 cm Feuchte A. Luftdruck Regen Wind Richtung Richtung Sonnenschein UV Solar Taupunkt Windchill Windben
09.01.2023 00:00 3,9 C 2,8 C 89 % 997,6 hPa 0,0 l/m 19,3 km/h (3 Bft) S-SO 157 0 min 0,0 UV-I 0 W/m 2,3 C -4,3 C 33,8 km/h (5 Bft)
09.01.2023 00:01 3,9 C 2,8 C 89 % 997,6 hPa 0,2 l/m 19,3 km/h (3 Bft) S 180 0 min 0,0 UV-I 0 W/m 2,3 C -4,3 C 29,0 km/h (5 Bft)
09.01.2023 00:02 3,9 C 2,8 C 89 % 997,6 hPa 0,0 l/m 12,9 km/h (3 Bft) S-SO 157 0 min 0,0 UV-I 0 W/m 2,3 C -1,1 C 16,1 km/h (3 Bft)
09.01.2023 00:03 3,9 C 2,8 C 89 % 997,7 hPa 0,0 l/m 17,7 km/h (3 Bft) S 180 0 min 0,0 UV-I 0 W/m 2,3 C -3,6 C 25,7 km/h (4 Bft)
09.01.2023 00:04 3,8 C 2,8 C 89 % 997,7 hPa 0,0 l/m 25,7 km/h (4 Bft) S 180 0 min 0,0 UV-I 0 W/m 2,2 C -6,8 C 32,2 km/h (5 Bft)
09.01.2023 00:05 3,8 C 2,8 C 89 % 997,7 hPa 0,0 l/m 20,9 km/h (4 Bft) S-SW 202 0 min 0,0 UV-I 0 W/m 2,2 C -5,1 C 33,8 km/h (5 Bft)
09.01.2023 00:06 3,7 C 2,8 C 89 % 997,6 hPa 0,0 l/m 17,7 km/h (3 Bft) S-SW 202 0 min 0,0 UV-I 0 W/m 2,1 C -3,8 C 27,4 km/h (4 Bft)
09.01.2023 00:07 3,7 C 2,8 C 89 % 997,6 hPa 0,2 l/m 20,9 km/h (4 Bft) S-SW 202 0 min 0,0 UV-I 0 W/m 2,1 C -5,2 C 33,8 km/h (5 Bft)
09.01.2023 00:08 3,6 C 2,8 C 89 % 997,7 hPa 0,0 l/m 25,7 km/h (4 Bft) S 180 0 min 0,0 UV-I 0 W/m 2,0 C -7,1 C 32,2 km/h (5 Bft)
09.01.2023 00:09 3,6 C 2,8 C 89 % 997,6 hPa 0,0 l/m 17,7 km/h (3 Bft) S 180 0 min 0,0 UV-I 0 W/m 2,0 C -4,0 C 24,1 km/h (4 Bft)
09.01.2023 00:10 3,6 C 2,8 C 89 % 997,7 hPa 0,0 l/m 14,5 km/h (3 Bft) S 180 0 min 0,0 UV-I 0 W/m 2,0 C -2,3 C 27,4 km/h (4 Bft)
09.01.2023 00:11 3,6 C 2,8 C 89 % 997,6 hPa 0,0 l/m 12,9 km/h (3 Bft) S 180 0 min 0,0 UV-I 0 W/m 2,0 C -1,4 C 17,7 km/h (3 Bft)
09.01.2023 00:12 3,5 C 2,8 C 89 % 997,6 hPa 0,2 l/m 19,3 km/h (3 Bft) S 180 0 min 0,0 UV-I 0 W/m 1,9 C -4,8 C 24,1 km/h (4 Bft)
09.01.2023 00:13 3,5 C 2,2 C 89 % 997,6 hPa 0,0 l/m 17,7 km/h (3 Bft) S 180 0 min 0,0 UV-I 0 W/m 1,9 C -4,1 C 25,7 km/h (4 Bft)
09.01.2023 00:14 3,4 C 2,2 C 89 % 997,6 hPa 0,0 l/m 17,7 km/h (3 Bft) S 180 0 min 0,0 UV-I 0 W/m 1,8 C -4,2 C 27,4 km/h (4 Bft)
09.01.2023 00:15 3,4 C 2,2 C 89 % 997,6 hPa 0,0 l/m 12,9 km/h (3 Bft) S 180 0 min 0,0 UV-I 0 W/m 1,8 C -1,7 C 19,3 km/h (3 Bft)
09.01.2023 00:16 3,4 C 2,2 C 89 % 997,6 hPa 0,0 l/m 17,7 km/h (3 Bft) S 180 0 min 0,0 UV-I 0 W/m 1,8 C -4,2 C 29,0 km/h (5 Bft)
09.01.2023 00:17 3,4 C 2,2 C 89 % 997,6 hPa 0,0 l/m 16,1 km/h (3 Bft) S 180 0 min 0,0 UV-I 0 W/m 1,8 C -3,4 C 19,3 km/h (3 Bft)
09.01.2023 00:18 3,4 C 2,2 C 89 % 997,6 hPa 0,2 l/m 20,9 km/h (4 Bft) S 180 0 min 0,0 UV-I 0 W/m 1,8 C -5,6 C 25,7 km/h (4 Bft)
09.01.2023 00:19 3,3 C 2,2 C 89 % 997,5 hPa 0,0 l/m 14,5 km/h (3 Bft) S-SW 202 0 min 0,0 UV-I 0 W/m 1,7 C -2,7 C 20,9 km/h (4 Bft)
09.01.2023 00:20 3,3 C 2,2 C 89 % 997,6 hPa 0,0 l/m 14,5 km/h (3 Bft) S 180 0 min 0,0 UV-I 0 W/m 1,7 C -2,7 C 19,3 km/h (3 Bft)
09.01.2023 00:21 3,3 C 2,2 C 89 % 997,6 hPa 0,0 l/m 16,1 km/h (3 Bft) S 180 0 min 0,0 UV-I 0 W/m 1,7 C -3,6 C 25,7 km/h (4 Bft)
09.01.2023 00:22 3,3 C 2,2 C 89 % 997,5 hPa 0,0 l/m 16,1 km/h (3 Bft) S 180 0 min 0,0 UV-I 0 W/m 1,7 C -3,6 C 29,0 km/h (5 Bft)
09.01.2023 00:23 3,3 C 2,2 C 89 % 997,6 hPa 0,0 l/m 14,5 km/h (3 Bft) S 180 0 min 0,0 UV-I 0 W/m 1,7 C -2,7 C 17,7 km/h (3 Bft)
09.01.2023 00:24 3,3 C 2,2 C 89 % 997,5 hPa 0,0 l/m 11,3 km/h (2 Bft) S 180 0 min 0,0 UV-I 0 W/m 1,7 C -0,7 C 22,5 km/h (4 Bft)
09.01.2023 00:25 3,3 C 2,2 C 89 % 997,5 hPa 0,0 l/m 16,1 km/h (3 Bft) S 180 0 min 0,0 UV-I 0 W/m 1,7 C -3,6 C 22,5 km/h (4 Bft)
09.01.2023 00:26 3,3 C 2,2 C 89 % 997,5 hPa 0,2 l/m 14,5 km/h (3 Bft) S 180 0 min 0,0 UV-I 0 W/m 1,7 C -2,7 C 19,3 km/h (3 Bft)
09.01.2023 00:27 3,3 C 2,2 C 89 % 997,5 hPa 0,0 l/m 14,5 km/h (3 Bft) S 180 0 min 0,0 UV-I 0 W/m 1,7 C -2,7 C 17,7 km/h (3 Bft)
09.01.2023 00:28 3,3 C 2,2 C 89 % 997,5 hPa 0,0 l/m 16,1 km/h (3 Bft) S 180 0 min 0,0 UV-I 0 W/m 1,7 C -3,6 C 24,1 km/h (4 Bft)
09.01.2023 00:29 3,3 C 2,2 C 89 % 997,5 hPa 0,0 l/m 12,9 km/h (3 Bft) S-SW 202 0 min 0,0 UV-I 0 W/m 1,7 C -1,8 C 17,7 km/h (3 Bft)
09.01.2023 00:30 3,3 C 2,2 C 89 % 997,5 hPa 0,0 l/m 16,1 km/h (3 Bft) S 180 0 min 0,0 UV-I 0 W/m 1,7 C -3,6 C 24,1 km/h (4 Bft)
09.01.2023 00:31 3,3 C 2,2 C 89 % 997,5 hPa 0,0 l/m 14,5 km/h (3 Bft) S 180 0 min 0,0 UV-I 0 W/m 1,7 C -2,7 C 20,9 km/h (4 Bft)
09.01.2023 00:32 3,3 C 2,8 C 89 % 997,4 hPa 0,0 l/m 11,3 km/h (2 Bft) S 180 0 min 0,0 UV-I 0 W/m 1,7 C -0,7 C 17,7 km/h (3 Bft)
09.01.2023 00:33 3,3 C 2,8 C 89 % 997,3 hPa 0,0 l/m 14,5 km/h (3 Bft) S 180 0 min 0,0 UV-I 0 W/m 1,7 C -2,7 C 19,3 km/h (3 Bft)
09.01.2023 00:34 3,3 C 2,8 C 89 % 997,3 hPa 0,0 l/m 8,0 km/h (2 Bft) S 180 0 min 0,0 UV-I 0 W/m 1,7 C 1,8 C 12,9 km/h (3 Bft)
09.01.2023 00:35 3,3 C 2,8 C 89 % 997,4 hPa 0,0 l/m 12,9 km/h (3 Bft) S 180 0 min 0,0 UV-I 0 W/m 1,7 C -1,8 C 20,9 km/h (4 Bft)
09.01.2023 00:36 3,3 C 2,8 C 90 % 997,3 hPa 0,0 l/m 12,9 km/h (3 Bft) S 180 0 min 0,0 UV-I 0 W/m 1,8 C -1,8 C 17,7 km/h (3 Bft)
09.01.2023 00:37 3,3 C 2,8 C 90 % 997,4 hPa 0,0 l/m 11,3 km/h (2 Bft) S-SW 202 0 min 0,0 UV-I 0 W/m 1,8 C -0,7 C 16,1 km/h (3 Bft)
09.01.2023 00:38 3,3 C 2,8 C 90 % 997,4 hPa 0,0 l/m 8,0 km/h (2 Bft) S 180 0 min 0,0 UV-I 0 W/m 1,8 C 1,8 C 14,5 km/h (3 Bft)
09.01.2023 00:39 3,3 C 2,8 C 90 % 997,4 hPa 0,0 l/m 14,5 km/h (3 Bft) S 180 0 min 0,0 UV-I 0 W/m 1,8 C -2,7 C 25,7 km/h (4 Bft)
09.01.2023 00:40 3,3 C 2,8 C 90 % 997,3 hPa 0,0 l/m 16,1 km/h (3 Bft) S 180 0 min 0,0 UV-I 0 W/m 1,8 C -3,6 C 24,1 km/h (4 Bft)
09.01.2023 00:41 3,3 C 2,8 C 90 % 997,4 hPa 0,0 l/m 12,9 km/h (3 Bft) S 180 0 min 0,0 UV-I 0 W/m 1,8 C -1,8 C 17,7 km/h (3 Bft)
09.01.2023 00:42 3,3 C 2,8 C 90 % 997,4 hPa 0,0 l/m 11,3 km/h (2 Bft) S 180 0 min 0,0 UV-I 0 W/m 1,8 C -0,7 C 16,1 km/h (3 Bft)
09.01.2023 00:43 3,3 C 2,8 C 90 % 997,4 hPa 0,0 l/m 12,9 km/h (3 Bft) S 180 0 min 0,0 UV-I 0 W/m 1,8 C -1,8 C 24,1 km/h (4 Bft)
09.01.2023 00:44 3,4 C 2,8 C 90 % 997,3 hPa 0,0 l/m 14,5 km/h (3 Bft) S 180 0 min 0,0 UV-I 0 W/m 1,9 C -2,6 C 17,7 km/h (3 Bft)
09.01.2023 00:45 3,4 C 2,8 C 90 % 997,4 hPa 0,0 l/m 11,3 km/h (2 Bft) S 180 0 min 0,0 UV-I 0 W/m 1,9 C -0,6 C 16,1 km/h (3 Bft)
09.01.2023 00:46 3,4 C 2,8 C 90 % 997,3 hPa 0,0 l/m 11,3 km/h (2 Bft) S 180 0 min 0,0 UV-I 0 W/m 1,9 C -0,6 C 17,7 km/h (3 Bft)
09.01.2023 00:47 3,4 C 2,8 C 90 % 997,4 hPa 0,0 l/m 11,3 km/h (2 Bft) S 180 0 min 0,0 UV-I 0 W/m 1,9 C -0,6 C 16,1 km/h (3 Bft)
09.01.2023 00:48 3,4 C 2,8 C 90 % 997,3 hPa 0,0 l/m 8,0 km/h (2 Bft) S 180 0 min 0,0 UV-I 0 W/m 1,9 C 1,9 C 11,3 km/h (2 Bft)
09.01.2023 00:49 3,4 C 2,8 C 90 % 997,4 hPa 0,0 l/m 8,0 km/h (2 Bft) S 180 0 min 0,0 UV-I 0 W/m 1,9 C 1,9 C 12,9 km/h (3 Bft)
09.01.2023 00:50 3,4 C 2,8 C 90 % 997,4 hPa 0,0 l/m 8,0 km/h (2 Bft) S 180 0 min 0,0 UV-I 0 W/m 1,9 C 1,9 C 14,5 km/h (3 Bft)
09.01.2023 00:51 3,4 C 2,8 C 90 % 997,4 hPa 0,0 l/m 11,3 km/h (2 Bft) S-SW 202 0 min 0,0 UV-I 0 W/m 1,9 C -0,6 C 16,1 km/h (3 Bft)
09.01.2023 00:52 3,4 C 2,8 C 90 % 997,4 hPa 0,0 l/m 14,5 km/h (3 Bft) S-SW 202 0 min 0,0 UV-I 0 W/m 1,9 C -2,6 C 16,1 km/h (3 Bft)
09.01.2023 00:53 3,4 C 2,8 C 90 % 997,4 hPa 0,0 l/m 14,5 km/h (3 Bft) S-SW 202 0 min 0,0 UV-I 0 W/m 1,9 C -2,6 C 19,3 km/h (3 Bft)
09.01.2023 00:54 3,4 C 2,8 C 90 % 997,4 hPa 0,0 l/m 11,3 km/h (2 Bft) S 180 0 min 0,0 UV-I 0 W/m 1,9 C -0,6 C 14,5 km/h (3 Bft)
09.01.2023 00:55 3,4 C 2,8 C 90 % 997,4 hPa 0,0 l/m 14,5 km/h (3 Bft) S 180 0 min 0,0 UV-I 0 W/m 1,9 C -2,6 C 17,7 km/h (3 Bft)
09.01.2023 00:56 3,5 C 2,8 C 90 % 997,6 hPa 0,0 l/m 12,9 km/h (3 Bft) S-SW 202 0 min 0,0 UV-I 0 W/m 2,0 C -1,5 C 17,7 km/h (3 Bft)
09.01.2023 00:57 3,4 C 2,8 C 90 % 997,5 hPa 0,0 l/m 14,5 km/h (3 Bft) S-SW 202 0 min 0,0 UV-I 0 W/m 1,9 C -2,6 C 17,7 km/h (3 Bft)
09.01.2023 00:58 3,5 C 2,8 C 90 % 997,4 hPa 0,0 l/m 12,9 km/h (3 Bft) S 180 0 min 0,0 UV-I 0 W/m 2,0 C -1,5 C 17,7 km/h (3 Bft)
09.01.2023 00:59 3,5 C 2,8 C 90 % 997,4 hPa 0,0 l/m 12,9 km/h (3 Bft) S 180 0 min 0,0 UV-I 0 W/m 2,0 C -1,5 C 17,7 km/h (3 Bft)
09.01.2023 01:00 3,5 C 2,8 C 90 % 997,4 hPa 0,0 l/m 11,3 km/h (2 Bft) S-SW 202 0 min 0,0 UV-I 0 W/m 2,0 C -0,5 C 14,5 km/h (3 Bft)
09.01.2023 01:01 3,5 C 2,8 C 90 % 997,4 hPa 0,0 l/m 11,3 km/h (2 Bft) S-SW 202 0 min 0,0 UV-I 0 W/m 2,0 C -0,5 C 14,5 km/h (3 Bft)
09.01.2023 01:02 3,5 C 2,8 C 90 % 997,4 hPa 0,0 l/m 11,3 km/h (2 Bft) S 180 0 min 0,0 UV-I 0 W/m 2,0 C -0,5 C 14,5 km/h (3 Bft)
09.01.2023 01:03 3,6 C 2,8 C 90 % 997,4 hPa 0,0 l/m 12,9 km/h (3 Bft) S-SW 202 0 min 0,0 UV-I 0 W/m 2,1 C -1,4 C 16,1 km/h (3 Bft)
09.01.2023 01:04 3,6 C 2,8 C 90 % 997,4 hPa 0,0 l/m 12,9 km/h (3 Bft) S-SW 202 0 min 0,0 UV-I 0 W/m 2,1 C -1,4 C 17,7 km/h (3 Bft)
09.01.2023 01:05 3,6 C 2,8 C 90 % 997,4 hPa 0,0 l/m 12,9 km/h (3 Bft) S 180 0 min 0,0 UV-I 0 W/m 2,1 C -1,4 C 19,3 km/h (3 Bft)
09.01.2023 01:06 3,6 C 2,8 C 90 % 997,4 hPa 0,0 l/m 11,3 km/h (2 Bft) S 180 0 min 0,0 UV-I 0 W/m 2,1 C -0,4 C 17,7 km/h (3 Bft)
09.01.2023 01:07 3,6 C 3,3 C 90 % 997,4 hPa 0,0 l/m 11,3 km/h (2 Bft) S 180 0 min 0,0 UV-I 0 W/m 2,1 C -0,4 C 12,9 km/h (3 Bft)
09.01.2023 01:08 3,6 C 3,3 C 90 % 997,4 hPa 0,0 l/m 11,3 km/h (2 Bft) S 180 0 min 0,0 UV-I 0 W/m 2,1 C -0,4 C 14,5 km/h (3 Bft)
09.01.2023 01:09 3,7 C 3,3 C 90 % 997,4 hPa 0,0 l/m 14,5 km/h (3 Bft) S 180 0 min 0,0 UV-I 0 W/m 2,2 C -2,2 C 19,3 km/h (3 Bft)
09.01.2023 01:10 3,7 C 3,3 C 90 % 997,4 hPa 0,0 l/m 12,9 km/h (3 Bft) S 180 0 min 0,0 UV-I 0 W/m 2,2 C -1,3 C 17,7 km/h (3 Bft)
09.01.2023 01:11 3,7 C 3,3 C 91 % 997,4 hPa 0,0 l/m 12,9 km/h (3 Bft) S 180 0 min 0,0 UV-I 0 W/m 2,4 C -1,3 C 22,5 km/h (4 Bft)
09.01.2023 01:12 3,7 C 3,3 C 91 % 997,3 hPa 0,0 l/m 12,9 km/h (3 Bft) S 180 0 min 0,0 UV-I 0 W/m 2,4 C -1,3 C 14,5 km/h (3 Bft)
09.01.2023 01:13 3,8 C 3,3 C 91 % 997,3 hPa 0,0 l/m 14,5 km/h (3 Bft) S-SW 202 0 min 0,0 UV-I 0 W/m 2,5 C -2,1 C 19,3 km/h (3 Bft)
09.01.2023 01:14 3,8 C 3,3 C 90 % 997,3 hPa 0,0 l/m 14,5 km/h (3 Bft) S 180 0 min 0,0 UV-I 0 W/m 2,3 C -2,1 C 19,3 km/h (3 Bft)
09.01.2023 01:15 3,8 C 3,3 C 91 % 997,3 hPa 0,0 l/m 11,3 km/h (2 Bft) S 180 0 min 0,0 UV-I 0 W/m 2,5 C -0,2 C 16,1 km/h (3 Bft)
09.01.2023 01:16 3,8 C 3,3 C 91 % 997,3 hPa 0,0 l/m 14,5 km/h (3 Bft) S 180 0 min 0,0 UV-I 0 W/m 2,5 C -2,1 C 20,9 km/h (4 Bft)
09.01.2023 01:17 3,8 C 3,3 C 91 % 997,3 hPa 0,0 l/m 11,3 km/h (2 Bft) S 180 0 min 0,0 UV-I 0 W/m 2,5 C -0,2 C 16,1 km/h (3 Bft)
09.01.2023 01:18 3,8 C 3,3 C 91 % 997,4 hPa 0,0 l/m 11,3 km/h (2 Bft) S-SW 202 0 min 0,0 UV-I 0 W/m 2,5 C -0,2 C 14,5 km/h (3 Bft)
09.01.2023 01:19 3,9 C 3,3 C 91 % 997,3 hPa 0,0 l/m 12,9 km/h (3 Bft) S-SW 202 0 min 0,0 UV-I 0 W/m 2,6 C -1,1 C 19,3 km/h (3 Bft)
09.01.2023 01:20 3,9 C 3,3 C 91 % 997,3 hPa 0,0 l/m 12,9 km/h (3 Bft) S-SW 202 0 min 0,0 UV-I 0 W/m 2,6 C -1,1 C 22,5 km/h (4 Bft)
09.01.2023 01:21 3,9 C 3,3 C 91 % 997,3 hPa 0,0 l/m 14,5 km/h (3 Bft) S 180 0 min 0,0 UV-I 0 W/m 2,6 C -2,0 C 17,7 km/h (3 Bft)
09.01.2023 01:22 3,9 C 3,3 C 91 % 997,3 hPa 0,0 l/m 9,7 km/h (2 Bft) S 180 0 min 0,0 UV-I 0 W/m 2,6 C 1,1 C 12,9 km/h (3 Bft)
09.01.2023 01:23 3,9 C 3,3 C 91 % 997,2 hPa 0,0 l/m 11,3 km/h (2 Bft) S 180 0 min 0,0 UV-I 0 W/m 2,6 C -0,1 C 17,7 km/h (3 Bft)
09.01.2023 01:24 3,9 C 3,3 C 91 % 997,3 hPa 0,0 l/m 14,5 km/h (3 Bft) S-SW 202 0 min 0,0 UV-I 0 W/m 2,6 C -2,0 C 20,9 km/h (4 Bft)
09.01.2023 01:25 3,9 C 3,3 C 91 % 997,3 hPa 0,0 l/m 16,1 km/h (3 Bft) S-SW 202 0 min 0,0 UV-I 0 W/m 2,6 C -2,8 C 19,3 km/h (3 Bft)
09.01.2023 01:26 4,0 C 3,3 C 91 % 997,3 hPa 0,0 l/m 12,9 km/h (3 Bft) S-SW 202 0 min 0,0 UV-I 0 W/m 2,7 C -1,0 C 14,5 km/h (3 Bft)
09.01.2023 01:27 4,0 C 3,3 C 91 % 997,3 hPa 0,0 l/m 12,9 km/h (3 Bft) S 180 0 min 0,0 UV-I 0 W/m 2,7 C -1,0 C 16,1 km/h (3 Bft)
09.01.2023 01:28 4,0 C 3,3 C 91 % 997,3 hPa 0,0 l/m 11,3 km/h (2 Bft) S 180 0 min 0,0 UV-I 0 W/m 2,7 C 0,1 C 19,3 km/h (3 Bft)
09.01.2023 01:29 4,0 C 3,3 C 91 % 997,3 hPa 0,0 l/m 14,5 km/h (3 Bft) S 180 0 min 0,0 UV-I 0 W/m 2,7 C -1,9 C 20,9 km/h (4 Bft)
09.01.2023 01:30 4,0 C 3,3 C 91 % 997,3 hPa 0,0 l/m 16,1 km/h (3 Bft) S-SW 202 0 min 0,0 UV-I 0 W/m 2,7 C -2,7 C 22,5 km/h (4 Bft)
09.01.2023 01:31 4,1 C 3,3 C 91 % 997,4 hPa 0,0 l/m 12,9 km/h (3 Bft) S-SW 202 0 min 0,0 UV-I 0 W/m 2,8 C -0,8 C 19,3 km/h (3 Bft)
09.01.2023 01:32 4,1 C 3,3 C 91 % 997,3 hPa 0,0 l/m 12,9 km/h (3 Bft) S-SW 202 0 min 0,0 UV-I 0 W/m 2,8 C -0,8 C 16,1 km/h (3 Bft)
09.01.2023 01:33 4,1 C 3,3 C 91 % 997,3 hPa 0,0 l/m 14,5 km/h (3 Bft) S-SW 202 0 min 0,0 UV-I 0 W/m 2,8 C -1,7 C 22,5 km/h (4 Bft)
09.01.2023 01:34 4,1 C 3,3 C 91 % 997,4 hPa 0,0 l/m 14,5 km/h (3 Bft) S-SW 202 0 min 0,0 UV-I 0 W/m 2,8 C -1,7 C 17,7 km/h (3 Bft)
09.01.2023 01:35 4,1 C 3,3 C 91 % 997,4 hPa 0,0 l/m 14,5 km/h (3 Bft) S-SW 202 0 min 0,0 UV-I 0 W/m 2,8 C -1,7 C 20,9 km/h (4 Bft)
09.01.2023 01:36 4,1 C 3,3 C 91 % 997,3 hPa 0,0 l/m 12,9 km/h (3 Bft) S-SW 202 0 min 0,0 UV-I 0 W/m 2,8 C -0,8 C 17,7 km/h (3 Bft)
09.01.2023 01:37 4,1 C 3,3 C 91 % 997,4 hPa 0,0 l/m 11,3 km/h (2 Bft) S-SW 202 0 min 0,0 UV-I 0 W/m 2,8 C 0,2 C 16,1 km/h (3 Bft)
09.01.2023 01:38 4,1 C 3,3 C 91 % 997,3 hPa 0,0 l/m 12,9 km/h (3 Bft) S-SW 202 0 min 0,0 UV-I 0 W/m 2,8 C -0,8 C 20,9 km/h (4 Bft)
09.01.2023 01:39 4,1 C 3,3 C 91 % 997,4 hPa 0,0 l/m 16,1 km/h (3 Bft) S-SW 202 0 min 0,0 UV-I 0 W/m 2,8 C -2,6 C 20,9 km/h (4 Bft)
09.01.2023 01:40 4,1 C 3,3 C 91 % 997,4 hPa 0,0 l/m 16,1 km/h (3 Bft) S-SW 202 0 min 0,0 UV-I 0 W/m 2,8 C -2,6 C 19,3 km/h (3 Bft)
09.01.2023 01:41 4,1 C 3,3 C 91 % 997,4 hPa 0,0 l/m 14,5 km/h (3 Bft) S 180 0 min 0,0 UV-I 0 W/m 2,8 C -1,7 C 20,9 km/h (4 Bft)
09.01.2023 01:42 4,1 C 3,3 C 91 % 997,4 hPa 0,0 l/m 11,3 km/h (2 Bft) S-SW 202 0 min 0,0 UV-I 0 W/m 2,8 C 0,2 C 14,5 km/h (3 Bft)
09.01.2023 01:43 4,1 C 3,3 C 91 % 997,4 hPa 0,0 l/m 16,1 km/h (3 Bft) S-SW 202 0 min 0,0 UV-I 0 W/m 2,8 C -2,6 C 20,9 km/h (4 Bft)
09.01.2023 01:44 4,1 C 3,3 C 91 % 997,4 hPa 0,0 l/m 14,5 km/h (3 Bft) S-SW 202 0 min 0,0 UV-I 0 W/m 2,8 C -1,7 C 22,5 km/h (4 Bft)
09.01.2023 01:45 4,1 C 3,3 C 91 % 997,4 hPa 0,0 l/m 12,9 km/h (3 Bft) S-SW 202 0 min 0,0 UV-I 0 W/m 2,8 C -0,8 C 19,3 km/h (3 Bft)
09.01.2023 01:46 4,1 C 3,3 C 91 % 997,4 hPa 0,0 l/m 16,1 km/h (3 Bft) S-SW 202 0 min 0,0 UV-I 0 W/m 2,8 C -2,6 C 19,3 km/h (3 Bft)
09.01.2023 01:47 4,1 C 3,3 C 91 % 997,5 hPa 0,0 l/m 14,5 km/h (3 Bft) SW 225 0 min 0,0 UV-I 0 W/m 2,8 C -1,7 C 20,9 km/h (4 Bft)
09.01.2023 01:48 4,1 C 3,3 C 91 % 997,4 hPa 0,0 l/m 12,9 km/h (3 Bft) S-SW 202 0 min 0,0 UV-I 0 W/m 2,8 C -0,8 C 19,3 km/h (3 Bft)
09.01.2023 01:49 4,1 C 3,3 C 91 % 997,4 hPa 0,0 l/m 14,5 km/h (3 Bft) S-SW 202 0 min 0,0 UV-I 0 W/m 2,8 C -1,7 C 17,7 km/h (3 Bft)
09.01.2023 01:50 4,1 C 3,3 C 91 % 997,4 hPa 0,0 l/m 12,9 km/h (3 Bft) SW 225 0 min 0,0 UV-I 0 W/m 2,8 C -0,8 C 19,3 km/h (3 Bft)
09.01.2023 01:51 4,1 C 3,3 C 91 % 997,4 hPa 0,0 l/m 17,7 km/h (3 Bft) S-SW 202 0 min 0,0 UV-I 0 W/m 2,8 C -3,3 C 20,9 km/h (4 Bft)
09.01.2023 01:52 4,1 C 3,3 C 91 % 997,5 hPa 0,0 l/m 14,5 km/h (3 Bft) S-SW 202 0 min 0,0 UV-I 0 W/m 2,8 C -1,7 C 19,3 km/h (3 Bft)
09.01.2023 01:53 4,1 C 3,3 C 91 % 997,5 hPa 0,0 l/m 12,9 km/h (3 Bft) S-SW 202 0 min 0,0 UV-I 0 W/m 2,8 C -0,8 C 16,1 km/h (3 Bft)
09.01.2023 01:54 4,1 C 3,3 C 91 % 997,4 hPa 0,0 l/m 14,5 km/h (3 Bft) S-SW 202 0 min 0,0 UV-I 0 W/m 2,8 C -1,7 C 17,7 km/h (3 Bft)
09.01.2023 01:55 4,1 C 3,3 C 91 % 997,5 hPa 0,0 l/m 17,7 km/h (3 Bft) S-SW 202 0 min 0,0 UV-I 0 W/m 2,8 C -3,3 C 27,4 km/h (4 Bft)
09.01.2023 01:56 4,1 C 3,3 C 91 % 997,6 hPa 0,0 l/m 12,9 km/h (3 Bft) S-SW 202 0 min 0,0 UV-I 0 W/m 2,8 C -0,8 C 17,7 km/h (3 Bft)
09.01.2023 01:57 4,1 C 3,3 C 91 % 997,5 hPa 0,0 l/m 16,1 km/h (3 Bft) S-SW 202 0 min 0,0 UV-I 0 W/m 2,8 C -2,6 C 22,5 km/h (4 Bft)
09.01.2023 01:58 4,1 C 3,3 C 91 % 997,5 hPa 0,0 l/m 16,1 km/h (3 Bft) S-SW 202 0 min 0,0 UV-I 0 W/m 2,8 C -2,6 C 24,1 km/h (4 Bft)
09.01.2023 01:59 4,1 C 3,3 C 91 % 997,5 hPa 0,0 l/m 20,9 km/h (4 Bft) S-SW 202 0 min 0,0 UV-I 0 W/m 2,8 C -4,7 C 27,4 km/h (4 Bft)
09.01.2023 02:00 4,1 C 3,3 C 91 % 997,6 hPa 0,0 l/m 19,3 km/h (3 Bft) S-SW 202 0 min 0,0 UV-I 0 W/m 2,8 C -4,0 C 27,4 km/h (4 Bft)
09.01.2023 02:01 4,1 C 3,3 C 91 % 997,5 hPa 0,0 l/m 17,7 km/h (3 Bft) S-SW 202 0 min 0,0 UV-I 0 W/m 2,8 C -3,3 C 24,1 km/h (4 Bft)
09.01.2023 02:02 4,1 C 3,3 C 91 % 997,5 hPa 0,0 l/m 16,1 km/h (3 Bft) S-SW 202 0 min 0,0 UV-I 0 W/m 2,8 C -2,6 C 20,9 km/h (4 Bft)
09.01.2023 02:03 4,1 C 3,3 C 91 % 997,7 hPa 0,0 l/m 17,7 km/h (3 Bft) S-SW 202 0 min 0,0 UV-I 0 W/m 2,8 C -3,3 C 25,7 km/h (4 Bft)
09.01.2023 02:04 4,1 C 3,3 C 91 % 997,5 hPa 0,0 l/m 17,7 km/h (3 Bft) S-SW 202 0 min 0,0 UV-I 0 W/m 2,8 C -3,3 C 24,1 km/h (4 Bft)
09.01.2023 02:05 4,1 C 3,3 C 91 % 997,6 hPa 0,0 l/m 14,5 km/h (3 Bft) S-SW 202 0 min 0,0 UV-I 0 W/m 2,8 C -1,7 C 19,3 km/h (3 Bft)
09.01.2023 02:06 4,1 C 3,3 C 91 % 997,5 hPa 0,0 l/m 17,7 km/h (3 Bft) S-SW 202 0 min 0,0 UV-I 0 W/m 2,8 C -3,3 C 22,5 km/h (4 Bft)
09.01.2023 02:07 4,1 C 3,3 C 91 % 997,5 hPa 0,0 l/m 17,7 km/h (3 Bft) SW 225 0 min 0,0 UV-I 0 W/m 2,8 C -3,3 C 22,5 km/h (4 Bft)
09.01.2023 02:08 4,1 C 3,3 C 91 % 997,6 hPa 0,0 l/m 14,5 km/h (3 Bft) S-SW 202 0 min 0,0 UV-I 0 W/m 2,8 C -1,7 C 19,3 km/h (3 Bft)
09.01.2023 02:09 4,1 C 3,3 C 91 % 997,6 hPa 0,0 l/m 16,1 km/h (3 Bft) S-SW 202 0 min 0,0 UV-I 0 W/m 2,8 C -2,6 C 19,3 km/h (3 Bft)
09.01.2023 02:10 4,1 C 3,3 C 91 % 997,6 hPa 0,0 l/m 14,5 km/h (3 Bft) S 180 0 min 0,0 UV-I 0 W/m 2,8 C -1,7 C 20,9 km/h (4 Bft)
09.01.2023 02:11 4,1 C 3,3 C 92 % 997,6 hPa 0,0 l/m 12,9 km/h (3 Bft) SW 225 0 min 0,0 UV-I 0 W/m 2,9 C -0,8 C 19,3 km/h (3 Bft)
09.01.2023 02:12 4,1 C 3,3 C 92 % 997,6 hPa 0,0 l/m 14,5 km/h (3 Bft) SW 225 0 min 0,0 UV-I 0 W/m 2,9 C -1,7 C 22,5 km/h (4 Bft)
09.01.2023 02:13 4,1 C 3,3 C 92 % 997,6 hPa 0,0 l/m 14,5 km/h (3 Bft) S-SW 202 0 min 0,0 UV-I 0 W/m 2,9 C -1,7 C 19,3 km/h (3 Bft)
09.01.2023 02:14 4,1 C 3,3 C 92 % 997,6 hPa 0,0 l/m 12,9 km/h (3 Bft) S-SW 202 0 min 0,0 UV-I 0 W/m 2,9 C -0,8 C 16,1 km/h (3 Bft)
09.01.2023 02:15 4,0 C 3,3 C 92 % 997,6 hPa 0,2 l/m 11,3 km/h (2 Bft) SW 225 0 min 0,0 UV-I 0 W/m 2,8 C 0,1 C 16,1 km/h (3 Bft)
09.01.2023 02:16 4,0 C 3,3 C 91 % 997,7 hPa 0,0 l/m 12,9 km/h (3 Bft) S 180 0 min 0,0 UV-I 0 W/m 2,7 C -1,0 C 22,5 km/h (4 Bft)
09.01.2023 02:17 4,0 C 3,3 C 92 % 997,6 hPa 0,0 l/m 14,5 km/h (3 Bft) S-SW 202 0 min 0,0 UV-I 0 W/m 2,8 C -1,9 C 19,3 km/h (3 Bft)
09.01.2023 02:18 4,0 C 3,3 C 92 % 997,6 hPa 0,0 l/m 11,3 km/h (2 Bft) S-SW 202 0 min 0,0 UV-I 0 W/m 2,8 C 0,1 C 19,3 km/h (3 Bft)
09.01.2023 02:19 4,0 C 3,3 C 92 % 997,6 hPa 0,0 l/m 11,3 km/h (2 Bft) S-SW 202 0 min 0,0 UV-I 0 W/m 2,8 C 0,1 C 16,1 km/h (3 Bft)
09.01.2023 02:20 4,0 C 3,3 C 92 % 997,6 hPa 0,0 l/m 11,3 km/h (2 Bft) SW 225 0 min 0,0 UV-I 0 W/m 2,8 C 0,1 C 17,7 km/h (3 Bft)
09.01.2023 02:21 3,9 C 3,3 C 92 % 997,6 hPa 0,0 l/m 12,9 km/h (3 Bft) SW 225 0 min 0,0 UV-I 0 W/m 2,7 C -1,1 C 16,1 km/h (3 Bft)
09.01.2023 02:22 4,0 C 3,3 C 91 % 997,7 hPa 0,0 l/m 11,3 km/h (2 Bft) S-SW 202 0 min 0,0 UV-I 0 W/m 2,7 C 0,1 C 14,5 km/h (3 Bft)
09.01.2023 02:23 4,0 C 3,3 C 91 % 997,6 hPa 0,0 l/m 9,7 km/h (2 Bft) S 180 0 min 0,0 UV-I 0 W/m 2,7 C 1,2 C 16,1 km/h (3 Bft)
09.01.2023 02:24 3,9 C 3,3 C 91 % 997,6 hPa 0,0 l/m 11,3 km/h (2 Bft) S-SW 202 0 min 0,0 UV-I 0 W/m 2,6 C -0,1 C 14,5 km/h (3 Bft)
09.01.2023 02:25 3,9 C 3,3 C 91 % 997,7 hPa 0,0 l/m 11,3 km/h (2 Bft) S-SW 202 0 min 0,0 UV-I 0 W/m 2,6 C -0,1 C 14,5 km/h (3 Bft)
09.01.2023 02:26 3,9 C 3,3 C 91 % 997,6 hPa 0,0 l/m 9,7 km/h (2 Bft) S 180 0 min 0,0 UV-I 0 W/m 2,6 C 1,1 C 12,9 km/h (3 Bft)
09.01.2023 02:27 3,9 C 3,3 C 91 % 997,6 hPa 0,0 l/m 12,9 km/h (3 Bft) S-SW 202 0 min 0,0 UV-I 0 W/m 2,6 C -1,1 C 17,7 km/h (3 Bft)
09.01.2023 02:28 4,0 C 3,3 C 91 % 997,6 hPa 0,0 l/m 12,9 km/h (3 Bft) S-SW 202 0 min 0,0 UV-I 0 W/m 2,7 C -1,0 C 17,7 km/h (3 Bft)
09.01.2023 02:29 3,9 C 3,3 C 91 % 997,7 hPa 0,0 l/m 11,3 km/h (2 Bft) S-SW 202 0 min 0,0 UV-I 0 W/m 2,6 C -0,1 C 14,5 km/h (3 Bft)
09.01.2023 02:30 3,9 C 3,3 C 91 % 997,7 hPa 0,0 l/m 11,3 km/h (2 Bft) S 180 0 min 0,0 UV-I 0 W/m 2,6 C -0,1 C 22,5 km/h (4 Bft)
09.01.2023 02:31 4,0 C 3,3 C 92 % 997,5 hPa 0,0 l/m 11,3 km/h (2 Bft) S-SW 202 0 min 0,0 UV-I 0 W/m 2,8 C 0,1 C 16,1 km/h (3 Bft)
09.01.2023 02:32 4,0 C 3,3 C 92 % 997,6 hPa 0,0 l/m 11,3 km/h (2 Bft) S 180 0 min 0,0 UV-I 0 W/m 2,8 C 0,1 C 14,5 km/h (3 Bft)
09.01.2023 02:33 3,9 C 3,3 C 92 % 997,7 hPa 0,0 l/m 11,3 km/h (2 Bft) S 180 0 min 0,0 UV-I 0 W/m 2,7 C -0,1 C 19,3 km/h (3 Bft)
09.01.2023 02:34 4,0 C 3,3 C 92 % 997,6 hPa 0,0 l/m 9,7 km/h (2 Bft) S 180 0 min 0,0 UV-I 0 W/m 2,8 C 1,2 C 19,3 km/h (3 Bft)
09.01.2023 02:35 4,0 C 3,3 C 92 % 997,6 hPa 0,0 l/m 12,9 km/h (3 Bft) S 180 0 min 0,0 UV-I 0 W/m 2,8 C -1,0 C 17,7 km/h (3 Bft)
09.01.2023 02:36 3,9 C 3,3 C 92 % 997,7 hPa 0,0 l/m 9,7 km/h (2 Bft) S-SW 202 0 min 0,0 UV-I 0 W/m 2,7 C 1,1 C 14,5 km/h (3 Bft)
09.01.2023 02:37 4,0 C 3,3 C 92 % 997,7 hPa 0,0 l/m 17,7 km/h (3 Bft) S-SW 202 0 min 0,0 UV-I 0 W/m 2,8 C -3,5 C 22,5 km/h (4 Bft)
09.01.2023 02:38 4,0 C 3,3 C 92 % 997,8 hPa 0,0 l/m 16,1 km/h (3 Bft) S-SW 202 0 min 0,0 UV-I 0 W/m 2,8 C -2,7 C 20,9 km/h (4 Bft)
09.01.2023 02:39 4,0 C 3,3 C 92 % 997,7 hPa 0,0 l/m 14,5 km/h (3 Bft) S-SW 202 0 min 0,0 UV-I 0 W/m 2,8 C -1,9 C 19,3 km/h (3 Bft)
09.01.2023 02:40 4,0 C 3,3 C 92 % 997,8 hPa 0,0 l/m 14,5 km/h (3 Bft) S-SW 202 0 min 0,0 UV-I 0 W/m 2,8 C -1,9 C 19,3 km/h (3 Bft)
09.01.2023 02:41 4,0 C 3,3 C 92 % 997,8 hPa 0,0 l/m 12,9 km/h (3 Bft) S-SW 202 0 min 0,0 UV-I 0 W/m 2,8 C -1,0 C 17,7 km/h (3 Bft)
09.01.2023 02:42 4,0 C 3,3 C 92 % 997,7 hPa 0,0 l/m 11,3 km/h (2 Bft) S-SW 202 0 min 0,0 UV-I 0 W/m 2,8 C 0,1 C 16,1 km/h (3 Bft)
09.01.2023 02:43 4,0 C 3,3 C 92 % 997,7 hPa 0,0 l/m 12,9 km/h (3 Bft) S-SW 202 0 min 0,0 UV-I 0 W/m 2,8 C -1,0 C 17,7 km/h (3 Bft)
09.01.2023 02:44 4,0 C 3,3 C 92 % 997,7 hPa 0,0 l/m 14,5 km/h (3 Bft) S-SW 202 0 min 0,0 UV-I 0 W/m 2,8 C -1,9 C 27,4 km/h (4 Bft)
09.01.2023 02:45 4,1 C 3,3 C 92 % 997,8 hPa 0,0 l/m 19,3 km/h (3 Bft) S-SW 202 0 min 0,0 UV-I 0 W/m 2,9 C -4,0 C 32,2 km/h (5 Bft)
09.01.2023 02:46 4,1 C 3,3 C 92 % 997,8 hPa 0,0 l/m 16,1 km/h (3 Bft) W-SW 247 0 min 0,0 UV-I 0 W/m 2,9 C -2,6 C 24,1 km/h (4 Bft)
09.01.2023 02:47 4,1 C 3,3 C 92 % 997,8 hPa 0,0 l/m 16,1 km/h (3 Bft) S-SW 202 0 min 0,0 UV-I 0 W/m 2,9 C -2,6 C 24,1 km/h (4 Bft)
09.01.2023 02:48 4,1 C 3,3 C 92 % 997,8 hPa 0,0 l/m 16,1 km/h (3 Bft) S-SW 202 0 min 0,0 UV-I 0 W/m 2,9 C -2,6 C 24,1 km/h (4 Bft)
09.01.2023 02:49 4,1 C 3,3 C 92 % 997,7 hPa 0,0 l/m 16,1 km/h (3 Bft) S-SW 202 0 min 0,0 UV-I 0 W/m 2,9 C -2,6 C 19,3 km/h (3 Bft)
09.01.2023 02:50 4,1 C 3,3 C 92 % 997,8 hPa 0,0 l/m 19,3 km/h (3 Bft) SW 225 0 min 0,0 UV-I 0 W/m 2,9 C -4,0 C 30,6 km/h (5 Bft)
09.01.2023 02:51 4,1 C 3,3 C 92 % 997,8 hPa 0,0 l/m 17,7 km/h (3 Bft) S-SW 202 0 min 0,0 UV-I 0 W/m 2,9 C -3,3 C 25,7 km/h (4 Bft)
09.01.2023 02:52 4,0 C 3,3 C 92 % 997,8 hPa 0,0 l/m 19,3 km/h (3 Bft) S-SW 202 0 min 0,0 UV-I 0 W/m 2,8 C -4,2 C 22,5 km/h (4 Bft)
09.01.2023 02:53 4,1 C 3,3 C 92 % 997,8 hPa 0,0 l/m 11,3 km/h (2 Bft) SW 225 0 min 0,0 UV-I 0 W/m 2,9 C 0,2 C 22,5 km/h (4 Bft)
09.01.2023 02:54 4,1 C 3,3 C 92 % 997,8 hPa 0,0 l/m 14,5 km/h (3 Bft) S-SW 202 0 min 0,0 UV-I 0 W/m 2,9 C -1,7 C 22,5 km/h (4 Bft)
09.01.2023 02:55 4,1 C 3,3 C 92 % 997,8 hPa 0,0 l/m 16,1 km/h (3 Bft) S-SW 202 0 min 0,0 UV-I 0 W/m 2,9 C -2,6 C 24,1 km/h (4 Bft)
09.01.2023 02:56 4,1 C 3,3 C 92 % 997,6 hPa 0,0 l/m 16,1 km/h (3 Bft) S-SW 202 0 min 0,0 UV-I 0 W/m 2,9 C -2,6 C 24,1 km/h (4 Bft)
09.01.2023 02:57 4,1 C 3,3 C 92 % 997,8 hPa 0,0 l/m 14,5 km/h (3 Bft) SW 225 0 min 0,0 UV-I 0 W/m 2,9 C -1,7 C 20,9 km/h (4 Bft)
09.01.2023 02:58 4,1 C 3,3 C 92 % 997,6 hPa 0,0 l/m 14,5 km/h (3 Bft) S-SW 202 0 min 0,0 UV-I 0 W/m 2,9 C -1,7 C 20,9 km/h (4 Bft)
09.01.2023 02:59 4,1 C 3,3 C 92 % 997,7 hPa 0,0 l/m 17,7 km/h (3 Bft) S-SW 202 0 min 0,0 UV-I 0 W/m 2,9 C -3,3 C 25,7 km/h (4 Bft)
09.01.2023 03:00 4,1 C 3,3 C 92 % 997,8 hPa 0,0 l/m 16,1 km/h (3 Bft) S-SW 202 0 min 0,0 UV-I 0 W/m 2,9 C -2,6 C 24,1 km/h (4 Bft)
09.01.2023 03:01 4,1 C 3,3 C 92 % 997,8 hPa 0,0 l/m 14,5 km/h (3 Bft) S-SW 202 0 min 0,0 UV-I 0 W/m 2,9 C -1,7 C 19,3 km/h (3 Bft)
09.01.2023 03:02 4,1 C 3,3 C 92 % 997,7 hPa 0,0 l/m 14,5 km/h (3 Bft) SW 225 0 min 0,0 UV-I 0 W/m 2,9 C -1,7 C 22,5 km/h (4 Bft)
09.01.2023 03:03 4,1 C 3,3 C 92 % 997,7 hPa 0,0 l/m 17,7 km/h (3 Bft) S-SW 202 0 min 0,0 UV-I 0 W/m 2,9 C -3,3 C 22,5 km/h (4 Bft)
09.01.2023 03:04 4,1 C 3,3 C 92 % 997,8 hPa 0,0 l/m 17,7 km/h (3 Bft) S-SW 202 0 min 0,0 UV-I 0 W/m 2,9 C -3,3 C 22,5 km/h (4 Bft)
09.01.2023 03:05 4,1 C 3,3 C 92 % 997,7 hPa 0,0 l/m 16,1 km/h (3 Bft) S-SW 202 0 min 0,0 UV-I 0 W/m 2,9 C -2,6 C 22,5 km/h (4 Bft)
09.01.2023 03:06 4,1 C 3,3 C 92 % 997,8 hPa 0,0 l/m 19,3 km/h (3 Bft) S-SW 202 0 min 0,0 UV-I 0 W/m 2,9 C -4,0 C 24,1 km/h (4 Bft)
09.01.2023 03:07 4,0 C 3,3 C 92 % 997,8 hPa 0,0 l/m 11,3 km/h (2 Bft) SW 225 0 min 0,0 UV-I 0 W/m 2,8 C 0,1 C 17,7 km/h (3 Bft)
09.01.2023 03:08 4,1 C 3,3 C 92 % 997,8 hPa 0,0 l/m 14,5 km/h (3 Bft) S-SW 202 0 min 0,0 UV-I 0 W/m 2,9 C -1,7 C 22,5 km/h (4 Bft)
09.01.2023 03:09 4,1 C 3,3 C 92 % 997,8 hPa 0,0 l/m 16,1 km/h (3 Bft) S-SW 202 0 min 0,0 UV-I 0 W/m 2,9 C -2,6 C 19,3 km/h (3 Bft)
09.01.2023 03:10 4,1 C 3,3 C 92 % 997,8 hPa 0,0 l/m 16,1 km/h (3 Bft) SW 225 0 min 0,0 UV-I 0 W/m 2,9 C -2,6 C 19,3 km/h (3 Bft)
09.01.2023 03:11 4,1 C 3,3 C 92 % 997,9 hPa 0,0 l/m 14,5 km/h (3 Bft) SW 225 0 min 0,0 UV-I 0 W/m 2,9 C -1,7 C 17,7 km/h (3 Bft)
09.01.2023 03:12 4,1 C 3,3 C 92 % 997,9 hPa 0,0 l/m 9,7 km/h (2 Bft) SW 225 0 min 0,0 UV-I 0 W/m 2,9 C 1,3 C 14,5 km/h (3 Bft)
09.01.2023 03:13 4,1 C 3,3 C 92 % 997,9 hPa 0,0 l/m 16,1 km/h (3 Bft) S-SW 202 0 min 0,0 UV-I 0 W/m 2,9 C -2,6 C 25,7 km/h (4 Bft)
09.01.2023 03:14 4,1 C 3,3 C 92 % 998,0 hPa 0,0 l/m 16,1 km/h (3 Bft) S-SW 202 0 min 0,0 UV-I 0 W/m 2,9 C -2,6 C 24,1 km/h (4 Bft)
09.01.2023 03:15 4,1 C 3,3 C 92 % 998,0 hPa 0,0 l/m 12,9 km/h (3 Bft) S-SW 202 0 min 0,0 UV-I 0 W/m 2,9 C -0,8 C 20,9 km/h (4 Bft)
09.01.2023 03:16 4,1 C 3,3 C 92 % 998,0 hPa 0,0 l/m 16,1 km/h (3 Bft) S-SW 202 0 min 0,0 UV-I 0 W/m 2,9 C -2,6 C 20,9 km/h (4 Bft)
09.01.2023 03:17 4,1 C 3,3 C 92 % 998,0 hPa 0,0 l/m 17,7 km/h (3 Bft) S-SW 202 0 min 0,0 UV-I 0 W/m 2,9 C -3,3 C 22,5 km/h (4 Bft)
09.01.2023 03:18 4,1 C 3,3 C 92 % 997,9 hPa 0,0 l/m 16,1 km/h (3 Bft) S-SW 202 0 min 0,0 UV-I 0 W/m 2,9 C -2,6 C 20,9 km/h (4 Bft)
09.01.2023 03:19 4,1 C 3,3 C 92 % 997,9 hPa 0,0 l/m 14,5 km/h (3 Bft) S-SW 202 0 min 0,0 UV-I 0 W/m 2,9 C -1,7 C 17,7 km/h (3 Bft)
09.01.2023 03:20 4,1 C 3,3 C 92 % 998,0 hPa 0,0 l/m 16,1 km/h (3 Bft) S-SW 202 0 min 0,0 UV-I 0 W/m 2,9 C -2,6 C 20,9 km/h (4 Bft)
09.01.2023 03:21 4,1 C 3,3 C 92 % 998,0 hPa 0,0 l/m 17,7 km/h (3 Bft) S-SW 202 0 min 0,0 UV-I 0 W/m 2,9 C -3,3 C 20,9 km/h (4 Bft)
09.01.2023 03:22 4,1 C 3,3 C 92 % 998,0 hPa 0,0 l/m 14,5 km/h (3 Bft) S-SW 202 0 min 0,0 UV-I 0 W/m 2,9 C -1,7 C 19,3 km/h (3 Bft)
09.01.2023 03:23 4,1 C 3,3 C 92 % 998,0 hPa 0,0 l/m 17,7 km/h (3 Bft) S-SW 202 0 min 0,0 UV-I 0 W/m 2,9 C -3,3 C 22,5 km/h (4 Bft)
09.01.2023 03:24 4,1 C 3,3 C 92 % 998,0 hPa 0,0 l/m 19,3 km/h (3 Bft) S-SW 202 0 min 0,0 UV-I 0 W/m 2,9 C -4,0 C 27,4 km/h (4 Bft)
09.01.2023 03:25 4,1 C 3,3 C 92 % 998,0 hPa 0,0 l/m 19,3 km/h (3 Bft) S-SW 202 0 min 0,0 UV-I 0 W/m 2,9 C -4,0 C 25,7 km/h (4 Bft)
09.01.2023 03:26 4,1 C 3,3 C 92 % 997,9 hPa 0,0 l/m 19,3 km/h (3 Bft) S-SW 202 0 min 0,0 UV-I 0 W/m 2,9 C -4,0 C 27,4 km/h (4 Bft)
09.01.2023 03:27 4,1 C 3,3 C 92 % 998,0 hPa 0,0 l/m 17,7 km/h (3 Bft) S-SW 202 0 min 0,0 UV-I 0 W/m 2,9 C -3,3 C 24,1 km/h (4 Bft)
09.01.2023 03:28 4,1 C 3,3 C 92 % 998,0 hPa 0,0 l/m 19,3 km/h (3 Bft) S-SW 202 0 min 0,0 UV-I 0 W/m 2,9 C -4,0 C 27,4 km/h (4 Bft)
09.01.2023 03:29 4,1 C 3,3 C 92 % 998,0 hPa 0,0 l/m 16,1 km/h (3 Bft) SW 225 0 min 0,0 UV-I 0 W/m 2,9 C -2,6 C 20,9 km/h (4 Bft)
09.01.2023 03:30 4,1 C 3,3 C 92 % 998,0 hPa 0,0 l/m 17,7 km/h (3 Bft) S-SW 202 0 min 0,0 UV-I 0 W/m 2,9 C -3,3 C 24,1 km/h (4 Bft)
09.01.2023 03:31 4,0 C 3,3 C 92 % 998,1 hPa 0,0 l/m 25,7 km/h (4 Bft) S-SW 202 0 min 0,0 UV-I 0 W/m 2,8 C -6,5 C 33,8 km/h (5 Bft)
09.01.2023 03:32 4,0 C 3,3 C 91 % 998,0 hPa 0,0 l/m 17,7 km/h (3 Bft) S-SW 202 0 min 0,0 UV-I 0 W/m 2,7 C -3,5 C 25,7 km/h (4 Bft)
09.01.2023 03:33 4,0 C 2,8 C 92 % 998,1 hPa 0,0 l/m 22,5 km/h (4 Bft) S-SW 202 0 min 0,0 UV-I 0 W/m 2,8 C -5,4 C 30,6 km/h (5 Bft)
09.01.2023 03:34 3,9 C 2,8 C 91 % 998,0 hPa 0,0 l/m 17,7 km/h (3 Bft) S-SW 202 0 min 0,0 UV-I 0 W/m 2,6 C -3,6 C 24,1 km/h (4 Bft)
09.01.2023 03:35 3,9 C 2,8 C 91 % 998,0 hPa 0,0 l/m 19,3 km/h (3 Bft) S-SW 202 0 min 0,0 UV-I 0 W/m 2,6 C -4,3 C 24,1 km/h (4 Bft)
09.01.2023 03:36 3,9 C 2,8 C 91 % 998,1 hPa 0,0 l/m 19,3 km/h (3 Bft) S-SW 202 0 min 0,0 UV-I 0 W/m 2,6 C -4,3 C 29,0 km/h (5 Bft)
09.01.2023 03:37 3,8 C 2,8 C 91 % 998,1 hPa 0,0 l/m 19,3 km/h (3 Bft) S-SW 202 0 min 0,0 UV-I 0 W/m 2,5 C -4,4 C 32,2 km/h (5 Bft)
09.01.2023 03:38 3,8 C 2,8 C 91 % 998,2 hPa 0,0 l/m 20,9 km/h (4 Bft) SW 225 0 min 0,0 UV-I 0 W/m 2,5 C -5,1 C 30,6 km/h (5 Bft)
09.01.2023 03:39 3,8 C 2,8 C 91 % 998,1 hPa 0,0 l/m 19,3 km/h (3 Bft) SW 225 0 min 0,0 UV-I 0 W/m 2,5 C -4,4 C 32,2 km/h (5 Bft)
09.01.2023 03:40 3,7 C 2,8 C 91 % 998,1 hPa 0,0 l/m 22,5 km/h (4 Bft) S 180 0 min 0,0 UV-I 0 W/m 2,4 C -5,8 C 33,8 km/h (5 Bft)
09.01.2023 03:41 3,7 C 2,8 C 91 % 998,1 hPa 0,0 l/m 20,9 km/h (4 Bft) S-SW 202 0 min 0,0 UV-I 0 W/m 2,4 C -5,2 C 30,6 km/h (5 Bft)
09.01.2023 03:42 3,7 C 2,8 C 91 % 998,1 hPa 0,0 l/m 19,3 km/h (3 Bft) SW 225 0 min 0,0 UV-I 0 W/m 2,4 C -4,6 C 29,0 km/h (5 Bft)
09.01.2023 03:43 3,7 C 2,8 C 91 % 998,1 hPa 0,0 l/m 19,3 km/h (3 Bft) S-SW 202 0 min 0,0 UV-I 0 W/m 2,4 C -4,6 C 27,4 km/h (4 Bft)
09.01.2023 03:44 3,7 C 2,8 C 91 % 998,1 hPa 0,0 l/m 22,5 km/h (4 Bft) S-SW 202 0 min 0,0 UV-I 0 W/m 2,4 C -5,8 C 30,6 km/h (5 Bft)
09.01.2023 03:45 3,7 C 2,8 C 91 % 998,0 hPa 0,0 l/m 11,3 km/h (2 Bft) SW 225 0 min 0,0 UV-I 0 W/m 2,4 C -0,3 C 17,7 km/h (3 Bft)
09.01.2023 03:46 3,7 C 2,8 C 91 % 998,1 hPa 0,0 l/m 12,9 km/h (3 Bft) SW 225 0 min 0,0 UV-I 0 W/m 2,4 C -1,3 C 20,9 km/h (4 Bft)
09.01.2023 03:47 3,7 C 2,8 C 91 % 998,1 hPa 0,0 l/m 12,9 km/h (3 Bft) SW 225 0 min 0,0 UV-I 0 W/m 2,4 C -1,3 C 20,9 km/h (4 Bft)
09.01.2023 03:48 3,7 C 2,8 C 91 % 998,1 hPa 0,0 l/m 9,7 km/h (2 Bft) SW 225 0 min 0,0 UV-I 0 W/m 2,4 C 0,9 C 14,5 km/h (3 Bft)
09.01.2023 03:49 3,7 C 2,8 C 91 % 998,1 hPa 0,0 l/m 12,9 km/h (3 Bft) S-SW 202 0 min 0,0 UV-I 0 W/m 2,4 C -1,3 C 22,5 km/h (4 Bft)
09.01.2023 03:50 3,7 C 2,8 C 91 % 998,1 hPa 0,0 l/m 16,1 km/h (3 Bft) S-SW 202 0 min 0,0 UV-I 0 W/m 2,4 C -3,1 C 24,1 km/h (4 Bft)
09.01.2023 03:51 3,7 C 2,8 C 90 % 998,2 hPa 0,0 l/m 16,1 km/h (3 Bft) S-SW 202 0 min 0,0 UV-I 0 W/m 2,2 C -3,1 C 20,9 km/h (4 Bft)
09.01.2023 03:52 3,7 C 2,8 C 90 % 998,2 hPa 0,0 l/m 14,5 km/h (3 Bft) SW 225 0 min 0,0 UV-I 0 W/m 2,2 C -2,2 C 20,9 km/h (4 Bft)
09.01.2023 03:53 3,7 C 2,8 C 90 % 998,2 hPa 0,0 l/m 16,1 km/h (3 Bft) S-SW 202 0 min 0,0 UV-I 0 W/m 2,2 C -3,1 C 22,5 km/h (4 Bft)
09.01.2023 03:54 3,7 C 2,8 C 90 % 998,2 hPa 0,0 l/m 16,1 km/h (3 Bft) S-SW 202 0 min 0,0 UV-I 0 W/m 2,2 C -3,1 C 19,3 km/h (3 Bft)
09.01.2023 03:55 3,7 C 2,8 C 90 % 998,3 hPa 0,0 l/m 11,3 km/h (2 Bft) SW 225 0 min 0,0 UV-I 0 W/m 2,2 C -0,3 C 14,5 km/h (3 Bft)
09.01.2023 03:56 3,7 C 2,8 C 90 % 998,3 hPa 0,0 l/m 12,9 km/h (3 Bft) S-SW 202 0 min 0,0 UV-I 0 W/m 2,2 C -1,3 C 17,7 km/h (3 Bft)
09.01.2023 03:57 3,7 C 2,8 C 90 % 998,4 hPa 0,0 l/m 14,5 km/h (3 Bft) S-SW 202 0 min 0,0 UV-I 0 W/m 2,2 C -2,2 C 19,3 km/h (3 Bft)
09.01.2023 03:58 3,7 C 2,8 C 90 % 998,4 hPa 0,0 l/m 11,3 km/h (2 Bft) SW 225 0 min 0,0 UV-I 0 W/m 2,2 C -0,3 C 17,7 km/h (3 Bft)
09.01.2023 03:59 3,6 C 2,8 C 90 % 998,3 hPa 0,0 l/m 12,9 km/h (3 Bft) S-SW 202 0 min 0,0 UV-I 0 W/m 2,1 C -1,4 C 24,1 km/h (4 Bft)
09.01.2023 04:00 3,7 C 2,8 C 90 % 998,5 hPa 0,0 l/m 12,9 km/h (3 Bft) S-SW 202 0 min 0,0 UV-I 0 W/m 2,2 C -1,3 C 19,3 km/h (3 Bft)
09.01.2023 04:01 3,7 C 2,8 C 90 % 998,4 hPa 0,0 l/m 12,9 km/h (3 Bft) S-SW 202 0 min 0,0 UV-I 0 W/m 2,2 C -1,3 C 16,1 km/h (3 Bft)
09.01.2023 04:02 3,6 C 2,8 C 90 % 998,4 hPa 0,0 l/m 12,9 km/h (3 Bft) SW 225 0 min 0,0 UV-I 0 W/m 2,1 C -1,4 C 19,3 km/h (3 Bft)
09.01.2023 04:03 3,6 C 2,8 C 90 % 998,4 hPa 0,0 l/m 14,5 km/h (3 Bft) S-SW 202 0 min 0,0 UV-I 0 W/m 2,1 C -2,3 C 22,5 km/h (4 Bft)
09.01.2023 04:04 3,6 C 2,2 C 90 % 998,5 hPa 0,0 l/m 8,0 km/h (2 Bft) SW 225 0 min 0,0 UV-I 0 W/m 2,1 C 2,1 C 14,5 km/h (3 Bft)
09.01.2023 04:05 3,6 C 2,2 C 90 % 998,4 hPa 0,0 l/m 8,0 km/h (2 Bft) SW 225 0 min 0,0 UV-I 0 W/m 2,1 C 2,1 C 14,5 km/h (3 Bft)
09.01.2023 04:06 3,6 C 2,2 C 90 % 998,4 hPa 0,0 l/m 11,3 km/h (2 Bft) SW 225 0 min 0,0 UV-I 0 W/m 2,1 C -0,4 C 14,5 km/h (3 Bft)
09.01.2023 04:07 3,6 C 2,2 C 90 % 998,4 hPa 0,0 l/m 8,0 km/h (2 Bft) SW 225 0 min 0,0 UV-I 0 W/m 2,1 C 2,1 C 11,3 km/h (2 Bft)
09.01.2023 04:08 3,5 C 2,2 C 90 % 998,5 hPa 0,0 l/m 9,7 km/h (2 Bft) S-SW 202 0 min 0,0 UV-I 0 W/m 2,0 C 0,6 C 16,1 km/h (3 Bft)
09.01.2023 04:09 3,5 C 2,2 C 90 % 998,5 hPa 0,0 l/m 8,0 km/h (2 Bft) SW 225 0 min 0,0 UV-I 0 W/m 2,0 C 2,0 C 12,9 km/h (3 Bft)
09.01.2023 04:10 3,4 C 1,7 C 90 % 998,5 hPa 0,0 l/m 9,7 km/h (2 Bft) S-SW 202 0 min 0,0 UV-I 0 W/m 1,9 C 0,5 C 12,9 km/h (3 Bft)
09.01.2023 04:11 3,4 C 1,7 C 90 % 998,5 hPa 0,0 l/m 9,7 km/h (2 Bft) S-SW 202 0 min 0,0 UV-I 0 W/m 1,9 C 0,5 C 12,9 km/h (3 Bft)
09.01.2023 04:12 3,4 C 1,7 C 90 % 998,5 hPa 0,0 l/m 9,7 km/h (2 Bft) S-SW 202 0 min 0,0 UV-I 0 W/m 1,9 C 0,5 C 12,9 km/h (3 Bft)
09.01.2023 04:13 3,3 C 1,7 C 90 % 998,5 hPa 0,0 l/m 11,3 km/h (2 Bft) S-SW 202 0 min 0,0 UV-I 0 W/m 1,8 C -0,7 C 14,5 km/h (3 Bft)
09.01.2023 04:14 3,3 C 1,7 C 90 % 998,6 hPa 0,0 l/m 12,9 km/h (3 Bft) S-SW 202 0 min 0,0 UV-I 0 W/m 1,8 C -1,8 C 16,1 km/h (3 Bft)
09.01.2023 04:15 3,3 C 1,7 C 90 % 998,6 hPa 0,0 l/m 14,5 km/h (3 Bft) S-SW 202 0 min 0,0 UV-I 0 W/m 1,8 C -2,7 C 17,7 km/h (3 Bft)
09.01.2023 04:16 3,2 C 1,7 C 90 % 998,6 hPa 0,0 l/m 14,5 km/h (3 Bft) S-SW 202 0 min 0,0 UV-I 0 W/m 1,7 C -2,8 C 17,7 km/h (3 Bft)
09.01.2023 04:17 3,2 C 1,7 C 90 % 998,6 hPa 0,0 l/m 16,1 km/h (3 Bft) S-SW 202 0 min 0,0 UV-I 0 W/m 1,7 C -3,7 C 19,3 km/h (3 Bft)
09.01.2023 04:18 3,2 C 1,7 C 90 % 998,5 hPa 0,0 l/m 14,5 km/h (3 Bft) SW 225 0 min 0,0 UV-I 0 W/m 1,7 C -2,8 C 19,3 km/h (3 Bft)
09.01.2023 04:19 3,2 C 1,7 C 90 % 998,5 hPa 0,0 l/m 12,9 km/h (3 Bft) S-SW 202 0 min 0,0 UV-I 0 W/m 1,7 C -1,9 C 17,7 km/h (3 Bft)
09.01.2023 04:20 3,2 C 1,7 C 90 % 998,5 hPa 0,0 l/m 14,5 km/h (3 Bft) S 180 0 min 0,0 UV-I 0 W/m 1,7 C -2,8 C 16,1 km/h (3 Bft)
09.01.2023 04:21 3,1 C 1,7 C 90 % 998,5 hPa 0,0 l/m 11,3 km/h (2 Bft) S-SW 202 0 min 0,0 UV-I 0 W/m 1,6 C -1,0 C 16,1 km/h (3 Bft)
09.01.2023 04:22 3,1 C 1,7 C 90 % 998,5 hPa 0,0 l/m 12,9 km/h (3 Bft) S-SW 202 0 min 0,0 UV-I 0 W/m 1,6 C -2,0 C 20,9 km/h (4 Bft)
09.01.2023 04:23 3,1 C 1,7 C 90 % 998,5 hPa 0,0 l/m 12,9 km/h (3 Bft) S-SW 202 0 min 0,0 UV-I 0 W/m 1,6 C -2,0 C 19,3 km/h (3 Bft)
09.01.2023 04:24 3,1 C 1,7 C 90 % 998,5 hPa 0,0 l/m 12,9 km/h (3 Bft) S-SW 202 0 min 0,0 UV-I 0 W/m 1,6 C -2,0 C 16,1 km/h (3 Bft)
09.01.2023 04:25 3,1 C 1,7 C 90 % 998,5 hPa 0,0 l/m 12,9 km/h (3 Bft) S 180 0 min 0,0 UV-I 0 W/m 1,6 C -2,0 C 17,7 km/h (3 Bft)
09.01.2023 04:26 3,1 C 1,7 C 90 % 998,5 hPa 0,0 l/m 14,5 km/h (3 Bft) S-SW 202 0 min 0,0 UV-I 0 W/m 1,6 C -2,9 C 20,9 km/h (4 Bft)
09.01.2023 04:27 3,1 C 1,7 C 90 % 998,5 hPa 0,0 l/m 16,1 km/h (3 Bft) S-SW 202 0 min 0,0 UV-I 0 W/m 1,6 C -3,8 C 20,9 km/h (4 Bft)
09.01.2023 04:28 3,0 C 1,7 C 90 % 998,4 hPa 0,0 l/m 12,9 km/h (3 Bft) S-SW 202 0 min 0,0 UV-I 0 W/m 1,5 C -2,1 C 19,3 km/h (3 Bft)
09.01.2023 04:29 3,0 C 1,7 C 90 % 998,5 hPa 0,0 l/m 16,1 km/h (3 Bft) S-SW 202 0 min 0,0 UV-I 0 W/m 1,5 C -3,9 C 20,9 km/h (4 Bft)
09.01.2023 04:30 3,0 C 1,7 C 90 % 998,4 hPa 0,0 l/m 12,9 km/h (3 Bft) S-SW 202 0 min 0,0 UV-I 0 W/m 1,5 C -2,1 C 14,5 km/h (3 Bft)
09.01.2023 04:31 2,9 C 1,7 C 90 % 998,5 hPa 0,0 l/m 16,1 km/h (3 Bft) S-SW 202 0 min 0,0 UV-I 0 W/m 1,4 C -4,1 C 19,3 km/h (3 Bft)
09.01.2023 04:32 2,9 C 1,7 C 90 % 998,5 hPa 0,0 l/m 12,9 km/h (3 Bft) S-SW 202 0 min 0,0 UV-I 0 W/m 1,4 C -2,2 C 19,3 km/h (3 Bft)
09.01.2023 04:33 2,9 C 1,7 C 90 % 998,5 hPa 0,0 l/m 12,9 km/h (3 Bft) S 180 0 min 0,0 UV-I 0 W/m 1,4 C -2,2 C 19,3 km/h (3 Bft)
09.01.2023 04:34 2,9 C 1,7 C 90 % 998,5 hPa 0,0 l/m 16,1 km/h (3 Bft) S 180 0 min 0,0 UV-I 0 W/m 1,4 C -4,1 C 27,4 km/h (4 Bft)
09.01.2023 04:35 2,9 C 1,7 C 90 % 998,6 hPa 0,0 l/m 16,1 km/h (3 Bft) S-SW 202 0 min 0,0 UV-I 0 W/m 1,4 C -4,1 C 19,3 km/h (3 Bft)
09.01.2023 04:36 2,9 C 1,7 C 90 % 998,5 hPa 0,0 l/m 16,1 km/h (3 Bft) S 180 0 min 0,0 UV-I 0 W/m 1,4 C -4,1 C 22,5 km/h (4 Bft)
09.01.2023 04:37 2,9 C 1,7 C 90 % 998,5 hPa 0,0 l/m 17,7 km/h (3 Bft) S 180 0 min 0,0 UV-I 0 W/m 1,4 C -4,8 C 24,1 km/h (4 Bft)
09.01.2023 04:38 2,9 C 1,7 C 90 % 998,5 hPa 0,0 l/m 14,5 km/h (3 Bft) S-SW 202 0 min 0,0 UV-I 0 W/m 1,4 C -3,2 C 24,1 km/h (4 Bft)
09.01.2023 04:39 2,9 C 1,7 C 90 % 998,6 hPa 0,0 l/m 19,3 km/h (3 Bft) S-SW 202 0 min 0,0 UV-I 0 W/m 1,4 C -5,6 C 25,7 km/h (4 Bft)
09.01.2023 04:40 2,9 C 1,7 C 90 % 998,5 hPa 0,0 l/m 19,3 km/h (3 Bft) S 180 0 min 0,0 UV-I 0 W/m 1,4 C -5,6 C 25,7 km/h (4 Bft)
09.01.2023 04:41 2,9 C 1,7 C 90 % 998,5 hPa 0,0 l/m 17,7 km/h (3 Bft) S 180 0 min 0,0 UV-I 0 W/m 1,4 C -4,8 C 32,2 km/h (5 Bft)
09.01.2023 04:42 2,9 C 1,7 C 90 % 998,5 hPa 0,0 l/m 19,3 km/h (3 Bft) S 180 0 min 0,0 UV-I 0 W/m 1,4 C -5,6 C 30,6 km/h (5 Bft)
09.01.2023 04:43 2,9 C 2,2 C 90 % 998,6 hPa 0,0 l/m 17,7 km/h (3 Bft) S 180 0 min 0,0 UV-I 0 W/m 1,4 C -4,8 C 25,7 km/h (4 Bft)
09.01.2023 04:44 2,9 C 1,7 C 90 % 998,6 hPa 0,0 l/m 17,7 km/h (3 Bft) S-SW 202 0 min 0,0 UV-I 0 W/m 1,4 C -4,8 C 22,5 km/h (4 Bft)
09.01.2023 04:45 2,9 C 1,7 C 90 % 998,5 hPa 0,0 l/m 19,3 km/h (3 Bft) S-SW 202 0 min 0,0 UV-I 0 W/m 1,4 C -5,6 C 24,1 km/h (4 Bft)
09.01.2023 04:46 2,9 C 1,7 C 90 % 998,4 hPa 0,0 l/m 22,5 km/h (4 Bft) S 180 0 min 0,0 UV-I 0 W/m 1,4 C -6,9 C 37,0 km/h (5 Bft)
09.01.2023 04:47 2,9 C 1,7 C 90 % 998,4 hPa 0,0 l/m 20,9 km/h (4 Bft) S 180 0 min 0,0 UV-I 0 W/m 1,4 C -6,3 C 32,2 km/h (5 Bft)
09.01.2023 04:48 2,9 C 1,7 C 90 % 998,5 hPa 0,0 l/m 16,1 km/h (3 Bft) S-SW 202 0 min 0,0 UV-I 0 W/m 1,4 C -4,1 C 24,1 km/h (4 Bft)
09.01.2023 04:49 2,9 C 1,7 C 90 % 998,5 hPa 0,0 l/m 16,1 km/h (3 Bft) S-SW 202 0 min 0,0 UV-I 0 W/m 1,4 C -4,1 C 25,7 km/h (4 Bft)
09.01.2023 04:50 2,9 C 1,7 C 90 % 998,3 hPa 0,0 l/m 17,7 km/h (3 Bft) S-SW 202 0 min 0,0 UV-I 0 W/m 1,4 C -4,8 C 25,7 km/h (4 Bft)
09.01.2023 04:51 2,9 C 1,7 C 90 % 998,4 hPa 0,0 l/m 20,9 km/h (4 Bft) S-SO 157 0 min 0,0 UV-I 0 W/m 1,4 C -6,3 C 29,0 km/h (5 Bft)
09.01.2023 04:52 2,9 C 1,7 C 90 % 998,4 hPa 0,0 l/m 19,3 km/h (3 Bft) S-SW 202 0 min 0,0 UV-I 0 W/m 1,4 C -5,6 C 24,1 km/h (4 Bft)
09.01.2023 04:53 2,9 C 1,7 C 90 % 998,5 hPa 0,0 l/m 17,7 km/h (3 Bft) S 180 0 min 0,0 UV-I 0 W/m 1,4 C -4,8 C 25,7 km/h (4 Bft)
09.01.2023 04:54 2,9 C 1,7 C 90 % 998,5 hPa 0,0 l/m 17,7 km/h (3 Bft) S-SW 202 0 min 0,0 UV-I 0 W/m 1,4 C -4,8 C 22,5 km/h (4 Bft)
09.01.2023 04:55 2,9 C 1,7 C 90 % 998,5 hPa 0,0 l/m 14,5 km/h (3 Bft) S 180 0 min 0,0 UV-I 0 W/m 1,4 C -3,2 C 25,7 km/h (4 Bft)
09.01.2023 04:56 2,9 C 2,2 C 90 % 998,5 hPa 0,0 l/m 16,1 km/h (3 Bft) S 180 0 min 0,0 UV-I 0 W/m 1,4 C -4,1 C 29,0 km/h (5 Bft)
09.01.2023 04:57 2,9 C 1,7 C 90 % 998,5 hPa 0,0 l/m 14,5 km/h (3 Bft) S-SW 202 0 min 0,0 UV-I 0 W/m 1,4 C -3,2 C 20,9 km/h (4 Bft)
09.01.2023 04:58 2,9 C 1,7 C 90 % 998,5 hPa 0,0 l/m 12,9 km/h (3 Bft) S 180 0 min 0,0 UV-I 0 W/m 1,4 C -2,2 C 16,1 km/h (3 Bft)
09.01.2023 04:59 2,9 C 1,7 C 90 % 998,5 hPa 0,0 l/m 12,9 km/h (3 Bft) S 180 0 min 0,0 UV-I 0 W/m 1,4 C -2,2 C 19,3 km/h (3 Bft)
09.01.2023 05:00 2,8 C 1,7 C 90 % 998,5 hPa 0,0 l/m 9,7 km/h (2 Bft) S 180 0 min 0,0 UV-I 0 W/m 1,3 C -0,1 C 16,1 km/h (3 Bft)
09.01.2023 05:01 2,8 C 1,7 C 90 % 998,5 hPa 0,0 l/m 12,9 km/h (3 Bft) S 180 0 min 0,0 UV-I 0 W/m 1,3 C -2,4 C 19,3 km/h (3 Bft)
09.01.2023 05:02 2,8 C 1,7 C 90 % 998,5 hPa 0,0 l/m 16,1 km/h (3 Bft) S 180 0 min 0,0 UV-I 0 W/m 1,3 C -4,2 C 24,1 km/h (4 Bft)
09.01.2023 05:03 2,8 C 1,7 C 90 % 998,5 hPa 0,0 l/m 14,5 km/h (3 Bft) S 180 0 min 0,0 UV-I 0 W/m 1,3 C -3,3 C 19,3 km/h (3 Bft)
09.01.2023 05:04 2,9 C 1,7 C 90 % 998,6 hPa 0,0 l/m 12,9 km/h (3 Bft) S 180 0 min 0,0 UV-I 0 W/m 1,4 C -2,2 C 16,1 km/h (3 Bft)
09.01.2023 05:05 2,8 C 2,2 C 90 % 998,6 hPa 0,0 l/m 12,9 km/h (3 Bft) S-SW 202 0 min 0,0 UV-I 0 W/m 1,3 C -2,4 C 17,7 km/h (3 Bft)
09.01.2023 05:06 2,8 C 2,2 C 90 % 998,6 hPa 0,0 l/m 8,0 km/h (2 Bft) S 180 0 min 0,0 UV-I 0 W/m 1,3 C 1,3 C 16,1 km/h (3 Bft)
09.01.2023 05:07 2,8 C 1,7 C 90 % 998,6 hPa 0,0 l/m 12,9 km/h (3 Bft) S 180 0 min 0,0 UV-I 0 W/m 1,3 C -2,4 C 25,7 km/h (4 Bft)
09.01.2023 05:08 2,9 C 1,7 C 90 % 998,5 hPa 0,0 l/m 11,3 km/h (2 Bft) S-SW 202 0 min 0,0 UV-I 0 W/m 1,4 C -1,2 C 19,3 km/h (3 Bft)
09.01.2023 05:09 2,9 C 2,2 C 90 % 998,6 hPa 0,0 l/m 12,9 km/h (3 Bft) S 180 0 min 0,0 UV-I 0 W/m 1,4 C -2,2 C 22,5 km/h (4 Bft)
09.01.2023 05:10 2,8 C 2,2 C 90 % 998,5 hPa 0,0 l/m 14,5 km/h (3 Bft) S 180 0 min 0,0 UV-I 0 W/m 1,3 C -3,3 C 20,9 km/h (4 Bft)
09.01.2023 05:11 2,9 C 2,2 C 90 % 998,5 hPa 0,0 l/m 11,3 km/h (2 Bft) S 180 0 min 0,0 UV-I 0 W/m 1,4 C -1,2 C 17,7 km/h (3 Bft)
09.01.2023 05:12 2,9 C 2,2 C 90 % 998,6 hPa 0,0 l/m 16,1 km/h (3 Bft) S-SW 202 0 min 0,0 UV-I 0 W/m 1,4 C -4,1 C 20,9 km/h (4 Bft)
09.01.2023 05:13 2,9 C 2,2 C 90 % 998,6 hPa 0,0 l/m 19,3 km/h (3 Bft) S 180 0 min 0,0 UV-I 0 W/m 1,4 C -5,6 C 24,1 km/h (4 Bft)
09.01.2023 05:14 2,9 C 2,2 C 90 % 998,6 hPa 0,0 l/m 16,1 km/h (3 Bft) S-SW 202 0 min 0,0 UV-I 0 W/m 1,4 C -4,1 C 22,5 km/h (4 Bft)
09.01.2023 05:15 2,9 C 2,2 C 90 % 998,5 hPa 0,0 l/m 16,1 km/h (3 Bft) S-SW 202 0 min 0,0 UV-I 0 W/m 1,4 C -4,1 C 20,9 km/h (4 Bft)
09.01.2023 05:16 3,0 C 2,2 C 90 % 998,6 hPa 0,0 l/m 14,5 km/h (3 Bft) S-SW 202 0 min 0,0 UV-I 0 W/m 1,5 C -3,1 C 19,3 km/h (3 Bft)
09.01.2023 05:17 3,0 C 2,2 C 90 % 998,6 hPa 0,0 l/m 12,9 km/h (3 Bft) S-SW 202 0 min 0,0 UV-I 0 W/m 1,5 C -2,1 C 19,3 km/h (3 Bft)
09.01.2023 05:18 3,0 C 2,2 C 90 % 998,7 hPa 0,0 l/m 16,1 km/h (3 Bft) S-SW 202 0 min 0,0 UV-I 0 W/m 1,5 C -3,9 C 24,1 km/h (4 Bft)
09.01.2023 05:19 3,1 C 2,2 C 90 % 998,6 hPa 0,0 l/m 16,1 km/h (3 Bft) S 180 0 min 0,0 UV-I 0 W/m 1,6 C -3,8 C 27,4 km/h (4 Bft)
09.01.2023 05:20 3,1 C 2,2 C 90 % 998,7 hPa 0,0 l/m 24,1 km/h (4 Bft) S 180 0 min 0,0 UV-I 0 W/m 1,6 C -7,2 C 33,8 km/h (5 Bft)
09.01.2023 05:21 3,1 C 2,2 C 90 % 998,6 hPa 0,0 l/m 20,9 km/h (4 Bft) S 180 0 min 0,0 UV-I 0 W/m 1,6 C -6,0 C 30,6 km/h (5 Bft)
09.01.2023 05:22 3,1 C 2,2 C 90 % 998,7 hPa 0,0 l/m 24,1 km/h (4 Bft) S 180 0 min 0,0 UV-I 0 W/m 1,6 C -7,2 C 33,8 km/h (5 Bft)
09.01.2023 05:23 3,1 C 2,2 C 90 % 998,6 hPa 0,0 l/m 19,3 km/h (3 Bft) S-SW 202 0 min 0,0 UV-I 0 W/m 1,6 C -5,3 C 27,4 km/h (4 Bft)
09.01.2023 05:24 3,1 C 2,8 C 90 % 998,7 hPa 0,0 l/m 17,7 km/h (3 Bft) S 180 0 min 0,0 UV-I 0 W/m 1,6 C -4,6 C 25,7 km/h (4 Bft)
09.01.2023 05:25 3,1 C 2,8 C 90 % 998,6 hPa 0,0 l/m 14,5 km/h (3 Bft) S 180 0 min 0,0 UV-I 0 W/m 1,6 C -2,9 C 19,3 km/h (3 Bft)
09.01.2023 05:26 3,1 C 2,8 C 90 % 998,7 hPa 0,0 l/m 16,1 km/h (3 Bft) S 180 0 min 0,0 UV-I 0 W/m 1,6 C -3,8 C 22,5 km/h (4 Bft)
09.01.2023 05:27 3,1 C 2,8 C 90 % 998,7 hPa 0,0 l/m 12,9 km/h (3 Bft) S 180 0 min 0,0 UV-I 0 W/m 1,6 C -2,0 C 17,7 km/h (3 Bft)
09.01.2023 05:28 3,1 C 2,8 C 90 % 998,6 hPa 0,0 l/m 19,3 km/h (3 Bft) S 180 0 min 0,0 UV-I 0 W/m 1,6 C -5,3 C 27,4 km/h (4 Bft)
09.01.2023 05:29 3,2 C 2,8 C 90 % 998,6 hPa 0,0 l/m 12,9 km/h (3 Bft) S 180 0 min 0,0 UV-I 0 W/m 1,7 C -1,9 C 20,9 km/h (4 Bft)
09.01.2023 05:30 3,2 C 2,8 C 90 % 998,7 hPa 0,0 l/m 19,3 km/h (3 Bft) S 180 0 min 0,0 UV-I 0 W/m 1,7 C -5,2 C 25,7 km/h (4 Bft)
09.01.2023 05:31 3,2 C 2,8 C 90 % 998,6 hPa 0,0 l/m 19,3 km/h (3 Bft) S 180 0 min 0,0 UV-I 0 W/m 1,7 C -5,2 C 24,1 km/h (4 Bft)
09.01.2023 05:32 3,2 C 2,8 C 90 % 998,7 hPa 0,0 l/m 20,9 km/h (4 Bft) S 180 0 min 0,0 UV-I 0 W/m 1,7 C -5,9 C 33,8 km/h (5 Bft)
09.01.2023 05:33 3,2 C 2,8 C 90 % 998,7 hPa 0,0 l/m 12,9 km/h (3 Bft) S 180 0 min 0,0 UV-I 0 W/m 1,7 C -1,9 C 24,1 km/h (4 Bft)
09.01.2023 05:34 3,2 C 2,8 C 90 % 998,6 hPa 0,0 l/m 14,5 km/h (3 Bft) S 180 0 min 0,0 UV-I 0 W/m 1,7 C -2,8 C 20,9 km/h (4 Bft)
09.01.2023 05:35 3,2 C 2,8 C 90 % 998,7 hPa 0,0 l/m 14,5 km/h (3 Bft) S 180 0 min 0,0 UV-I 0 W/m 1,7 C -2,8 C 20,9 km/h (4 Bft)
09.01.2023 05:36 3,2 C 2,8 C 90 % 998,7 hPa 0,0 l/m 19,3 km/h (3 Bft) S 180 0 min 0,0 UV-I 0 W/m 1,7 C -5,2 C 29,0 km/h (5 Bft)
09.01.2023 05:37 3,2 C 2,8 C 90 % 998,8 hPa 0,0 l/m 19,3 km/h (3 Bft) S-SW 202 0 min 0,0 UV-I 0 W/m 1,7 C -5,2 C 27,4 km/h (4 Bft)
09.01.2023 05:38 3,2 C 2,8 C 90 % 998,8 hPa 0,0 l/m 14,5 km/h (3 Bft) S 180 0 min 0,0 UV-I 0 W/m 1,7 C -2,8 C 20,9 km/h (4 Bft)
09.01.2023 05:39 3,3 C 2,8 C 90 % 998,8 hPa 0,0 l/m 16,1 km/h (3 Bft) S 180 0 min 0,0 UV-I 0 W/m 1,8 C -3,6 C 24,1 km/h (4 Bft)
09.01.2023 05:40 3,3 C 2,8 C 90 % 998,8 hPa 0,0 l/m 14,5 km/h (3 Bft) S 180 0 min 0,0 UV-I 0 W/m 1,8 C -2,7 C 22,5 km/h (4 Bft)
09.01.2023 05:41 3,3 C 2,8 C 90 % 998,8 hPa 0,0 l/m 17,7 km/h (3 Bft) S 180 0 min 0,0 UV-I 0 W/m 1,8 C -4,3 C 25,7 km/h (4 Bft)
09.01.2023 05:42 3,3 C 2,8 C 90 % 998,8 hPa 0,0 l/m 16,1 km/h (3 Bft) S 180 0 min 0,0 UV-I 0 W/m 1,8 C -3,6 C 25,7 km/h (4 Bft)
09.01.2023 05:43 3,3 C 2,8 C 90 % 998,9 hPa 0,0 l/m 20,9 km/h (4 Bft) S 180 0 min 0,0 UV-I 0 W/m 1,8 C -5,7 C 27,4 km/h (4 Bft)
09.01.2023 05:44 3,3 C 2,8 C 90 % 998,9 hPa 0,0 l/m 17,7 km/h (3 Bft) S-SW 202 0 min 0,0 UV-I 0 W/m 1,8 C -4,3 C 24,1 km/h (4 Bft)
09.01.2023 05:45 3,3 C 2,8 C 90 % 999,0 hPa 0,0 l/m 22,5 km/h (4 Bft) S 180 0 min 0,0 UV-I 0 W/m 1,8 C -6,4 C 35,4 km/h (5 Bft)
09.01.2023 05:46 3,3 C 2,8 C 90 % 998,8 hPa 0,0 l/m 17,7 km/h (3 Bft) S-SW 202 0 min 0,0 UV-I 0 W/m 1,8 C -4,3 C 29,0 km/h (5 Bft)
09.01.2023 05:47 3,3 C 2,8 C 90 % 999,0 hPa 0,0 l/m 16,1 km/h (3 Bft) S 180 0 min 0,0 UV-I 0 W/m 1,8 C -3,6 C 22,5 km/h (4 Bft)
09.01.2023 05:48 3,3 C 2,8 C 90 % 999,0 hPa 0,0 l/m 16,1 km/h (3 Bft) S 180 0 min 0,0 UV-I 0 W/m 1,8 C -3,6 C 22,5 km/h (4 Bft)
09.01.2023 05:49 3,3 C 2,8 C 90 % 998,8 hPa 0,0 l/m 19,3 km/h (3 Bft) S 180 0 min 0,0 UV-I 0 W/m 1,8 C -5,1 C 29,0 km/h (5 Bft)
09.01.2023 05:50 3,3 C 2,8 C 90 % 999,0 hPa 0,0 l/m 20,9 km/h (4 Bft) S 180 0 min 0,0 UV-I 0 W/m 1,8 C -5,7 C 29,0 km/h (5 Bft)
09.01.2023 05:51 3,3 C 2,8 C 90 % 999,0 hPa 0,0 l/m 12,9 km/h (3 Bft) S 180 0 min 0,0 UV-I 0 W/m 1,8 C -1,8 C 22,5 km/h (4 Bft)
09.01.2023 05:52 3,3 C 2,8 C 90 % 998,9 hPa 0,0 l/m 19,3 km/h (3 Bft) S 180 0 min 0,0 UV-I 0 W/m 1,8 C -5,1 C 27,4 km/h (4 Bft)
09.01.2023 05:53 3,4 C 2,8 C 90 % 998,9 hPa 0,0 l/m 17,7 km/h (3 Bft) S 180 0 min 0,0 UV-I 0 W/m 1,9 C -4,2 C 29,0 km/h (5 Bft)
09.01.2023 05:54 3,4 C 2,8 C 90 % 999,0 hPa 0,0 l/m 14,5 km/h (3 Bft) S 180 0 min 0,0 UV-I 0 W/m 1,9 C -2,6 C 24,1 km/h (4 Bft)
09.01.2023 05:55 3,4 C 2,8 C 90 % 998,9 hPa 0,0 l/m 16,1 km/h (3 Bft) S 180 0 min 0,0 UV-I 0 W/m 1,9 C -3,4 C 27,4 km/h (4 Bft)
09.01.2023 05:56 3,4 C 2,8 C 90 % 999,0 hPa 0,0 l/m 12,9 km/h (3 Bft) S 180 0 min 0,0 UV-I 0 W/m 1,9 C -1,7 C 22,5 km/h (4 Bft)
09.01.2023 05:57 3,4 C 2,8 C 90 % 999,0 hPa 0,0 l/m 17,7 km/h (3 Bft) S 180 0 min 0,0 UV-I 0 W/m 1,9 C -4,2 C 27,4 km/h (4 Bft)
09.01.2023 05:58 3,4 C 2,8 C 90 % 999,0 hPa 0,0 l/m 25,7 km/h (4 Bft) S-SO 157 0 min 0,0 UV-I 0 W/m 1,9 C -7,3 C 41,8 km/h (6 Bft)
09.01.2023 05:59 3,4 C 2,8 C 90 % 999,0 hPa 0,0 l/m 17,7 km/h (3 Bft) S-SW 202 0 min 0,0 UV-I 0 W/m 1,9 C -4,2 C 24,1 km/h (4 Bft)
09.01.2023 06:00 3,4 C 2,8 C 90 % 999,0 hPa 0,0 l/m 17,7 km/h (3 Bft) S 180 0 min 0,0 UV-I 0 W/m 1,9 C -4,2 C 22,5 km/h (4 Bft)
09.01.2023 06:01 3,4 C 2,8 C 90 % 999,0 hPa 0,0 l/m 19,3 km/h (3 Bft) S 180 0 min 0,0 UV-I 0 W/m 1,9 C -4,9 C 25,7 km/h (4 Bft)
09.01.2023 06:02 3,4 C 2,8 C 90 % 998,9 hPa 0,0 l/m 22,5 km/h (4 Bft) S-SW 202 0 min 0,0 UV-I 0 W/m 1,9 C -6,2 C 33,8 km/h (5 Bft)
09.01.2023 06:03 3,4 C 2,8 C 90 % 999,2 hPa 0,0 l/m 19,3 km/h (3 Bft) S 180 0 min 0,0 UV-I 0 W/m 1,9 C -4,9 C 25,7 km/h (4 Bft)
09.01.2023 06:04 3,4 C 2,8 C 90 % 999,2 hPa 0,0 l/m 20,9 km/h (4 Bft) S-SW 202 0 min 0,0 UV-I 0 W/m 1,9 C -5,6 C 27,4 km/h (4 Bft)
09.01.2023 06:05 3,4 C 2,8 C 90 % 999,3 hPa 0,0 l/m 20,9 km/h (4 Bft) S 180 0 min 0,0 UV-I 0 W/m 1,9 C -5,6 C 25,7 km/h (4 Bft)
09.01.2023 06:06 3,4 C 2,8 C 90 % 999,2 hPa 0,0 l/m 19,3 km/h (3 Bft) S 180 0 min 0,0 UV-I 0 W/m 1,9 C -4,9 C 27,4 km/h (4 Bft)
09.01.2023 06:07 3,4 C 2,8 C 90 % 999,3 hPa 0,0 l/m 16,1 km/h (3 Bft) S 180 0 min 0,0 UV-I 0 W/m 1,9 C -3,4 C 22,5 km/h (4 Bft)
09.01.2023 06:08 3,4 C 2,8 C 90 % 999,2 hPa 0,0 l/m 16,1 km/h (3 Bft) S-SW 202 0 min 0,0 UV-I 0 W/m 1,9 C -3,4 C 20,9 km/h (4 Bft)
09.01.2023 06:09 3,4 C 2,8 C 90 % 999,2 hPa 0,0 l/m 16,1 km/h (3 Bft) S-SW 202 0 min 0,0 UV-I 0 W/m 1,9 C -3,4 C 25,7 km/h (4 Bft)
09.01.2023 06:10 3,4 C 2,8 C 90 % 999,2 hPa 0,0 l/m 14,5 km/h (3 Bft) S 180 0 min 0,0 UV-I 0 W/m 1,9 C -2,6 C 29,0 km/h (5 Bft)
09.01.2023 06:11 3,4 C 2,8 C 90 % 999,3 hPa 0,2 l/m 20,9 km/h (4 Bft) S 180 0 min 0,0 UV-I 0 W/m 1,9 C -5,6 C 33,8 km/h (5 Bft)
09.01.2023 06:12 3,4 C 2,8 C 90 % 999,3 hPa 0,0 l/m 24,1 km/h (4 Bft) S 180 0 min 0,0 UV-I 0 W/m 1,9 C -6,8 C 32,2 km/h (5 Bft)
09.01.2023 06:13 3,4 C 2,8 C 90 % 999,3 hPa 0,0 l/m 19,3 km/h (3 Bft) S 180 0 min 0,0 UV-I 0 W/m 1,9 C -4,9 C 25,7 km/h (4 Bft)
09.01.2023 06:14 3,4 C 2,8 C 91 % 999,3 hPa 0,0 l/m 22,5 km/h (4 Bft) S-SW 202 0 min 0,0 UV-I 0 W/m 2,1 C -6,2 C 33,8 km/h (5 Bft)
09.01.2023 06:15 3,4 C 2,8 C 91 % 999,3 hPa 0,0 l/m 20,9 km/h (4 Bft) S 180 0 min 0,0 UV-I 0 W/m 2,1 C -5,6 C 24,1 km/h (4 Bft)
09.01.2023 06:16 3,4 C 2,8 C 91 % 999,3 hPa 0,0 l/m 17,7 km/h (3 Bft) S 180 0 min 0,0 UV-I 0 W/m 2,1 C -4,2 C 29,0 km/h (5 Bft)
09.01.2023 06:17 3,4 C 2,8 C 91 % 999,4 hPa 0,0 l/m 16,1 km/h (3 Bft) S 180 0 min 0,0 UV-I 0 W/m 2,1 C -3,4 C 25,7 km/h (4 Bft)
09.01.2023 06:18 3,4 C 2,8 C 91 % 999,3 hPa 0,0 l/m 19,3 km/h (3 Bft) S 180 0 min 0,0 UV-I 0 W/m 2,1 C -4,9 C 25,7 km/h (4 Bft)
09.01.2023 06:19 3,4 C 2,8 C 91 % 999,4 hPa 0,0 l/m 17,7 km/h (3 Bft) S 180 0 min 0,0 UV-I 0 W/m 2,1 C -4,2 C 25,7 km/h (4 Bft)
09.01.2023 06:20 3,4 C 2,8 C 91 % 999,4 hPa 0,0 l/m 20,9 km/h (4 Bft) S 180 0 min 0,0 UV-I 0 W/m 2,1 C -5,6 C 30,6 km/h (5 Bft)
09.01.2023 06:21 3,4 C 2,8 C 91 % 999,3 hPa 0,0 l/m 14,5 km/h (3 Bft) S 180 0 min 0,0 UV-I 0 W/m 2,1 C -2,6 C 17,7 km/h (3 Bft)
09.01.2023 06:22 3,4 C 2,8 C 91 % 999,4 hPa 0,0 l/m 12,9 km/h (3 Bft) S 180 0 min 0,0 UV-I 0 W/m 2,1 C -1,7 C 24,1 km/h (4 Bft)
09.01.2023 06:23 3,4 C 2,8 C 91 % 999,4 hPa 0,0 l/m 12,9 km/h (3 Bft) S 180 0 min 0,0 UV-I 0 W/m 2,1 C -1,7 C 19,3 km/h (3 Bft)
09.01.2023 06:24 3,4 C 2,8 C 91 % 999,4 hPa 0,0 l/m 20,9 km/h (4 Bft) S 180 0 min 0,0 UV-I 0 W/m 2,1 C -5,6 C 29,0 km/h (5 Bft)
09.01.2023 06:25 3,4 C 2,8 C 91 % 999,4 hPa 0,0 l/m 16,1 km/h (3 Bft) S 180 0 min 0,0 UV-I 0 W/m 2,1 C -3,4 C 27,4 km/h (4 Bft)
09.01.2023 06:26 3,5 C 2,8 C 91 % 999,4 hPa 0,0 l/m 12,9 km/h (3 Bft) S 180 0 min 0,0 UV-I 0 W/m 2,2 C -1,5 C 16,1 km/h (3 Bft)
09.01.2023 06:27 3,4 C 2,8 C 91 % 999,5 hPa 0,0 l/m 24,1 km/h (4 Bft) S-SW 202 0 min 0,0 UV-I 0 W/m 2,1 C -6,8 C 32,2 km/h (5 Bft)
09.01.2023 06:28 3,5 C 2,8 C 91 % 999,5 hPa 0,0 l/m 24,1 km/h (4 Bft) S 180 0 min 0,0 UV-I 0 W/m 2,2 C -6,7 C 32,2 km/h (5 Bft)
09.01.2023 06:29 3,4 C 2,8 C 91 % 999,5 hPa 0,0 l/m 19,3 km/h (3 Bft) S 180 0 min 0,0 UV-I 0 W/m 2,1 C -4,9 C 30,6 km/h (5 Bft)
09.01.2023 06:30 3,4 C 2,8 C 91 % 999,5 hPa 0,0 l/m 20,9 km/h (4 Bft) S 180 0 min 0,0 UV-I 0 W/m 2,1 C -5,6 C 25,7 km/h (4 Bft)
09.01.2023 06:31 3,5 C 2,8 C 91 % 999,5 hPa 0,0 l/m 20,9 km/h (4 Bft) S-SW 202 0 min 0,0 UV-I 0 W/m 2,2 C -5,5 C 25,7 km/h (4 Bft)
09.01.2023 06:32 3,5 C 2,8 C 91 % 999,5 hPa 0,0 l/m 24,1 km/h (4 Bft) S 180 0 min 0,0 UV-I 0 W/m 2,2 C -6,7 C 37,0 km/h (5 Bft)
09.01.2023 06:33 3,4 C 2,8 C 91 % 999,4 hPa 0,0 l/m 20,9 km/h (4 Bft) S 180 0 min 0,0 UV-I 0 W/m 2,1 C -5,6 C 29,0 km/h (5 Bft)
09.01.2023 06:34 3,5 C 2,8 C 91 % 999,5 hPa 0,0 l/m 22,5 km/h (4 Bft) S 180 0 min 0,0 UV-I 0 W/m 2,2 C -6,1 C 30,6 km/h (5 Bft)
09.01.2023 06:35 3,5 C 2,8 C 91 % 999,5 hPa 0,0 l/m 20,9 km/h (4 Bft) S-SW 202 0 min 0,0 UV-I 0 W/m 2,2 C -5,5 C 25,7 km/h (4 Bft)
09.01.2023 06:36 3,5 C 2,8 C 91 % 999,5 hPa 0,0 l/m 20,9 km/h (4 Bft) S 180 0 min 0,0 UV-I 0 W/m 2,2 C -5,5 C 29,0 km/h (5 Bft)
09.01.2023 06:37 3,5 C 2,8 C 91 % 999,5 hPa 0,0 l/m 12,9 km/h (3 Bft) S 180 0 min 0,0 UV-I 0 W/m 2,2 C -1,5 C 19,3 km/h (3 Bft)
09.01.2023 06:38 3,5 C 2,8 C 91 % 999,5 hPa 0,0 l/m 14,5 km/h (3 Bft) S-SW 202 0 min 0,0 UV-I 0 W/m 2,2 C -2,5 C 22,5 km/h (4 Bft)
09.01.2023 06:39 3,5 C 2,8 C 91 % 999,5 hPa 0,0 l/m 22,5 km/h (4 Bft) S 180 0 min 0,0 UV-I 0 W/m 2,2 C -6,1 C 29,0 km/h (5 Bft)
09.01.2023 06:40 3,5 C 2,8 C 91 % 999,4 hPa 0,0 l/m 19,3 km/h (3 Bft) S 180 0 min 0,0 UV-I 0 W/m 2,2 C -4,8 C 29,0 km/h (5 Bft)
09.01.2023 06:41 3,6 C 2,8 C 91 % 999,5 hPa 0,0 l/m 22,5 km/h (4 Bft) S-SW 202 0 min 0,0 UV-I 0 W/m 2,3 C -6,0 C 29,0 km/h (5 Bft)
09.01.2023 06:42 3,6 C 2,8 C 91 % 999,5 hPa 0,0 l/m 24,1 km/h (4 Bft) S 180 0 min 0,0 UV-I 0 W/m 2,3 C -6,5 C 32,2 km/h (5 Bft)
09.01.2023 06:43 3,6 C 2,8 C 91 % 999,4 hPa 0,0 l/m 22,5 km/h (4 Bft) S-SW 202 0 min 0,0 UV-I 0 W/m 2,3 C -6,0 C 30,6 km/h (5 Bft)
09.01.2023 06:44 3,6 C 2,8 C 91 % 999,5 hPa 0,0 l/m 17,7 km/h (3 Bft) S 180 0 min 0,0 UV-I 0 W/m 2,3 C -4,0 C 24,1 km/h (4 Bft)
09.01.2023 06:45 3,6 C 2,8 C 91 % 999,5 hPa 0,0 l/m 20,9 km/h (4 Bft) S 180 0 min 0,0 UV-I 0 W/m 2,3 C -5,3 C 32,2 km/h (5 Bft)
09.01.2023 06:46 3,6 C 2,8 C 91 % 999,6 hPa 0,0 l/m 22,5 km/h (4 Bft) S 180 0 min 0,0 UV-I 0 W/m 2,3 C -6,0 C 33,8 km/h (5 Bft)
09.01.2023 06:47 3,6 C 2,8 C 91 % 999,6 hPa 0,0 l/m 20,9 km/h (4 Bft) S 180 0 min 0,0 UV-I 0 W/m 2,3 C -5,3 C 30,6 km/h (5 Bft)
09.01.2023 06:48 3,6 C 2,8 C 91 % 999,5 hPa 0,0 l/m 24,1 km/h (4 Bft) S-SW 202 0 min 0,0 UV-I 0 W/m 2,3 C -6,5 C 33,8 km/h (5 Bft)
09.01.2023 06:49 3,6 C 2,8 C 91 % 999,5 hPa 0,0 l/m 24,1 km/h (4 Bft) S 180 0 min 0,0 UV-I 0 W/m 2,3 C -6,5 C 32,2 km/h (5 Bft)
09.01.2023 06:50 3,6 C 2,8 C 91 % 999,5 hPa 0,0 l/m 19,3 km/h (3 Bft) S-SW 202 0 min 0,0 UV-I 0 W/m 2,3 C -4,7 C 25,7 km/h (4 Bft)
09.01.2023 06:51 3,6 C 2,8 C 91 % 999,5 hPa 0,0 l/m 25,7 km/h (4 Bft) S 180 0 min 0,0 UV-I 0 W/m 2,3 C -7,1 C 30,6 km/h (5 Bft)
09.01.2023 06:52 3,6 C 2,8 C 91 % 999,5 hPa 0,0 l/m 22,5 km/h (4 Bft) S 180 0 min 0,0 UV-I 0 W/m 2,3 C -6,0 C 32,2 km/h (5 Bft)
09.01.2023 06:53 3,6 C 2,8 C 91 % 999,4 hPa 0,0 l/m 27,4 km/h (4 Bft) S-SW 202 0 min 0,0 UV-I 0 W/m 2,3 C -7,6 C 32,2 km/h (5 Bft)
09.01.2023 06:54 3,6 C 2,8 C 91 % 999,5 hPa 0,0 l/m 27,4 km/h (4 Bft) S 180 0 min 0,0 UV-I 0 W/m 2,3 C -7,6 C 38,6 km/h (5 Bft)
09.01.2023 06:55 3,6 C 2,8 C 91 % 999,5 hPa 0,0 l/m 24,1 km/h (4 Bft) S-SW 202 0 min 0,0 UV-I 0 W/m 2,3 C -6,5 C 35,4 km/h (5 Bft)
09.01.2023 06:56 3,6 C 2,8 C 91 % 999,5 hPa 0,0 l/m 24,1 km/h (4 Bft) S-SW 202 0 min 0,0 UV-I 0 W/m 2,3 C -6,5 C 37,0 km/h (5 Bft)
09.01.2023 06:57 3,6 C 2,8 C 91 % 999,4 hPa 0,0 l/m 19,3 km/h (3 Bft) S-SW 202 0 min 0,0 UV-I 0 W/m 2,3 C -4,7 C 29,0 km/h (5 Bft)
09.01.2023 06:58 3,6 C 2,8 C 91 % 999,5 hPa 0,0 l/m 19,3 km/h (3 Bft) S 180 0 min 0,0 UV-I 0 W/m 2,3 C -4,7 C 29,0 km/h (5 Bft)
09.01.2023 06:59 3,6 C 2,8 C 91 % 999,6 hPa 0,0 l/m 20,9 km/h (4 Bft) S 180 0 min 0,0 UV-I 0 W/m 2,3 C -5,3 C 35,4 km/h (5 Bft)
09.01.2023 07:00 3,6 C 2,8 C 91 % 999,5 hPa 0,0 l/m 24,1 km/h (4 Bft) S-SW 202 0 min 0,0 UV-I 0 W/m 2,3 C -6,5 C 37,0 km/h (5 Bft)
09.01.2023 07:01 3,6 C 2,8 C 91 % 999,6 hPa 0,0 l/m 24,1 km/h (4 Bft) S-SW 202 0 min 0,0 UV-I 0 W/m 2,3 C -6,5 C 30,6 km/h (5 Bft)
09.01.2023 07:02 3,6 C 2,8 C 91 % 999,5 hPa 0,0 l/m 19,3 km/h (3 Bft) S-SW 202 0 min 0,0 UV-I 0 W/m 2,3 C -4,7 C 30,6 km/h (5 Bft)
09.01.2023 07:03 3,6 C 2,8 C 91 % 999,4 hPa 0,0 l/m 20,9 km/h (4 Bft) S 180 0 min 0,0 UV-I 0 W/m 2,3 C -5,3 C 33,8 km/h (5 Bft)
09.01.2023 07:04 3,6 C 2,8 C 91 % 999,6 hPa 0,0 l/m 20,9 km/h (4 Bft) S 180 0 min 0,0 UV-I 0 W/m 2,3 C -5,3 C 32,2 km/h (5 Bft)
09.01.2023 07:05 3,6 C 2,8 C 91 % 999,6 hPa 0,0 l/m 20,9 km/h (4 Bft) S-SW 202 0 min 0,0 UV-I 0 W/m 2,3 C -5,3 C 30,6 km/h (5 Bft)
09.01.2023 07:06 3,6 C 2,8 C 91 % 999,6 hPa 0,0 l/m 22,5 km/h (4 Bft) S 180 0 min 0,0 UV-I 0 W/m 2,3 C -6,0 C 35,4 km/h (5 Bft)
09.01.2023 07:07 3,6 C 2,8 C 91 % 999,5 hPa 0,0 l/m 22,5 km/h (4 Bft) S-SW 202 0 min 0,0 UV-I 0 W/m 2,3 C -6,0 C 32,2 km/h (5 Bft)
09.01.2023 07:08 3,6 C 2,8 C 91 % 999,6 hPa 0,0 l/m 29,0 km/h (5 Bft) S 180 0 min 0,0 UV-I 0 W/m 2,3 C -8,1 C 41,8 km/h (6 Bft)
09.01.2023 07:09 3,6 C 2,8 C 91 % 999,6 hPa 0,0 l/m 24,1 km/h (4 Bft) S 180 0 min 0,0 UV-I 0 W/m 2,3 C -6,5 C 37,0 km/h (5 Bft)
09.01.2023 07:10 3,6 C 2,8 C 91 % 999,6 hPa 0,0 l/m 25,7 km/h (4 Bft) S 180 0 min 0,0 UV-I 0 W/m 2,3 C -7,1 C 40,2 km/h (6 Bft)
09.01.2023 07:11 3,6 C 2,8 C 91 % 999,6 hPa 0,0 l/m 30,6 km/h (5 Bft) S-SW 202 0 min 0,0 UV-I 0 W/m 2,3 C -8,5 C 35,4 km/h (5 Bft)
09.01.2023 07:12 3,6 C 2,8 C 91 % 999,6 hPa 0,0 l/m 20,9 km/h (4 Bft) S 180 0 min 0,0 UV-I 0 W/m 2,3 C -5,3 C 30,6 km/h (5 Bft)
09.01.2023 07:13 3,6 C 2,8 C 91 % 999,6 hPa 0,0 l/m 24,1 km/h (4 Bft) S 180 0 min 0,0 UV-I 0 W/m 2,3 C -6,5 C 33,8 km/h (5 Bft)
09.01.2023 07:14 3,6 C 2,8 C 91 % 999,6 hPa 0,0 l/m 20,9 km/h (4 Bft) S-SW 202 0 min 0,0 UV-I 0 W/m 2,3 C -5,3 C 29,0 km/h (5 Bft)
09.01.2023 07:15 3,7 C 2,8 C 91 % 999,7 hPa 0,0 l/m 20,9 km/h (4 Bft) S-SW 202 0 min 0,0 UV-I 0 W/m 2,4 C -5,2 C 27,4 km/h (4 Bft)
09.01.2023 07:16 3,6 C 2,8 C 91 % 999,6 hPa 0,0 l/m 19,3 km/h (3 Bft) S-SW 202 0 min 0,0 UV-I 0 W/m 2,3 C -4,7 C 25,7 km/h (4 Bft)
09.01.2023 07:17 3,6 C 2,8 C 91 % 999,6 hPa 0,0 l/m 16,1 km/h (3 Bft) S-SW 202 0 min 0,0 UV-I 0 W/m 2,3 C -3,2 C 20,9 km/h (4 Bft)
09.01.2023 07:18 3,6 C 2,8 C 91 % 999,8 hPa 0,0 l/m 19,3 km/h (3 Bft) S 180 0 min 0,0 UV-I 0 W/m 2,3 C -4,7 C 25,7 km/h (4 Bft)
09.01.2023 07:19 3,7 C 2,8 C 91 % 999,7 hPa 0,0 l/m 25,7 km/h (4 Bft) S-SW 202 0 min 0,0 UV-I 0 W/m 2,4 C -6,9 C 41,8 km/h (6 Bft)
09.01.2023 07:20 3,6 C 2,8 C 91 % 999,7 hPa 0,0 l/m 22,5 km/h (4 Bft) S 180 0 min 0,0 UV-I 0 W/m 2,3 C -6,0 C 30,6 km/h (5 Bft)
09.01.2023 07:21 3,7 C 2,8 C 91 % 999,7 hPa 0,0 l/m 24,1 km/h (4 Bft) S-SW 202 0 min 0,0 UV-I 0 W/m 2,4 C -6,4 C 33,8 km/h (5 Bft)
09.01.2023 07:22 3,7 C 2,8 C 91 % 999,8 hPa 0,0 l/m 25,7 km/h (4 Bft) S 180 0 min 0,0 UV-I 0 W/m 2,4 C -6,9 C 38,6 km/h (5 Bft)
09.01.2023 07:23 3,7 C 2,8 C 91 % 999,7 hPa 0,0 l/m 25,7 km/h (4 Bft) S 180 0 min 0,0 UV-I 0 W/m 2,4 C -6,9 C 33,8 km/h (5 Bft)
09.01.2023 07:24 3,7 C 2,8 C 91 % 999,7 hPa 0,2 l/m 24,1 km/h (4 Bft) S 180 0 min 0,0 UV-I 0 W/m 2,4 C -6,4 C 30,6 km/h (5 Bft)
09.01.2023 07:25 3,7 C 2,8 C 91 % 999,8 hPa 0,0 l/m 27,4 km/h (4 Bft) S-SW 202 0 min 0,0 UV-I 0 W/m 2,4 C -7,5 C 38,6 km/h (5 Bft)
09.01.2023 07:26 3,7 C 2,8 C 91 % 999,7 hPa 0,0 l/m 19,3 km/h (3 Bft) S-SW 202 0 min 0,0 UV-I 0 W/m 2,4 C -4,6 C 24,1 km/h (4 Bft)
09.01.2023 07:27 3,7 C 2,8 C 91 % 999,8 hPa 0,0 l/m 22,5 km/h (4 Bft) S-SW 202 0 min 0,0 UV-I 0 W/m 2,4 C -5,8 C 29,0 km/h (5 Bft)
09.01.2023 07:28 3,6 C 2,8 C 91 % 999,8 hPa 0,0 l/m 24,1 km/h (4 Bft) S-SW 202 0 min 0,0 UV-I 0 W/m 2,3 C -6,5 C 29,0 km/h (5 Bft)
09.01.2023 07:29 3,7 C 2,8 C 91 % 999,7 hPa 0,0 l/m 25,7 km/h (4 Bft) S-SW 202 0 min 0,0 UV-I 0 W/m 2,4 C -6,9 C 43,5 km/h (6 Bft)
09.01.2023 07:30 3,7 C 2,8 C 91 % 999,8 hPa 0,0 l/m 24,1 km/h (4 Bft) S 180 0 min 0,0 UV-I 0 W/m 2,4 C -6,4 C 30,6 km/h (5 Bft)
09.01.2023 07:31 3,7 C 2,8 C 91 % 999,7 hPa 0,0 l/m 19,3 km/h (3 Bft) S 180 0 min 0,0 UV-I 0 W/m 2,4 C -4,6 C 43,5 km/h (6 Bft)
09.01.2023 07:32 3,7 C 2,8 C 91 % 999,7 hPa 0,0 l/m 25,7 km/h (4 Bft) S-SW 202 0 min 0,0 UV-I 0 W/m 2,4 C -6,9 C 35,4 km/h (5 Bft)
09.01.2023 07:33 3,7 C 2,8 C 91 % 999,7 hPa 0,0 l/m 24,1 km/h (4 Bft) S-SW 202 0 min 0,0 UV-I 0 W/m 2,4 C -6,4 C 37,0 km/h (5 Bft)
09.01.2023 07:34 3,7 C 2,8 C 91 % 999,8 hPa 0,0 l/m 19,3 km/h (3 Bft) S 180 0 min 0,0 UV-I 0 W/m 2,4 C -4,6 C 38,6 km/h (5 Bft)
09.01.2023 07:35 3,7 C 2,8 C 91 % 999,7 hPa 0,0 l/m 22,5 km/h (4 Bft) S-SW 202 0 min 0,0 UV-I 0 W/m 2,4 C -5,8 C 32,2 km/h (5 Bft)
09.01.2023 07:36 3,7 C 2,8 C 91 % 999,8 hPa 0,0 l/m 20,9 km/h (4 Bft) S-SW 202 0 min 0,0 UV-I 0 W/m 2,4 C -5,2 C 29,0 km/h (5 Bft)
09.01.2023 07:37 3,7 C 2,8 C 91 % 999,8 hPa 0,0 l/m 22,5 km/h (4 Bft) S-SW 202 0 min 0,0 UV-I 0 W/m 2,4 C -5,8 C 33,8 km/h (5 Bft)
09.01.2023 07:38 3,7 C 2,8 C 91 % 999,8 hPa 0,0 l/m 20,9 km/h (4 Bft) S 180 0 min 0,0 UV-I 0 W/m 2,4 C -5,2 C 41,8 km/h (6 Bft)
09.01.2023 07:39 3,7 C 2,8 C 91 % 999,9 hPa 0,0 l/m 19,3 km/h (3 Bft) S-SW 202 0 min 0,0 UV-I 0 W/m 2,4 C -4,6 C 33,8 km/h (5 Bft)
09.01.2023 07:40 3,7 C 2,8 C 91 % 999,7 hPa 0,0 l/m 20,9 km/h (4 Bft) S 180 0 min 0,0 UV-I 0 W/m 2,4 C -5,2 C 25,7 km/h (4 Bft)
09.01.2023 07:41 3,7 C 2,8 C 91 % 999,9 hPa 0,0 l/m 19,3 km/h (3 Bft) S-SW 202 0 min 0,0 UV-I 0 W/m 2,4 C -4,6 C 24,1 km/h (4 Bft)
09.01.2023 07:45 3,7 C 2,8 C 91 % 999,8 hPa 0,0 l/m 21,6 km/h (4 Bft) S 173 0 min 0,0 UV-I 0 W/m 2,4 C -5,5 C 30,6 km/h (5 Bft)
09.01.2023 07:48 3,7 C 2,8 C 91 % 999,8 hPa 0,0 l/m 19,4 km/h (3 Bft) S-SO 165 0 min 0,0 UV-I 0 W/m 2,4 C -4,6 C 30,6 km/h (5 Bft)
09.01.2023 07:51 3,7 C 2,8 C 91 % 999,8 hPa 0,0 l/m 21,3 km/h (4 Bft) S-SW 203 0 min 0,0 UV-I 0 W/m 2,4 C -5,4 C 35,4 km/h (5 Bft)
09.01.2023 07:54 3,7 C 2,8 C 91 % 999,8 hPa 0,0 l/m 21,1 km/h (4 Bft) S 191 0 min 0,0 UV-I 0 W/m 2,4 C -5,3 C 38,6 km/h (5 Bft)
09.01.2023 07:57 3,7 C 2,8 C 91 % 999,8 hPa 0,0 l/m 19,7 km/h (3 Bft) S-SW 196 0 min 0,0 UV-I 0 W/m 2,4 C -4,7 C 35,4 km/h (5 Bft)
09.01.2023 08:00 3,7 C 2,8 C 91 % 999,8 hPa 0,0 l/m 20,0 km/h (4 Bft) S 185 0 min 0,0 UV-I 0 W/m 2,4 C -4,9 C 35,4 km/h (5 Bft)
09.01.2023 08:03 3,7 C 2,8 C 91 % 999,9 hPa 0,0 l/m 18,3 km/h (3 Bft) S 176 0 min 0,0 UV-I 0 W/m 2,4 C -4,1 C 27,4 km/h (4 Bft)
09.01.2023 08:06 3,7 C 2,8 C 91 % 999,9 hPa 0,0 l/m 18,5 km/h (3 Bft) S 190 0 min 0,0 UV-I 0 W/m 2,4 C -4,2 C 29,0 km/h (5 Bft)
09.01.2023 08:09 3,7 C 2,8 C 91 % 1000,1 hPa 0,0 l/m 17,3 km/h (3 Bft) S 175 0 min 0,0 UV-I 0 W/m 2,4 C -3,7 C 24,1 km/h (4 Bft)
09.01.2023 08:12 3,7 C 2,8 C 91 % 1000,0 hPa 0,2 l/m 15,9 km/h (3 Bft) S 190 0 min 0,0 UV-I 0 W/m 2,4 C -3,0 C 30,6 km/h (5 Bft)
09.01.2023 08:15 3,7 C 2,8 C 91 % 1000,0 hPa 0,0 l/m 20,8 km/h (4 Bft) S-SW 209 0 min 0,0 UV-I 0 W/m 2,4 C -5,2 C 32,2 km/h (5 Bft)
09.01.2023 08:18 3,7 C 2,8 C 91 % 1000,0 hPa 0,0 l/m 20,5 km/h (4 Bft) S-SW 196 0 min 0,0 UV-I 0 W/m 2,4 C -5,1 C 33,8 km/h (5 Bft)
09.01.2023 08:21 3,7 C 2,8 C 91 % 1000,0 hPa 0,0 l/m 20,3 km/h (4 Bft) S-SW 211 0 min 0,0 UV-I 0 W/m 2,4 C -5,0 C 30,6 km/h (5 Bft)
09.01.2023 08:24 3,7 C 2,8 C 91 % 1000,0 hPa 0,0 l/m 25,2 km/h (4 Bft) S 176 0 min 0,0 UV-I 0 W/m 2,4 C -6,8 C 35,4 km/h (5 Bft)
09.01.2023 08:27 3,7 C 2,8 C 91 % 1000,1 hPa 0,0 l/m 19,2 km/h (3 Bft) S 179 0 min 0,0 UV-I 0 W/m 2,4 C -4,5 C 32,2 km/h (5 Bft)
09.01.2023 08:30 3,7 C 2,8 C 91 % 1000,1 hPa 0,0 l/m 24,6 km/h (4 Bft) SW 217 0 min 0,0 UV-I 0 W/m 2,4 C -6,6 C 37,0 km/h (5 Bft)
09.01.2023 08:33 3,7 C 2,8 C 91 % 1000,1 hPa 0,2 l/m 25,5 km/h (4 Bft) S 184 0 min 0,0 UV-I 0 W/m 2,4 C -6,9 C 46,7 km/h (6 Bft)
09.01.2023 08:36 3,7 C 2,8 C 91 % 1000,1 hPa 0,0 l/m 18,7 km/h (3 Bft) S 184 0 min 0,0 UV-I 0 W/m 2,4 C -4,3 C 32,2 km/h (5 Bft)
09.01.2023 08:39 3,8 C 3,3 C 91 % 1000,1 hPa 0,0 l/m 17,8 km/h (3 Bft) S-SW 209 0 min 0,0 UV-I 0 W/m 2,5 C -3,8 C 22,5 km/h (4 Bft)
09.01.2023 08:42 3,7 C 2,8 C 91 % 1000,1 hPa 0,0 l/m 21,9 km/h (4 Bft) S-SW 213 0 min 0,0 UV-I 0 W/m 2,4 C -5,6 C 37,0 km/h (5 Bft)
09.01.2023 08:45 3,7 C 3,3 C 91 % 1000,1 hPa 0,0 l/m 18,8 km/h (3 Bft) S 176 0 min 0,0 UV-I 0 W/m 2,4 C -4,3 C 29,0 km/h (5 Bft)
09.01.2023 08:48 3,7 C 3,3 C 91 % 1000,2 hPa 0,0 l/m 18,6 km/h (3 Bft) S 190 0 min 0,0 UV-I 1 W/m 2,4 C -4,3 C 29,0 km/h (5 Bft)
09.01.2023 08:51 3,8 C 3,3 C 91 % 1000,3 hPa 0,0 l/m 19,1 km/h (3 Bft) S 185 0 min 0,0 UV-I 5 W/m 2,5 C -4,3 C 35,4 km/h (5 Bft)
09.01.2023 08:54 3,8 C 3,3 C 91 % 1000,3 hPa 0,0 l/m 18,4 km/h (3 Bft) SW 226 0 min 0,0 UV-I 8 W/m 2,5 C -4,0 C 30,6 km/h (5 Bft)
09.01.2023 08:57 3,8 C 3,3 C 91 % 1000,4 hPa 0,0 l/m 24,1 km/h (4 Bft) S 181 0 min 0,0 UV-I 7 W/m 2,5 C -6,3 C 35,4 km/h (5 Bft)
09.01.2023 09:00 3,8 C 3,3 C 91 % 1000,5 hPa 0,2 l/m 22,3 km/h (4 Bft) S 190 0 min 0,0 UV-I 9 W/m 2,5 C -5,6 C 37,0 km/h (5 Bft)
09.01.2023 09:03 3,8 C 3,3 C 91 % 1000,4 hPa 0,0 l/m 24,9 km/h (4 Bft) S 183 0 min 0,0 UV-I 9 W/m 2,5 C -6,5 C 38,6 km/h (5 Bft)
09.01.2023 09:06 3,8 C 3,3 C 91 % 1000,5 hPa 0,0 l/m 21,6 km/h (4 Bft) S 177 0 min 0,0 UV-I 7 W/m 2,5 C -5,4 C 38,6 km/h (5 Bft)
09.01.2023 09:09 3,8 C 3,3 C 91 % 1000,5 hPa 0,0 l/m 23,1 km/h (4 Bft) S-SW 196 0 min 0,0 UV-I 8 W/m 2,5 C -5,9 C 38,6 km/h (5 Bft)
09.01.2023 09:12 3,8 C 3,3 C 91 % 1000,5 hPa 0,0 l/m 20,3 km/h (4 Bft) S 182 0 min 0,0 UV-I 8 W/m 2,5 C -4,8 C 30,6 km/h (5 Bft)
09.01.2023 09:15 3,8 C 3,3 C 91 % 1000,6 hPa 0,0 l/m 19,6 km/h (3 Bft) S-SO 167 0 min 0,0 UV-I 6 W/m 2,5 C -4,6 C 33,8 km/h (5 Bft)
09.01.2023 09:18 3,8 C 3,3 C 91 % 1000,6 hPa 0,0 l/m 18,7 km/h (3 Bft) S 171 0 min 0,0 UV-I 9 W/m 2,5 C -4,2 C 33,8 km/h (5 Bft)
09.01.2023 09:21 3,8 C 3,3 C 91 % 1000,5 hPa 0,0 l/m 21,4 km/h (4 Bft) S 188 0 min 0,0 UV-I 9 W/m 2,5 C -5,3 C 32,2 km/h (5 Bft)
09.01.2023 09:24 3,9 C 3,3 C 91 % 1000,6 hPa 0,0 l/m 18,7 km/h (3 Bft) S-SW 192 0 min 0,0 UV-I 8 W/m 2,6 C -4,0 C 33,8 km/h (5 Bft)
09.01.2023 09:27 3,9 C 3,3 C 91 % 1000,5 hPa 0,0 l/m 18,4 km/h (3 Bft) S 175 0 min 0,0 UV-I 10 W/m 2,6 C -3,9 C 37,0 km/h (5 Bft)
09.01.2023 09:30 3,9 C 3,3 C 91 % 1000,6 hPa 0,0 l/m 23,2 km/h (4 Bft) S 189 0 min 0,0 UV-I 11 W/m 2,6 C -5,8 C 43,5 km/h (6 Bft)
09.01.2023 09:33 3,9 C 3,3 C 91 % 1000,6 hPa 0,2 l/m 21,1 km/h (4 Bft) SO 142 0 min 0,0 UV-I 11 W/m 2,6 C -5,0 C 32,2 km/h (5 Bft)
09.01.2023 09:36 3,9 C 3,3 C 91 % 1000,6 hPa 0,0 l/m 22,3 km/h (4 Bft) S-SO 168 0 min 0,0 UV-I 20 W/m 2,6 C -5,5 C 35,4 km/h (5 Bft)
09.01.2023 09:39 3,9 C 3,3 C 91 % 1000,7 hPa 0,0 l/m 21,8 km/h (4 Bft) S 188 0 min 0,0 UV-I 33 W/m 2,6 C -5,3 C 43,5 km/h (6 Bft)
09.01.2023 09:42 3,9 C 3,3 C 91 % 1000,8 hPa 0,0 l/m 22,2 km/h (4 Bft) SW 214 0 min 0,0 UV-I 30 W/m 2,6 C -5,5 C 35,4 km/h (5 Bft)
09.01.2023 09:45 4,0 C 3,3 C 91 % 1000,7 hPa 0,0 l/m 24,2 km/h (4 Bft) S-SW 200 0 min 0,0 UV-I 39 W/m 2,7 C -6,0 C 41,8 km/h (6 Bft)
09.01.2023 09:48 4,0 C 3,3 C 91 % 1000,8 hPa 0,0 l/m 25,1 km/h (4 Bft) S 187 0 min 0,0 UV-I 34 W/m 2,7 C -6,3 C 38,6 km/h (5 Bft)
09.01.2023 09:51 4,0 C 3,3 C 91 % 1000,8 hPa 0,0 l/m 24,0 km/h (4 Bft) S 173 0 min 0,0 UV-I 41 W/m 2,7 C -6,0 C 38,6 km/h (5 Bft)
09.01.2023 09:54 4,0 C 3,3 C 91 % 1000,8 hPa 0,2 l/m 29,5 km/h (5 Bft) S 182 0 min 0,0 UV-I 39 W/m 2,7 C -7,6 C 49,9 km/h (6 Bft)
09.01.2023 09:57 4,1 C 3,3 C 91 % 1000,9 hPa 0,0 l/m 23,6 km/h (4 Bft) S-SW 204 0 min 0,0 UV-I 37 W/m 2,8 C -5,7 C 38,6 km/h (5 Bft)
09.01.2023 10:00 4,1 C 3,3 C 91 % 1000,9 hPa 0,0 l/m 26,3 km/h (4 Bft) S-SW 198 0 min 0,0 UV-I 28 W/m 2,8 C -6,6 C 41,8 km/h (6 Bft)
09.01.2023 10:03 4,1 C 3,3 C 91 % 1000,9 hPa 0,0 l/m 24,2 km/h (4 Bft) SW 217 0 min 0,0 UV-I 33 W/m 2,8 C -5,9 C 38,6 km/h (5 Bft)
09.01.2023 10:06 4,1 C 3,3 C 91 % 1000,9 hPa 0,0 l/m 21,5 km/h (4 Bft) S-SW 194 0 min 0,0 UV-I 46 W/m 2,8 C -4,9 C 35,4 km/h (5 Bft)
09.01.2023 10:09 4,1 C 3,3 C 91 % 1001,0 hPa 0,0 l/m 24,4 km/h (4 Bft) S-SO 165 0 min 0,0 UV-I 57 W/m 2,8 C -6,0 C 33,8 km/h (5 Bft)
09.01.2023 10:12 4,1 C 3,3 C 91 % 1001,0 hPa 0,0 l/m 22,6 km/h (4 Bft) S-SW 196 0 min 0,0 UV-I 46 W/m 2,8 C -5,3 C 37,0 km/h (5 Bft)
09.01.2023 10:15 4,1 C 3,3 C 91 % 1001,0 hPa 0,2 l/m 23,2 km/h (4 Bft) S-SW 207 0 min 0,0 UV-I 37 W/m 2,8 C -5,6 C 37,0 km/h (5 Bft)
09.01.2023 10:18 4,1 C 3,3 C 91 % 1001,0 hPa 0,0 l/m 24,4 km/h (4 Bft) S-SW 194 0 min 0,0 UV-I 29 W/m 2,8 C -6,0 C 37,0 km/h (5 Bft)
09.01.2023 10:21 4,0 C 3,3 C 91 % 1000,9 hPa 0,0 l/m 23,3 km/h (4 Bft) S-SW 209 0 min 0,0 UV-I 22 W/m 2,7 C -5,7 C 40,2 km/h (6 Bft)
09.01.2023 10:24 4,0 C 3,3 C 91 % 1001,1 hPa 0,2 l/m 20,0 km/h (4 Bft) S-SW 205 0 min 0,0 UV-I 22 W/m 2,7 C -4,5 C 32,2 km/h (5 Bft)
09.01.2023 10:27 3,9 C 3,3 C 91 % 1001,0 hPa 0,0 l/m 19,5 km/h (3 Bft) SW 236 0 min 0,0 UV-I 30 W/m 2,6 C -4,4 C 27,4 km/h (4 Bft)
09.01.2023 10:30 3,9 C 3,3 C 91 % 1001,0 hPa 0,0 l/m 20,7 km/h (4 Bft) S-SW 200 0 min 0,0 UV-I 24 W/m 2,6 C -4,9 C 35,4 km/h (5 Bft)
09.01.2023 10:33 4,0 C 3,3 C 91 % 1001,0 hPa 0,2 l/m 21,6 km/h (4 Bft) S 171 0 min 0,0 UV-I 29 W/m 2,7 C -5,1 C 33,8 km/h (5 Bft)
09.01.2023 10:36 4,0 C 3,3 C 91 % 1001,1 hPa 0,0 l/m 21,1 km/h (4 Bft) S 190 0 min 0,0 UV-I 33 W/m 2,7 C -4,9 C 29,0 km/h (5 Bft)
09.01.2023 10:39 4,0 C 3,3 C 91 % 1001,0 hPa 0,0 l/m 19,6 km/h (3 Bft) S 188 0 min 0,0 UV-I 44 W/m 2,7 C -4,3 C 38,6 km/h (5 Bft)
09.01.2023 10:42 4,0 C 3,3 C 91 % 1001,0 hPa 0,0 l/m 26,7 km/h (4 Bft) S-SW 200 0 min 0,0 UV-I 42 W/m 2,7 C -6,8 C 40,2 km/h (6 Bft)
09.01.2023 10:45 4,0 C 3,3 C 91 % 1001,1 hPa 0,0 l/m 26,4 km/h (4 Bft) SW 229 0 min 0,0 UV-I 45 W/m 2,7 C -6,7 C 38,6 km/h (5 Bft)
09.01.2023 10:48 4,0 C 3,3 C 91 % 1001,1 hPa 0,0 l/m 21,9 km/h (4 Bft) S 178 0 min 0,0 UV-I 42 W/m 2,7 C -5,2 C 37,0 km/h (5 Bft)
09.01.2023 10:51 4,1 C 3,3 C 91 % 1001,2 hPa 0,0 l/m 19,9 km/h (4 Bft) SW 223 0 min 0,0 UV-I 40 W/m 2,8 C -4,3 C 38,6 km/h (5 Bft)
09.01.2023 10:54 4,1 C 3,3 C 91 % 1001,2 hPa 0,0 l/m 20,7 km/h (4 Bft) S-SW 205 0 min 0,0 UV-I 42 W/m 2,8 C -4,6 C 32,2 km/h (5 Bft)
09.01.2023 10:57 4,1 C 3,9 C 91 % 1001,1 hPa 0,2 l/m 20,4 km/h (4 Bft) S-SW 199 0 min 0,0 UV-I 46 W/m 2,8 C -4,5 C 32,2 km/h (5 Bft)
09.01.2023 11:00 4,1 C 3,9 C 91 % 1001,3 hPa 0,0 l/m 24,6 km/h (4 Bft) S-SO 167 0 min 0,0 UV-I 60 W/m 2,8 C -6,0 C 35,4 km/h (5 Bft)
09.01.2023 11:03 4,1 C 3,9 C 91 % 1001,2 hPa 0,0 l/m 21,9 km/h (4 Bft) S-SO 167 0 min 0,0 UV-I 56 W/m 2,8 C -5,1 C 33,8 km/h (5 Bft)
09.01.2023 11:06 4,1 C 3,9 C 91 % 1001,2 hPa 0,0 l/m 22,9 km/h (4 Bft) S-SO 165 0 min 0,0 UV-I 93 W/m 2,8 C -5,4 C 35,4 km/h (5 Bft)
09.01.2023 11:09 4,2 C 3,9 C 91 % 1001,3 hPa 0,0 l/m 23,8 km/h (4 Bft) S 190 0 min 0,0 UV-I 80 W/m 2,9 C -5,6 C 37,0 km/h (5 Bft)
09.01.2023 11:12 4,2 C 3,9 C 91 % 1001,4 hPa 0,0 l/m 22,5 km/h (4 Bft) S-SW 210 0 min 0,0 UV-I 66 W/m 2,9 C -5,2 C 40,2 km/h (6 Bft)
09.01.2023 11:15 4,2 C 3,9 C 91 % 1001,3 hPa 0,0 l/m 24,5 km/h (4 Bft) S-SO 167 0 min 0,0 UV-I 77 W/m 2,9 C -5,9 C 35,4 km/h (5 Bft)
09.01.2023 11:18 4,2 C 3,9 C 91 % 1001,4 hPa 0,0 l/m 23,6 km/h (4 Bft) S-SW 205 0 min 0,0 UV-I 66 W/m 2,9 C -5,6 C 33,8 km/h (5 Bft)
09.01.2023 11:21 4,2 C 3,9 C 91 % 1001,4 hPa 0,0 l/m 21,7 km/h (4 Bft) S-SW 197 0 min 0,0 UV-I 50 W/m 2,9 C -4,9 C 29,0 km/h (5 Bft)
09.01.2023 11:24 4,2 C 3,9 C 91 % 1001,4 hPa 0,2 l/m 22,5 km/h (4 Bft) S 178 0 min 0,0 UV-I 33 W/m 2,9 C -5,2 C 33,8 km/h (5 Bft)
09.01.2023 11:27 4,2 C 3,3 C 91 % 1001,4 hPa 0,0 l/m 20,3 km/h (4 Bft) S-SW 198 0 min 0,0 UV-I 35 W/m 2,9 C -4,3 C 33,8 km/h (5 Bft)
09.01.2023 11:30 4,2 C 3,9 C 91 % 1001,3 hPa 0,0 l/m 21,9 km/h (4 Bft) S-SW 203 0 min 0,0 UV-I 46 W/m 2,9 C -4,9 C 33,8 km/h (5 Bft)
09.01.2023 11:33 4,1 C 3,9 C 91 % 1001,3 hPa 0,0 l/m 22,7 km/h (4 Bft) S-SW 205 0 min 0,0 UV-I 60 W/m 2,8 C -5,4 C 38,6 km/h (5 Bft)
09.01.2023 11:36 4,2 C 3,9 C 91 % 1001,3 hPa 0,0 l/m 23,8 km/h (4 Bft) S 187 0 min 0,0 UV-I 72 W/m 2,9 C -5,6 C 37,0 km/h (5 Bft)
09.01.2023 11:39 4,2 C 3,9 C 91 % 1001,3 hPa 0,0 l/m 20,6 km/h (4 Bft) S-SO 168 0 min 0,0 UV-I 65 W/m 2,9 C -4,4 C 33,8 km/h (5 Bft)
09.01.2023 11:42 4,2 C 3,9 C 91 % 1001,3 hPa 0,0 l/m 18,4 km/h (3 Bft) S-SW 195 0 min 0,0 UV-I 64 W/m 2,9 C -3,5 C 25,7 km/h (4 Bft)
09.01.2023 11:45 4,3 C 3,9 C 91 % 1001,3 hPa 0,0 l/m 19,7 km/h (3 Bft) S 177 0 min 0,0 UV-I 59 W/m 3,0 C -4,0 C 30,6 km/h (5 Bft)
09.01.2023 11:48 4,2 C 3,9 C 91 % 1001,3 hPa 0,0 l/m 22,6 km/h (4 Bft) S 178 0 min 0,0 UV-I 54 W/m 2,9 C -5,2 C 32,2 km/h (5 Bft)
09.01.2023 11:51 4,3 C 3,9 C 91 % 1001,3 hPa 0,0 l/m 15,5 km/h (3 Bft) S-SO 168 0 min 0,0 UV-I 47 W/m 3,0 C -2,0 C 24,1 km/h (4 Bft)
09.01.2023 11:54 4,3 C 3,9 C 91 % 1001,3 hPa 0,0 l/m 20,0 km/h (4 Bft) SW 216 0 min 0,0 UV-I 55 W/m 3,0 C -4,1 C 32,2 km/h (5 Bft)
09.01.2023 11:57 4,3 C 3,9 C 91 % 1001,3 hPa 0,0 l/m 17,3 km/h (3 Bft) S-SW 204 0 min 0,0 UV-I 53 W/m 3,0 C -2,9 C 27,4 km/h (4 Bft)
09.01.2023 12:00 4,3 C 3,9 C 91 % 1001,3 hPa 0,0 l/m 15,2 km/h (3 Bft) SW 217 0 min 0,0 UV-I 39 W/m 3,0 C -1,9 C 22,5 km/h (4 Bft)
09.01.2023 12:03 4,3 C 3,9 C 91 % 1001,5 hPa 0,0 l/m 20,9 km/h (4 Bft) SW 222 0 min 0,0 UV-I 41 W/m 3,0 C -4,4 C 37,0 km/h (5 Bft)
09.01.2023 12:06 4,2 C 3,9 C 91 % 1001,5 hPa 0,0 l/m 21,5 km/h (4 Bft) S-SW 203 0 min 0,0 UV-I 54 W/m 2,9 C -4,8 C 33,8 km/h (5 Bft)
09.01.2023 12:09 4,2 C 3,9 C 91 % 1001,4 hPa 0,0 l/m 24,3 km/h (4 Bft) S 177 0 min 0,0 UV-I 50 W/m 2,9 C -5,8 C 32,2 km/h (5 Bft)
09.01.2023 12:12 4,2 C 3,3 C 91 % 1001,5 hPa 0,2 l/m 24,4 km/h (4 Bft) S-SW 193 0 min 0,0 UV-I 53 W/m 2,9 C -5,8 C 40,2 km/h (6 Bft)
09.01.2023 12:15 4,1 C 3,3 C 91 % 1001,5 hPa 0,0 l/m 22,5 km/h (4 Bft) S-SW 198 0 min 0,0 UV-I 39 W/m 2,8 C -5,3 C 38,6 km/h (5 Bft)
09.01.2023 12:18 4,1 C 3,3 C 90 % 1001,6 hPa 0,0 l/m 21,3 km/h (4 Bft) S 186 0 min 0,0 UV-I 35 W/m 2,6 C -4,9 C 32,2 km/h (5 Bft)
09.01.2023 12:21 4,0 C 3,3 C 90 % 1001,6 hPa 0,0 l/m 19,1 km/h (3 Bft) S 183 0 min 0,0 UV-I 39 W/m 2,5 C -4,1 C 35,4 km/h (5 Bft)
09.01.2023 12:24 3,9 C 3,3 C 90 % 1001,7 hPa 0,0 l/m 16,9 km/h (3 Bft) S 179 0 min 0,0 UV-I 39 W/m 2,4 C -3,2 C 25,7 km/h (4 Bft)
09.01.2023 12:27 3,9 C 3,3 C 90 % 1001,7 hPa 0,0 l/m 17,4 km/h (3 Bft) W-SW 242 0 min 0,0 UV-I 46 W/m 2,4 C -3,5 C 29,0 km/h (5 Bft)
09.01.2023 12:30 3,9 C 3,3 C 90 % 1001,8 hPa 0,0 l/m 17,5 km/h (3 Bft) S-SW 195 0 min 0,0 UV-I 54 W/m 2,4 C -3,5 C 29,0 km/h (5 Bft)
09.01.2023 12:33 3,8 C 3,3 C 90 % 1001,8 hPa 0,0 l/m 19,2 km/h (3 Bft) S-SW 209 0 min 0,0 UV-I 43 W/m 2,3 C -4,4 C 30,6 km/h (5 Bft)
09.01.2023 12:36 3,8 C 3,3 C 90 % 1001,9 hPa 0,0 l/m 15,2 km/h (3 Bft) SW 231 0 min 0,0 UV-I 52 W/m 2,3 C -2,5 C 29,0 km/h (5 Bft)
09.01.2023 12:39 3,8 C 3,3 C 90 % 1001,9 hPa 0,2 l/m 22,8 km/h (4 Bft) S-SW 196 0 min 0,0 UV-I 65 W/m 2,3 C -5,8 C 33,8 km/h (5 Bft)
09.01.2023 12:42 3,8 C 3,3 C 90 % 1002,0 hPa 0,0 l/m 18,9 km/h (3 Bft) S 184 0 min 0,5 UV-I 100 W/m 2,3 C -4,3 C 32,2 km/h (5 Bft)
09.01.2023 12:45 3,8 C 3,9 C 91 % 1002,0 hPa 0,0 l/m 17,6 km/h (3 Bft) SW 222 0 min 0,5 UV-I 94 W/m 2,5 C -3,7 C 27,4 km/h (4 Bft)
09.01.2023 12:48 3,8 C 3,3 C 91 % 1002,1 hPa 0,0 l/m 17,7 km/h (3 Bft) S 189 0 min 0,0 UV-I 67 W/m 2,5 C -3,7 C 27,4 km/h (4 Bft)
09.01.2023 12:51 3,8 C 3,9 C 91 % 1002,0 hPa 0,0 l/m 14,2 km/h (3 Bft) S-SW 203 0 min 0,3 UV-I 90 W/m 2,5 C -1,9 C 25,7 km/h (4 Bft)
09.01.2023 12:54 3,9 C 3,9 C 91 % 1002,1 hPa 0,0 l/m 17,7 km/h (3 Bft) S-SW 213 0 min 0,3 UV-I 105 W/m 2,6 C -3,6 C 25,7 km/h (4 Bft)
09.01.2023 12:57 3,9 C 3,9 C 91 % 1002,1 hPa 0,0 l/m 18,9 km/h (3 Bft) S-SW 200 0 min 0,0 UV-I 74 W/m 2,6 C -4,1 C 30,6 km/h (5 Bft)
09.01.2023 13:00 4,0 C 3,9 C 91 % 1002,0 hPa 0,0 l/m 15,8 km/h (3 Bft) S-SW 200 0 min 0,0 UV-I 76 W/m 2,7 C -2,5 C 25,7 km/h (4 Bft)
09.01.2023 13:03 4,0 C 3,9 C 91 % 1002,1 hPa 0,0 l/m 18,9 km/h (3 Bft) SW 214 0 min 0,0 UV-I 75 W/m 2,7 C -4,0 C 29,0 km/h (5 Bft)
09.01.2023 13:06 4,1 C 3,9 C 91 % 1002,1 hPa 0,0 l/m 16,8 km/h (3 Bft) S-SW 202 0 min 0,0 UV-I 92 W/m 2,8 C -2,9 C 27,4 km/h (4 Bft)
09.01.2023 13:09 4,1 C 3,9 C 91 % 1002,2 hPa 0,0 l/m 17,1 km/h (3 Bft) S-SW 195 0 min 0,0 UV-I 107 W/m 2,8 C -3,1 C 27,4 km/h (4 Bft)
09.01.2023 13:12 4,1 C 3,9 C 91 % 1002,2 hPa 0,0 l/m 16,0 km/h (3 Bft) S-SW 202 0 min 0,0 UV-I 59 W/m 2,8 C -2,5 C 22,5 km/h (4 Bft)
09.01.2023 13:15 4,1 C 3,9 C 91 % 1002,2 hPa 0,0 l/m 15,9 km/h (3 Bft) SW 223 0 min 0,0 UV-I 45 W/m 2,8 C -2,5 C 22,5 km/h (4 Bft)
09.01.2023 13:18 4,1 C 3,9 C 91 % 1002,3 hPa 0,0 l/m 17,6 km/h (3 Bft) SW 221 0 min 0,0 UV-I 51 W/m 2,8 C -3,3 C 25,7 km/h (4 Bft)
09.01.2023 13:21 4,1 C 3,3 C 91 % 1002,3 hPa 0,0 l/m 13,6 km/h (3 Bft) S-SW 210 0 min 0,0 UV-I 54 W/m 2,8 C -1,2 C 20,9 km/h (4 Bft)
09.01.2023 13:24 4,1 C 3,3 C 91 % 1002,3 hPa 0,2 l/m 12,8 km/h (3 Bft) SW 217 0 min 0,0 UV-I 37 W/m 2,8 C -0,8 C 17,7 km/h (3 Bft)
09.01.2023 13:27 4,1 C 3,3 C 91 % 1002,4 hPa 0,0 l/m 10,4 km/h (2 Bft) SW 225 0 min 0,0 UV-I 37 W/m 2,8 C 0,8 C 17,7 km/h (3 Bft)
09.01.2023 13:30 4,1 C 3,3 C 91 % 1002,4 hPa 0,2 l/m 7,7 km/h (2 Bft) SW 216 0 min 0,0 UV-I 39 W/m 2,8 C 2,9 C 16,1 km/h (3 Bft)
09.01.2023 13:33 4,1 C 3,3 C 91 % 1002,5 hPa 0,2 l/m 10,2 km/h (2 Bft) SW 222 0 min 0,0 UV-I 38 W/m 2,8 C 0,9 C 17,7 km/h (3 Bft)
09.01.2023 13:36 4,1 C 3,3 C 91 % 1002,6 hPa 0,0 l/m 8,1 km/h (2 Bft) W-SW 255 0 min 0,0 UV-I 30 W/m 2,8 C 2,6 C 19,3 km/h (3 Bft)
09.01.2023 13:39 3,9 C 3,3 C 90 % 1002,6 hPa 0,2 l/m 16,7 km/h (3 Bft) W-SW 242 0 min 0,0 UV-I 26 W/m 2,4 C -3,1 C 30,6 km/h (5 Bft)
09.01.2023 13:42 3,8 C 2,8 C 90 % 1002,7 hPa 0,2 l/m 14,1 km/h (3 Bft) W-SW 241 0 min 0,0 UV-I 27 W/m 2,3 C -1,9 C 24,1 km/h (4 Bft)
09.01.2023 13:45 3,7 C 2,8 C 90 % 1002,8 hPa 0,0 l/m 14,3 km/h (3 Bft) SW 222 0 min 0,0 UV-I 23 W/m 2,2 C -2,1 C 30,6 km/h (5 Bft)
09.01.2023 13:48 3,6 C 2,8 C 90 % 1002,8 hPa 0,2 l/m 14,1 km/h (3 Bft) SW 231 0 min 0,0 UV-I 29 W/m 2,1 C -2,1 C 24,1 km/h (4 Bft)
09.01.2023 13:51 3,4 C 2,8 C 90 % 1002,8 hPa 0,0 l/m 12,5 km/h (3 Bft) S 175 0 min 0,0 UV-I 37 W/m 1,9 C -1,4 C 20,9 km/h (4 Bft)
09.01.2023 13:54 3,3 C 2,8 C 90 % 1002,7 hPa 0,2 l/m 15,0 km/h (3 Bft) SW 221 0 min 0,0 UV-I 31 W/m 1,8 C -3,0 C 25,7 km/h (4 Bft)
09.01.2023 13:57 3,3 C 2,8 C 90 % 1002,8 hPa 0,0 l/m 13,4 km/h (3 Bft) S-SW 193 0 min 0,0 UV-I 29 W/m 1,8 C -2,1 C 24,1 km/h (4 Bft)
09.01.2023 14:00 3,3 C 2,8 C 90 % 1002,7 hPa 0,0 l/m 11,2 km/h (2 Bft) S-SW 198 0 min 0,0 UV-I 41 W/m 1,8 C -0,7 C 17,7 km/h (3 Bft)
09.01.2023 14:03 3,3 C 2,8 C 90 % 1002,8 hPa 0,2 l/m 10,1 km/h (2 Bft) S-SW 202 0 min 0,0 UV-I 55 W/m 1,8 C 0,1 C 16,1 km/h (3 Bft)
09.01.2023 14:06 3,3 C 2,8 C 90 % 1002,8 hPa 0,0 l/m 12,0 km/h (2 Bft) S 191 0 min 0,0 UV-I 62 W/m 1,8 C -1,2 C 20,9 km/h (4 Bft)
09.01.2023 14:09 3,3 C 2,8 C 90 % 1002,8 hPa 0,0 l/m 11,7 km/h (2 Bft) SW 225 0 min 0,0 UV-I 68 W/m 1,8 C -1,0 C 20,9 km/h (4 Bft)
09.01.2023 14:12 3,3 C 2,8 C 90 % 1002,8 hPa 0,0 l/m 13,1 km/h (3 Bft) W-SW 241 0 min 0,0 UV-I 78 W/m 1,8 C -1,9 C 22,5 km/h (4 Bft)
09.01.2023 14:15 3,3 C 3,3 C 90 % 1003,0 hPa 0,0 l/m 15,2 km/h (3 Bft) S-SW 197 0 min 0,0 UV-I 75 W/m 1,8 C -3,1 C 22,5 km/h (4 Bft)
09.01.2023 14:18 3,2 C 3,3 C 90 % 1003,0 hPa 0,0 l/m 13,3 km/h (3 Bft) W-SW 238 0 min 0,0 UV-I 79 W/m 1,7 C -2,1 C 19,3 km/h (3 Bft)
09.01.2023 14:21 3,2 C 2,8 C 90 % 1003,1 hPa 0,0 l/m 12,1 km/h (2 Bft) S-SW 195 0 min 0,0 UV-I 73 W/m 1,7 C -1,4 C 19,3 km/h (3 Bft)
09.01.2023 14:24 3,2 C 2,8 C 91 % 1003,1 hPa 0,0 l/m 12,4 km/h (3 Bft) SW 214 0 min 0,0 UV-I 56 W/m 1,9 C -1,6 C 19,3 km/h (3 Bft)
09.01.2023 14:27 3,2 C 2,8 C 91 % 1003,1 hPa 0,0 l/m 11,5 km/h (2 Bft) S-SW 195 0 min 0,0 UV-I 45 W/m 1,9 C -1,0 C 17,7 km/h (3 Bft)
09.01.2023 14:30 3,2 C 2,8 C 91 % 1003,3 hPa 0,0 l/m 9,9 km/h (2 Bft) SW 215 0 min 0,0 UV-I 36 W/m 1,9 C 0,2 C 19,3 km/h (3 Bft)
09.01.2023 14:33 3,2 C 2,8 C 91 % 1003,2 hPa 0,0 l/m 9,2 km/h (2 Bft) S-SW 201 0 min 0,0 UV-I 25 W/m 1,9 C 0,7 C 16,1 km/h (3 Bft)
09.01.2023 14:36 3,2 C 2,8 C 91 % 1003,4 hPa 0,0 l/m 6,8 km/h (2 Bft) S-SW 213 0 min 0,0 UV-I 30 W/m 1,9 C 2,8 C 9,7 km/h (2 Bft)
09.01.2023 14:39 3,2 C 2,8 C 91 % 1003,3 hPa 0,0 l/m 11,2 km/h (2 Bft) S-SW 195 0 min 0,0 UV-I 28 W/m 1,9 C -0,8 C 20,9 km/h (4 Bft)
09.01.2023 14:42 3,1 C 2,8 C 91 % 1003,4 hPa 0,0 l/m 13,5 km/h (3 Bft) S-SW 196 0 min 0,0 UV-I 33 W/m 1,8 C -2,4 C 20,9 km/h (4 Bft)
09.01.2023 14:45 3,1 C 2,8 C 91 % 1003,4 hPa 0,0 l/m 13,3 km/h (3 Bft) S-SW 213 0 min 0,0 UV-I 42 W/m 1,8 C -2,2 C 24,1 km/h (4 Bft)
09.01.2023 14:48 3,1 C 2,8 C 91 % 1003,4 hPa 0,0 l/m 12,8 km/h (3 Bft) S-SW 197 0 min 0,0 UV-I 33 W/m 1,8 C -1,9 C 19,3 km/h (3 Bft)
09.01.2023 14:51 3,1 C 2,8 C 91 % 1003,4 hPa 0,0 l/m 12,0 km/h (2 Bft) S-SW 195 0 min 0,0 UV-I 23 W/m 1,8 C -1,4 C 19,3 km/h (3 Bft)
09.01.2023 14:54 3,2 C 2,8 C 91 % 1003,6 hPa 0,0 l/m 8,4 km/h (2 Bft) SW 228 0 min 0,0 UV-I 20 W/m 1,9 C 1,4 C 17,7 km/h (3 Bft)
09.01.2023 14:57 3,2 C 2,8 C 91 % 1003,5 hPa 0,0 l/m 9,9 km/h (2 Bft) S-SW 205 0 min 0,0 UV-I 23 W/m 1,9 C 0,2 C 20,9 km/h (4 Bft)
09.01.2023 15:00 3,2 C 2,8 C 91 % 1003,6 hPa 0,0 l/m 8,0 km/h (2 Bft) W-SW 250 0 min 0,0 UV-I 22 W/m 1,9 C 1,7 C 19,3 km/h (3 Bft)
09.01.2023 15:03 3,1 C 2,8 C 91 % 1003,6 hPa 0,0 l/m 11,4 km/h (2 Bft) W-SW 248 0 min 0,0 UV-I 23 W/m 1,8 C -1,0 C 25,7 km/h (4 Bft)
09.01.2023 15:06 3,1 C 2,8 C 91 % 1003,6 hPa 0,0 l/m 11,1 km/h (2 Bft) W-SW 238 0 min 0,0 UV-I 29 W/m 1,8 C -0,8 C 20,9 km/h (4 Bft)
09.01.2023 15:09 3,1 C 2,8 C 91 % 1003,8 hPa 0,0 l/m 17,0 km/h (3 Bft) S 189 0 min 0,0 UV-I 22 W/m 1,8 C -4,3 C 27,4 km/h (4 Bft)
09.01.2023 15:12 3,1 C 2,8 C 91 % 1003,8 hPa 0,0 l/m 10,5 km/h (2 Bft) SW 235 0 min 0,0 UV-I 14 W/m 1,8 C -0,4 C 24,1 km/h (4 Bft)
09.01.2023 15:15 3,1 C 2,8 C 91 % 1004,0 hPa 0,0 l/m 7,0 km/h (2 Bft) SW 227 0 min 0,0 UV-I 8 W/m 1,8 C 2,5 C 16,1 km/h (3 Bft)
09.01.2023 15:18 3,1 C 2,8 C 91 % 1004,0 hPa 0,0 l/m 9,9 km/h (2 Bft) SW 234 0 min 0,0 UV-I 8 W/m 1,8 C 0,0 C 17,7 km/h (3 Bft)
09.01.2023 15:21 3,1 C 2,8 C 91 % 1004,0 hPa 0,0 l/m 10,0 km/h (2 Bft) S-SW 207 0 min 0,0 UV-I 9 W/m 1,8 C -0,0 C 22,5 km/h (4 Bft)
09.01.2023 15:24 2,9 C 2,2 C 91 % 1004,0 hPa 0,0 l/m 17,1 km/h (3 Bft) SW 221 0 min 0,0 UV-I 11 W/m 1,6 C -4,6 C 24,1 km/h (4 Bft)
09.01.2023 15:27 2,9 C 2,2 C 91 % 1004,1 hPa 0,0 l/m 15,2 km/h (3 Bft) S-SW 203 0 min 0,0 UV-I 11 W/m 1,6 C -3,6 C 25,7 km/h (4 Bft)
09.01.2023 15:30 2,9 C 2,2 C 91 % 1004,2 hPa 0,0 l/m 12,6 km/h (3 Bft) SW 221 0 min 0,0 UV-I 12 W/m 1,6 C -2,1 C 22,5 km/h (4 Bft)
09.01.2023 15:33 2,9 C 2,2 C 91 % 1004,2 hPa 0,0 l/m 11,3 km/h (2 Bft) SW 220 0 min 0,0 UV-I 11 W/m 1,6 C -1,2 C 22,5 km/h (4 Bft)
09.01.2023 15:36 2,8 C 2,2 C 91 % 1004,2 hPa 0,0 l/m 9,3 km/h (2 Bft) W-SW 239 0 min 0,0 UV-I 13 W/m 1,5 C 0,2 C 17,7 km/h (3 Bft)
09.01.2023 15:39 2,9 C 2,2 C 91 % 1004,3 hPa 0,0 l/m 8,9 km/h (2 Bft) S-SW 205 0 min 0,0 UV-I 11 W/m 1,6 C 0,6 C 17,7 km/h (3 Bft)
09.01.2023 15:42 2,8 C 2,2 C 91 % 1004,3 hPa 0,0 l/m 8,2 km/h (2 Bft) SW 236 0 min 0,0 UV-I 12 W/m 1,5 C 1,1 C 14,5 km/h (3 Bft)
09.01.2023 15:45 2,8 C 2,2 C 91 % 1004,5 hPa 0,0 l/m 7,4 km/h (2 Bft) W-SW 248 0 min 0,0 UV-I 11 W/m 1,5 C 1,8 C 19,3 km/h (3 Bft)
09.01.2023 15:48 2,9 C 2,2 C 91 % 1004,6 hPa 0,0 l/m 10,8 km/h (2 Bft) S-SW 205 0 min 0,0 UV-I 13 W/m 1,6 C -0,8 C 19,3 km/h (3 Bft)
09.01.2023 15:51 2,9 C 2,2 C 91 % 1004,7 hPa 0,0 l/m 9,1 km/h (2 Bft) W-SW 240 0 min 0,0 UV-I 12 W/m 1,6 C 0,5 C 14,5 km/h (3 Bft)
09.01.2023 15:54 2,8 C 2,2 C 91 % 1004,8 hPa 0,0 l/m 10,7 km/h (2 Bft) S-SW 192 0 min 0,0 UV-I 10 W/m 1,5 C -0,9 C 17,7 km/h (3 Bft)
09.01.2023 15:57 2,8 C 2,2 C 91 % 1004,9 hPa 0,0 l/m 9,7 km/h (2 Bft) S 181 0 min 0,0 UV-I 12 W/m 1,5 C -0,1 C 19,3 km/h (3 Bft)
09.01.2023 16:00 2,8 C 2,2 C 91 % 1004,9 hPa 0,0 l/m 10,2 km/h (2 Bft) W-SW 246 0 min 0,0 UV-I 12 W/m 1,5 C -0,5 C 20,9 km/h (4 Bft)
09.01.2023 16:03 2,8 C 2,2 C 91 % 1005,1 hPa 0,0 l/m 10,0 km/h (2 Bft) W 265 0 min 0,0 UV-I 12 W/m 1,5 C -0,4 C 20,9 km/h (4 Bft)
09.01.2023 16:06 2,8 C 2,2 C 91 % 1005,1 hPa 0,0 l/m 8,0 km/h (2 Bft) SW 221 0 min 0,0 UV-I 11 W/m 1,5 C 1,3 C 14,5 km/h (3 Bft)
09.01.2023 16:09 2,7 C 2,2 C 91 % 1005,2 hPa 0,0 l/m 8,6 km/h (2 Bft) SW 232 0 min 0,0 UV-I 7 W/m 1,4 C 0,7 C 16,1 km/h (3 Bft)
09.01.2023 16:12 2,7 C 2,2 C 91 % 1005,3 hPa 0,0 l/m 9,7 km/h (2 Bft) S 188 0 min 0,0 UV-I 7 W/m 1,4 C -0,2 C 19,3 km/h (3 Bft)
09.01.2023 16:15 2,7 C 2,2 C 91 % 1005,4 hPa 0,0 l/m 14,7 km/h (3 Bft) S-SW 202 0 min 0,0 UV-I 8 W/m 1,4 C -3,5 C 27,4 km/h (4 Bft)
09.01.2023 16:18 2,6 C 2,2 C 91 % 1005,6 hPa 0,0 l/m 13,3 km/h (3 Bft) S-SW 203 0 min 0,0 UV-I 7 W/m 1,3 C -2,8 C 24,1 km/h (4 Bft)
09.01.2023 16:21 2,6 C 2,2 C 91 % 1005,6 hPa 0,0 l/m 15,4 km/h (3 Bft) SW 221 0 min 0,0 UV-I 2 W/m 1,3 C -4,1 C 25,7 km/h (4 Bft)
09.01.2023 16:24 2,6 C 2,2 C 91 % 1005,6 hPa 0,0 l/m 12,1 km/h (2 Bft) SW 222 0 min 0,0 UV-I 0 W/m 1,3 C -2,1 C 24,1 km/h (4 Bft)
09.01.2023 16:27 2,6 C 2,2 C 91 % 1005,7 hPa 0,0 l/m 12,5 km/h (3 Bft) W-SW 246 0 min 0,0 UV-I 0 W/m 1,3 C -2,3 C 25,7 km/h (4 Bft)
09.01.2023 16:30 2,6 C 2,2 C 91 % 1005,8 hPa 0,0 l/m 10,0 km/h (2 Bft) W-SW 252 0 min 0,0 UV-I 0 W/m 1,3 C -0,6 C 20,9 km/h (4 Bft)
09.01.2023 16:33 2,6 C 2,2 C 91 % 1005,9 hPa 0,0 l/m 8,6 km/h (2 Bft) SW 219 0 min 0,0 UV-I 0 W/m 1,3 C 0,6 C 16,1 km/h (3 Bft)
09.01.2023 16:36 2,6 C 2,2 C 91 % 1005,8 hPa 0,0 l/m 10,4 km/h (2 Bft) SW 233 0 min 0,0 UV-I 0 W/m 1,3 C -0,9 C 20,9 km/h (4 Bft)
09.01.2023 16:39 2,6 C 2,2 C 91 % 1006,0 hPa 0,0 l/m 9,7 km/h (2 Bft) S-SW 202 0 min 0,0 UV-I 0 W/m 1,3 C -0,3 C 17,7 km/h (3 Bft)
09.01.2023 16:42 2,6 C 2,2 C 92 % 1006,0 hPa 0,0 l/m 12,7 km/h (3 Bft) W-SW 237 0 min 0,0 UV-I 0 W/m 1,4 C -2,5 C 22,5 km/h (4 Bft)
09.01.2023 16:45 2,6 C 2,2 C 91 % 1006,1 hPa 0,0 l/m 10,3 km/h (2 Bft) S-SW 200 0 min 0,0 UV-I 0 W/m 1,3 C -0,8 C 19,3 km/h (3 Bft)
09.01.2023 16:48 2,6 C 2,2 C 91 % 1006,2 hPa 0,0 l/m 9,6 km/h (2 Bft) SW 223 0 min 0,0 UV-I 0 W/m 1,3 C -0,3 C 22,5 km/h (4 Bft)
09.01.2023 16:51 2,7 C 2,2 C 92 % 1006,2 hPa 0,0 l/m 12,1 km/h (2 Bft) SW 216 0 min 0,0 UV-I 0 W/m 1,5 C -2,0 C 17,7 km/h (3 Bft)
09.01.2023 16:54 2,7 C 2,2 C 92 % 1006,3 hPa 0,0 l/m 8,2 km/h (2 Bft) S-SW 203 0 min 0,0 UV-I 0 W/m 1,5 C 1,0 C 14,5 km/h (3 Bft)
09.01.2023 16:57 2,7 C 2,2 C 92 % 1006,3 hPa 0,0 l/m 10,0 km/h (2 Bft) SW 229 0 min 0,0 UV-I 0 W/m 1,5 C -0,5 C 17,7 km/h (3 Bft)
09.01.2023 17:00 2,7 C 2,2 C 92 % 1006,5 hPa 0,0 l/m 9,0 km/h (2 Bft) S-SW 200 0 min 0,0 UV-I 0 W/m 1,5 C 0,3 C 16,1 km/h (3 Bft)
09.01.2023 17:03 2,7 C 2,2 C 92 % 1006,4 hPa 0,0 l/m 7,7 km/h (2 Bft) W-SW 239 0 min 0,0 UV-I 0 W/m 1,5 C 1,5 C 12,9 km/h (3 Bft)
09.01.2023 17:06 2,7 C 2,2 C 92 % 1006,5 hPa 0,0 l/m 9,7 km/h (2 Bft) SW 229 0 min 0,0 UV-I 0 W/m 1,5 C -0,2 C 17,7 km/h (3 Bft)
09.01.2023 17:09 2,7 C 2,2 C 92 % 1006,6 hPa 0,0 l/m 6,2 km/h (2 Bft) SW 217 0 min 0,0 UV-I 0 W/m 1,5 C 2,7 C 11,3 km/h (2 Bft)
09.01.2023 17:12 2,7 C 2,2 C 92 % 1006,7 hPa 0,0 l/m 6,4 km/h (2 Bft) SW 217 0 min 0,0 UV-I 0 W/m 1,5 C 2,7 C 12,9 km/h (3 Bft)
09.01.2023 17:15 2,7 C 2,2 C 92 % 1006,7 hPa 0,0 l/m 8,2 km/h (2 Bft) S-SW 207 0 min 0,0 UV-I 0 W/m 1,5 C 1,0 C 16,1 km/h (3 Bft)
09.01.2023 17:18 2,8 C 2,2 C 92 % 1006,6 hPa 0,0 l/m 10,4 km/h (2 Bft) S-SW 204 0 min 0,0 UV-I 0 W/m 1,6 C -0,7 C 16,1 km/h (3 Bft)
09.01.2023 17:21 2,8 C 2,2 C 92 % 1006,7 hPa 0,0 l/m 9,8 km/h (2 Bft) SW 227 0 min 0,0 UV-I 0 W/m 1,6 C -0,2 C 14,5 km/h (3 Bft)
09.01.2023 17:24 2,8 C 2,2 C 92 % 1006,8 hPa 0,0 l/m 7,5 km/h (2 Bft) SW 234 0 min 0,0 UV-I 0 W/m 1,6 C 1,8 C 11,3 km/h (2 Bft)
09.01.2023 17:27 2,8 C 2,2 C 92 % 1006,8 hPa 0,0 l/m 8,9 km/h (2 Bft) W-SW 241 0 min 0,0 UV-I 0 W/m 1,6 C 0,5 C 17,7 km/h (3 Bft)
09.01.2023 17:30 2,8 C 2,2 C 92 % 1006,9 hPa 0,2 l/m 8,9 km/h (2 Bft) S 178 0 min 0,0 UV-I 0 W/m 1,6 C 0,5 C 12,9 km/h (3 Bft)
09.01.2023 17:33 2,8 C 2,2 C 92 % 1007,0 hPa 0,0 l/m 8,1 km/h (2 Bft) S-SW 192 0 min 0,0 UV-I 0 W/m 1,6 C 1,2 C 11,3 km/h (2 Bft)
09.01.2023 17:36 2,8 C 2,2 C 92 % 1006,9 hPa 0,0 l/m 8,9 km/h (2 Bft) S 190 0 min 0,0 UV-I 0 W/m 1,6 C 0,5 C 12,9 km/h (3 Bft)
09.01.2023 17:39 2,8 C 2,2 C 92 % 1007,0 hPa 0,0 l/m 8,5 km/h (2 Bft) S-SW 205 0 min 0,0 UV-I 0 W/m 1,6 C 0,9 C 12,9 km/h (3 Bft)
09.01.2023 17:42 2,8 C 2,2 C 92 % 1007,1 hPa 0,0 l/m 6,2 km/h (2 Bft) S-SW 213 0 min 0,0 UV-I 0 W/m 1,6 C 2,8 C 11,3 km/h (2 Bft)
09.01.2023 17:45 2,8 C 2,2 C 92 % 1007,1 hPa 0,0 l/m 7,9 km/h (2 Bft) S-SW 212 0 min 0,0 UV-I 0 W/m 1,6 C 1,4 C 12,9 km/h (3 Bft)
09.01.2023 17:48 2,8 C 2,2 C 92 % 1007,2 hPa 0,0 l/m 6,9 km/h (2 Bft) S-SW 204 0 min 0,0 UV-I 0 W/m 1,6 C 2,3 C 12,9 km/h (3 Bft)
09.01.2023 17:51 2,9 C 2,2 C 92 % 1007,3 hPa 0,0 l/m 9,2 km/h (2 Bft) SW 217 0 min 0,0 UV-I 0 W/m 1,7 C 0,4 C 16,1 km/h (3 Bft)
09.01.2023 17:54 2,9 C 2,2 C 92 % 1007,3 hPa 0,0 l/m 8,6 km/h (2 Bft) S-SW 207 0 min 0,0 UV-I 0 W/m 1,7 C 0,9 C 12,9 km/h (3 Bft)
09.01.2023 17:57 2,9 C 2,2 C 92 % 1007,4 hPa 0,0 l/m 8,7 km/h (2 Bft) S-SW 200 0 min 0,0 UV-I 0 W/m 1,7 C 0,8 C 14,5 km/h (3 Bft)
09.01.2023 18:00 2,9 C 2,2 C 92 % 1007,3 hPa 0,0 l/m 8,6 km/h (2 Bft) S-SW 202 0 min 0,0 UV-I 0 W/m 1,7 C 0,9 C 17,7 km/h (3 Bft)
09.01.2023 18:03 2,9 C 2,2 C 92 % 1007,4 hPa 0,0 l/m 9,3 km/h (2 Bft) S 170 0 min 0,0 UV-I 0 W/m 1,7 C 0,3 C 16,1 km/h (3 Bft)
09.01.2023 18:06 2,9 C 2,2 C 92 % 1007,5 hPa 0,0 l/m 8,3 km/h (2 Bft) SW 214 0 min 0,0 UV-I 0 W/m 1,7 C 1,1 C 12,9 km/h (3 Bft)
09.01.2023 18:09 2,9 C 2,2 C 92 % 1007,4 hPa 0,0 l/m 10,5 km/h (2 Bft) S-SW 213 0 min 0,0 UV-I 0 W/m 1,7 C -0,6 C 16,1 km/h (3 Bft)
09.01.2023 18:12 2,9 C 2,2 C 92 % 1007,5 hPa 0,0 l/m 8,8 km/h (2 Bft) S-SW 203 0 min 0,0 UV-I 0 W/m 1,7 C 0,7 C 12,9 km/h (3 Bft)
09.01.2023 18:15 2,9 C 2,2 C 92 % 1007,7 hPa 0,0 l/m 8,2 km/h (2 Bft) S-SW 196 0 min 0,0 UV-I 0 W/m 1,7 C 1,2 C 11,3 km/h (2 Bft)
09.01.2023 18:18 2,9 C 2,2 C 92 % 1007,7 hPa 0,0 l/m 6,7 km/h (2 Bft) S-SW 209 0 min 0,0 UV-I 0 W/m 1,7 C 2,6 C 14,5 km/h (3 Bft)
09.01.2023 18:21 2,9 C 2,2 C 92 % 1007,7 hPa 0,0 l/m 9,7 km/h (2 Bft) W-SW 250 0 min 0,0 UV-I 0 W/m 1,7 C -0,0 C 19,3 km/h (3 Bft)
09.01.2023 18:24 3,0 C 2,2 C 92 % 1007,8 hPa 0,0 l/m 9,6 km/h (2 Bft) S-SW 196 0 min 0,0 UV-I 0 W/m 1,8 C 0,2 C 16,1 km/h (3 Bft)
09.01.2023 18:27 3,0 C 2,2 C 92 % 1007,7 hPa 0,0 l/m 8,6 km/h (2 Bft) S 190 0 min 0,0 UV-I 0 W/m 1,8 C 1,0 C 12,9 km/h (3 Bft)
09.01.2023 18:30 3,0 C 2,2 C 92 % 1007,8 hPa 0,0 l/m 8,8 km/h (2 Bft) S-SW 204 0 min 0,0 UV-I 0 W/m 1,8 C 0,8 C 14,5 km/h (3 Bft)
09.01.2023 18:33 2,9 C 2,2 C 92 % 1007,8 hPa 0,0 l/m 11,1 km/h (2 Bft) SW 220 0 min 0,0 UV-I 0 W/m 1,7 C -1,0 C 14,5 km/h (3 Bft)
09.01.2023 18:36 2,9 C 2,2 C 92 % 1008,0 hPa 0,2 l/m 11,8 km/h (2 Bft) S-SW 195 0 min 0,0 UV-I 0 W/m 1,7 C -1,5 C 19,3 km/h (3 Bft)
09.01.2023 18:39 2,8 C 2,2 C 91 % 1008,0 hPa 0,0 l/m 11,8 km/h (2 Bft) S-SW 205 0 min 0,0 UV-I 0 W/m 1,5 C -1,6 C 17,7 km/h (3 Bft)
09.01.2023 18:42 2,8 C 2,2 C 92 % 1008,1 hPa 0,0 l/m 9,8 km/h (2 Bft) S-SW 194 0 min 0,0 UV-I 0 W/m 1,6 C -0,2 C 16,1 km/h (3 Bft)
09.01.2023 18:45 2,8 C 2,2 C 92 % 1008,1 hPa 0,0 l/m 8,7 km/h (2 Bft) S-SW 200 0 min 0,0 UV-I 0 W/m 1,6 C 0,7 C 11,3 km/h (2 Bft)
09.01.2023 18:48 2,8 C 2,2 C 92 % 1008,1 hPa 0,2 l/m 10,5 km/h (2 Bft) S-SW 211 0 min 0,0 UV-I 0 W/m 1,6 C -0,7 C 14,5 km/h (3 Bft)
09.01.2023 18:51 2,8 C 2,2 C 92 % 1008,1 hPa 0,0 l/m 10,8 km/h (2 Bft) S 189 0 min 0,0 UV-I 0 W/m 1,6 C -0,9 C 19,3 km/h (3 Bft)
09.01.2023 18:54 2,8 C 2,2 C 92 % 1008,1 hPa 0,0 l/m 14,8 km/h (3 Bft) S-SW 203 0 min 0,0 UV-I 0 W/m 1,6 C -3,5 C 25,7 km/h (4 Bft)
09.01.2023 18:57 2,8 C 2,2 C 92 % 1008,1 hPa 0,0 l/m 14,0 km/h (3 Bft) S 188 0 min 0,0 UV-I 0 W/m 1,6 C -3,0 C 24,1 km/h (4 Bft)
09.01.2023 19:00 2,8 C 2,2 C 92 % 1008,2 hPa 0,0 l/m 13,4 km/h (3 Bft) S-SW 193 0 min 0,0 UV-I 0 W/m 1,6 C -2,7 C 19,3 km/h (3 Bft)
09.01.2023 19:03 2,7 C 2,2 C 92 % 1008,3 hPa 0,0 l/m 11,2 km/h (2 Bft) S 182 0 min 0,0 UV-I 0 W/m 1,5 C -1,3 C 16,1 km/h (3 Bft)
09.01.2023 19:06 2,7 C 2,2 C 92 % 1008,2 hPa 0,0 l/m 10,6 km/h (2 Bft) SW 219 0 min 0,0 UV-I 0 W/m 1,5 C -0,9 C 14,5 km/h (3 Bft)
09.01.2023 19:09 2,7 C 2,2 C 92 % 1008,4 hPa 0,0 l/m 7,7 km/h (2 Bft) S-SW 196 0 min 0,0 UV-I 0 W/m 1,5 C 1,5 C 11,3 km/h (2 Bft)
09.01.2023 19:12 2,7 C 2,2 C 92 % 1008,4 hPa 0,0 l/m 8,1 km/h (2 Bft) S-SW 198 0 min 0,0 UV-I 0 W/m 1,5 C 1,1 C 12,9 km/h (3 Bft)
09.01.2023 19:15 2,7 C 2,2 C 92 % 1008,5 hPa 0,0 l/m 9,7 km/h (2 Bft) S 182 0 min 0,0 UV-I 0 W/m 1,5 C -0,2 C 17,7 km/h (3 Bft)
09.01.2023 19:18 2,8 C 2,2 C 92 % 1008,4 hPa 0,0 l/m 9,8 km/h (2 Bft) SW 215 0 min 0,0 UV-I 0 W/m 1,6 C -0,2 C 16,1 km/h (3 Bft)
09.01.2023 19:21 2,8 C 2,2 C 92 % 1008,4 hPa 0,2 l/m 10,0 km/h (2 Bft) S 186 0 min 0,0 UV-I 0 W/m 1,6 C -0,4 C 17,7 km/h (3 Bft)
09.01.2023 19:24 2,9 C 2,2 C 92 % 1008,4 hPa 0,0 l/m 8,6 km/h (2 Bft) W-SW 243 0 min 0,0 UV-I 0 W/m 1,7 C 0,9 C 16,1 km/h (3 Bft)
09.01.2023 19:27 2,9 C 2,2 C 92 % 1008,5 hPa 0,0 l/m 10,8 km/h (2 Bft) SW 215 0 min 0,0 UV-I 0 W/m 1,7 C -0,8 C 14,5 km/h (3 Bft)
09.01.2023 19:30 3,0 C 2,8 C 92 % 1008,5 hPa 0,0 l/m 9,7 km/h (2 Bft) S-SW 192 0 min 0,0 UV-I 0 W/m 1,8 C 0,1 C 12,9 km/h (3 Bft)
09.01.2023 19:33 3,1 C 2,8 C 92 % 1008,6 hPa 0,0 l/m 12,5 km/h (3 Bft) S-SW 192 0 min 0,0 UV-I 0 W/m 1,9 C -1,8 C 19,3 km/h (3 Bft)
09.01.2023 19:36 3,1 C 2,8 C 92 % 1008,6 hPa 0,0 l/m 14,1 km/h (3 Bft) S-SW 209 0 min 0,0 UV-I 0 W/m 1,9 C -2,7 C 24,1 km/h (4 Bft)
09.01.2023 19:39 3,1 C 2,8 C 92 % 1008,8 hPa 0,0 l/m 13,0 km/h (3 Bft) S-SW 202 0 min 0,0 UV-I 0 W/m 1,9 C -2,1 C 19,3 km/h (3 Bft)
09.01.2023 19:42 3,2 C 2,8 C 92 % 1008,7 hPa 0,0 l/m 10,8 km/h (2 Bft) W-SW 240 0 min 0,0 UV-I 0 W/m 2,0 C -0,5 C 17,7 km/h (3 Bft)
09.01.2023 19:45 3,2 C 2,8 C 92 % 1008,8 hPa 0,2 l/m 9,2 km/h (2 Bft) SW 233 0 min 0,0 UV-I 0 W/m 2,0 C 0,7 C 22,5 km/h (4 Bft)
09.01.2023 19:48 3,2 C 2,8 C 92 % 1008,8 hPa 0,0 l/m 7,9 km/h (2 Bft) S-SW 205 0 min 0,0 UV-I 0 W/m 2,0 C 1,8 C 17,7 km/h (3 Bft)
09.01.2023 19:51 3,1 C 2,8 C 92 % 1008,9 hPa 0,0 l/m 9,6 km/h (2 Bft) S-SW 204 0 min 0,0 UV-I 0 W/m 1,9 C 0,3 C 16,1 km/h (3 Bft)
09.01.2023 19:54 3,1 C 2,8 C 92 % 1009,1 hPa 0,0 l/m 8,8 km/h (2 Bft) W-SW 238 0 min 0,0 UV-I 0 W/m 1,9 C 0,9 C 17,7 km/h (3 Bft)
09.01.2023 19:57 3,1 C 2,8 C 92 % 1009,1 hPa 0,0 l/m 10,7 km/h (2 Bft) SW 221 0 min 0,0 UV-I 0 W/m 1,9 C -0,5 C 22,5 km/h (4 Bft)
09.01.2023 20:00 3,1 C 2,8 C 92 % 1009,1 hPa 0,0 l/m 8,4 km/h (2 Bft) S-SW 198 0 min 0,0 UV-I 0 W/m 1,9 C 1,3 C 12,9 km/h (3 Bft)
09.01.2023 20:03 3,2 C 2,8 C 92 % 1009,2 hPa 0,2 l/m 12,0 km/h (2 Bft) SW 214 0 min 0,0 UV-I 0 W/m 2,0 C -1,3 C 22,5 km/h (4 Bft)
09.01.2023 20:06 3,2 C 2,8 C 92 % 1009,2 hPa 0,0 l/m 12,5 km/h (3 Bft) W-SW 248 0 min 0,0 UV-I 0 W/m 2,0 C -1,6 C 20,9 km/h (4 Bft)
09.01.2023 20:09 3,2 C 2,8 C 92 % 1009,4 hPa 0,0 l/m 10,1 km/h (2 Bft) SW 225 0 min 0,0 UV-I 0 W/m 2,0 C 0,0 C 16,1 km/h (3 Bft)
09.01.2023 20:12 3,2 C 2,8 C 92 % 1009,3 hPa 0,0 l/m 9,8 km/h (2 Bft) SW 223 0 min 0,0 UV-I 0 W/m 2,0 C 0,2 C 16,1 km/h (3 Bft)
09.01.2023 20:15 3,2 C 2,8 C 92 % 1009,3 hPa 0,0 l/m 8,6 km/h (2 Bft) S-SW 211 0 min 0,0 UV-I 0 W/m 2,0 C 1,2 C 16,1 km/h (3 Bft)
09.01.2023 20:18 3,2 C 2,8 C 92 % 1009,4 hPa 0,0 l/m 7,8 km/h (2 Bft) SW 236 0 min 0,0 UV-I 0 W/m 2,0 C 1,9 C 14,5 km/h (3 Bft)
09.01.2023 20:21 3,2 C 2,8 C 92 % 1009,4 hPa 0,0 l/m 10,9 km/h (2 Bft) SW 230 0 min 0,0 UV-I 0 W/m 2,0 C -0,6 C 16,1 km/h (3 Bft)
09.01.2023 20:24 3,2 C 2,8 C 92 % 1009,5 hPa 0,0 l/m 6,3 km/h (2 Bft) SW 231 0 min 0,0 UV-I 0 W/m 2,0 C 3,2 C 11,3 km/h (2 Bft)
09.01.2023 20:27 3,2 C 2,8 C 92 % 1009,4 hPa 0,0 l/m 5,9 km/h (2 Bft) SW 218 0 min 0,0 UV-I 0 W/m 2,0 C 3,2 C 11,3 km/h (2 Bft)
09.01.2023 20:30 3,2 C 2,8 C 92 % 1009,5 hPa 0,0 l/m 6,6 km/h (2 Bft) S-SW 194 0 min 0,0 UV-I 0 W/m 2,0 C 3,0 C 14,5 km/h (3 Bft)
09.01.2023 20:33 3,2 C 2,8 C 92 % 1009,5 hPa 0,0 l/m 7,2 km/h (2 Bft) SW 221 0 min 0,0 UV-I 0 W/m 2,0 C 2,4 C 16,1 km/h (3 Bft)
09.01.2023 20:36 3,2 C 2,8 C 92 % 1009,6 hPa 0,0 l/m 8,6 km/h (2 Bft) SW 232 0 min 0,0 UV-I 0 W/m 2,0 C 1,2 C 14,5 km/h (3 Bft)
09.01.2023 20:39 3,2 C 2,8 C 92 % 1009,7 hPa 0,0 l/m 6,8 km/h (2 Bft) S-SW 213 0 min 0,0 UV-I 0 W/m 2,0 C 2,8 C 14,5 km/h (3 Bft)
09.01.2023 20:42 3,2 C 2,8 C 92 % 1009,8 hPa 0,0 l/m 5,0 km/h (1 Bft) SW 219 0 min 0,0 UV-I 0 W/m 2,0 C 3,2 C 9,7 km/h (2 Bft)
09.01.2023 20:45 3,2 C 2,8 C 92 % 1010,0 hPa 0,0 l/m 5,5 km/h (1 Bft) W-SW 243 0 min 0,0 UV-I 0 W/m 2,0 C 3,2 C 11,3 km/h (2 Bft)
09.01.2023 20:48 3,2 C 2,8 C 92 % 1010,1 hPa 0,0 l/m 7,2 km/h (2 Bft) SW 219 0 min 0,0 UV-I 0 W/m 2,0 C 2,4 C 14,5 km/h (3 Bft)
09.01.2023 20:51 3,2 C 2,8 C 92 % 1010,1 hPa 0,0 l/m 9,0 km/h (2 Bft) S-SW 204 0 min 0,0 UV-I 0 W/m 2,0 C 0,9 C 16,1 km/h (3 Bft)
09.01.2023 20:54 3,2 C 2,8 C 92 % 1010,2 hPa 0,0 l/m 9,2 km/h (2 Bft) S-SW 205 0 min 0,0 UV-I 0 W/m 2,0 C 0,7 C 14,5 km/h (3 Bft)
09.01.2023 20:57 3,2 C 2,8 C 92 % 1010,2 hPa 0,0 l/m 7,1 km/h (2 Bft) W-SW 238 0 min 0,0 UV-I 0 W/m 2,0 C 2,5 C 12,9 km/h (3 Bft)
09.01.2023 21:00 3,2 C 2,8 C 92 % 1010,2 hPa 0,2 l/m 5,3 km/h (1 Bft) W-SW 244 0 min 0,0 UV-I 0 W/m 2,0 C 3,2 C 11,3 km/h (2 Bft)
09.01.2023 21:03 3,2 C 2,8 C 92 % 1010,4 hPa 0,0 l/m 4,9 km/h (1 Bft) SW 236 0 min 0,0 UV-I 0 W/m 2,0 C 3,2 C 9,7 km/h (2 Bft)
09.01.2023 21:06 3,2 C 2,8 C 92 % 1010,4 hPa 0,0 l/m 5,5 km/h (1 Bft) W 274 0 min 0,0 UV-I 0 W/m 2,0 C 3,2 C 11,3 km/h (2 Bft)
09.01.2023 21:09 3,2 C 2,8 C 92 % 1010,5 hPa 0,0 l/m 10,7 km/h (2 Bft) W 263 0 min 0,0 UV-I 0 W/m 2,0 C -0,4 C 22,5 km/h (4 Bft)
09.01.2023 21:12 3,1 C 2,2 C 92 % 1010,7 hPa 0,2 l/m 7,1 km/h (2 Bft) W-SW 246 0 min 0,0 UV-I 0 W/m 1,9 C 2,4 C 16,1 km/h (3 Bft)
09.01.2023 21:15 3,0 C 2,2 C 92 % 1010,7 hPa 0,0 l/m 10,8 km/h (2 Bft) S-SW 211 0 min 0,0 UV-I 0 W/m 1,8 C -0,7 C 17,7 km/h (3 Bft)
09.01.2023 21:18 2,9 C 2,2 C 92 % 1011,0 hPa 0,2 l/m 10,2 km/h (2 Bft) SW 232 0 min 0,0 UV-I 0 W/m 1,7 C -0,4 C 19,3 km/h (3 Bft)
09.01.2023 21:21 2,8 C 2,2 C 92 % 1011,0 hPa 0,0 l/m 8,8 km/h (2 Bft) SW 232 0 min 0,0 UV-I 0 W/m 1,6 C 0,6 C 14,5 km/h (3 Bft)
09.01.2023 21:24 2,8 C 2,2 C 92 % 1011,0 hPa 0,0 l/m 7,6 km/h (2 Bft) W-SW 238 0 min 0,0 UV-I 0 W/m 1,6 C 1,7 C 14,5 km/h (3 Bft)
09.01.2023 21:27 2,7 C 2,2 C 92 % 1011,0 hPa 0,0 l/m 6,0 km/h (2 Bft) W-SW 250 0 min 0,0 UV-I 0 W/m 1,5 C 2,7 C 11,3 km/h (2 Bft)
09.01.2023 21:30 2,7 C 2,2 C 92 % 1011,1 hPa 0,0 l/m 5,1 km/h (1 Bft) W-SW 247 0 min 0,0 UV-I 0 W/m 1,5 C 2,7 C 9,7 km/h (2 Bft)
09.01.2023 21:33 2,7 C 2,2 C 92 % 1011,2 hPa 0,2 l/m 4,5 km/h (1 Bft) W 262 0 min 0,0 UV-I 0 W/m 1,5 C 2,7 C 12,9 km/h (3 Bft)
09.01.2023 21:36 2,6 C 2,2 C 92 % 1011,3 hPa 0,0 l/m 5,3 km/h (1 Bft) W-SW 246 0 min 0,0 UV-I 0 W/m 1,4 C 2,6 C 8,0 km/h (2 Bft)
09.01.2023 21:39 2,7 C 2,2 C 92 % 1011,3 hPa 0,0 l/m 5,9 km/h (2 Bft) W-SW 243 0 min 0,0 UV-I 0 W/m 1,5 C 2,7 C 14,5 km/h (3 Bft)
09.01.2023 21:42 2,6 C 1,7 C 92 % 1011,4 hPa 0,2 l/m 11,0 km/h (2 Bft) SW 233 0 min 0,0 UV-I 0 W/m 1,4 C -1,3 C 19,3 km/h (3 Bft)
09.01.2023 21:45 2,5 C 1,7 C 92 % 1011,6 hPa 0,0 l/m 10,2 km/h (2 Bft) W-SW 252 0 min 0,0 UV-I 0 W/m 1,3 C -0,8 C 17,7 km/h (3 Bft)
09.01.2023 21:48 2,3 C 1,1 C 92 % 1011,6 hPa 0,2 l/m 11,4 km/h (2 Bft) SW 215 0 min 0,0 UV-I 0 W/m 1,1 C -1,9 C 19,3 km/h (3 Bft)
09.01.2023 21:51 2,2 C 1,1 C 91 % 1011,6 hPa 0,0 l/m 7,3 km/h (2 Bft) SW 236 0 min 0,0 UV-I 0 W/m 0,9 C 1,3 C 12,9 km/h (3 Bft)
09.01.2023 21:54 2,1 C 1,1 C 91 % 1011,7 hPa 0,2 l/m 4,9 km/h (1 Bft) W-SW 246 0 min 0,0 UV-I 0 W/m 0,8 C 2,1 C 9,7 km/h (2 Bft)
09.01.2023 21:57 2,1 C 1,1 C 92 % 1011,8 hPa 0,0 l/m 5,8 km/h (2 Bft) W-SW 249 0 min 0,0 UV-I 0 W/m 0,9 C 2,1 C 12,9 km/h (3 Bft)
09.01.2023 22:00 2,0 C 1,1 C 92 % 1011,9 hPa 0,0 l/m 7,1 km/h (2 Bft) SW 228 0 min 0,0 UV-I 0 W/m 0,8 C 1,3 C 11,3 km/h (2 Bft)
09.01.2023 22:03 1,9 C 1,1 C 92 % 1011,9 hPa 0,0 l/m 5,7 km/h (1 Bft) W 272 0 min 0,0 UV-I 0 W/m 0,7 C 1,9 C 14,5 km/h (3 Bft)
09.01.2023 22:06 1,8 C 1,1 C 91 % 1011,9 hPa 0,0 l/m 9,0 km/h (2 Bft) W-NW 292 0 min 0,0 UV-I 0 W/m 0,5 C -0,6 C 20,9 km/h (4 Bft)
09.01.2023 22:09 1,8 C 1,1 C 91 % 1012,0 hPa 0,0 l/m 7,0 km/h (2 Bft) SW 222 0 min 0,0 UV-I 0 W/m 0,5 C 1,2 C 12,9 km/h (3 Bft)
09.01.2023 22:12 1,7 C 1,1 C 91 % 1012,2 hPa 0,2 l/m 6,3 km/h (2 Bft) W-SW 257 0 min 0,0 UV-I 0 W/m 0,4 C 1,7 C 14,5 km/h (3 Bft)
09.01.2023 22:15 1,6 C 1,1 C 91 % 1012,1 hPa 0,0 l/m 7,7 km/h (2 Bft) W-SW 258 0 min 0,0 UV-I 0 W/m 0,3 C 0,3 C 14,5 km/h (3 Bft)
09.01.2023 22:18 1,6 C 1,1 C 92 % 1012,3 hPa 0,0 l/m 4,6 km/h (1 Bft) SW 236 0 min 0,0 UV-I 0 W/m 0,4 C 1,6 C 12,9 km/h (3 Bft)
09.01.2023 22:21 1,6 C 1,1 C 92 % 1012,3 hPa 0,0 l/m 6,1 km/h (2 Bft) SW 234 0 min 0,0 UV-I 0 W/m 0,4 C 1,6 C 11,3 km/h (2 Bft)
09.01.2023 22:24 1,6 C 0,6 C 91 % 1012,3 hPa 0,0 l/m 3,4 km/h (1 Bft) SW 236 0 min 0,0 UV-I 0 W/m 0,3 C 1,6 C 4,8 km/h (1 Bft)
09.01.2023 22:27 1,5 C 0,6 C 91 % 1012,4 hPa 0,2 l/m 5,4 km/h (1 Bft) SW 232 0 min 0,0 UV-I 0 W/m 0,2 C 1,5 C 11,3 km/h (2 Bft)
09.01.2023 22:30 1,5 C 0,6 C 91 % 1012,5 hPa 0,0 l/m 6,2 km/h (2 Bft) SW 234 0 min 0,0 UV-I 0 W/m 0,2 C 1,5 C 12,9 km/h (3 Bft)
09.01.2023 22:33 1,4 C 1,1 C 91 % 1012,4 hPa 0,0 l/m 7,5 km/h (2 Bft) SW 233 0 min 0,0 UV-I 0 W/m 0,1 C 0,3 C 16,1 km/h (3 Bft)
09.01.2023 22:36 1,5 C 1,1 C 91 % 1012,4 hPa 0,0 l/m 8,0 km/h (2 Bft) W-SW 243 0 min 0,0 UV-I 0 W/m 0,2 C -0,1 C 14,5 km/h (3 Bft)
09.01.2023 22:39 1,5 C 1,1 C 92 % 1012,6 hPa 0,0 l/m 9,4 km/h (2 Bft) SW 235 0 min 0,0 UV-I 0 W/m 0,3 C -1,3 C 17,7 km/h (3 Bft)
09.01.2023 22:42 1,6 C 1,1 C 92 % 1012,6 hPa 0,0 l/m 7,9 km/h (2 Bft) SW 234 0 min 0,0 UV-I 0 W/m 0,4 C 0,1 C 14,5 km/h (3 Bft)
09.01.2023 22:45 1,6 C 1,1 C 92 % 1012,7 hPa 0,2 l/m 6,3 km/h (2 Bft) W-SW 255 0 min 0,0 UV-I 0 W/m 0,4 C 1,6 C 12,9 km/h (3 Bft)
09.01.2023 22:48 1,6 C 1,1 C 92 % 1012,7 hPa 0,0 l/m 8,2 km/h (2 Bft) W-SW 257 0 min 0,0 UV-I 0 W/m 0,4 C -0,2 C 14,5 km/h (3 Bft)
09.01.2023 22:51 1,5 C 1,1 C 92 % 1012,8 hPa 0,0 l/m 7,9 km/h (2 Bft) W-SW 238 0 min 0,0 UV-I 0 W/m 0,3 C 0,0 C 14,5 km/h (3 Bft)
09.01.2023 22:54 1,6 C 1,1 C 92 % 1012,8 hPa 0,2 l/m 6,3 km/h (2 Bft) SW 221 0 min 0,0 UV-I 0 W/m 0,4 C 1,6 C 12,9 km/h (3 Bft)
09.01.2023 22:57 1,6 C 1,1 C 92 % 1012,8 hPa 0,0 l/m 5,3 km/h (1 Bft) W-SW 242 0 min 0,0 UV-I 0 W/m 0,4 C 1,6 C 11,3 km/h (2 Bft)
09.01.2023 23:00 1,6 C 1,1 C 92 % 1012,9 hPa 0,0 l/m 4,7 km/h (1 Bft) W-SW 244 0 min 0,0 UV-I 0 W/m 0,4 C 1,6 C 11,3 km/h (2 Bft)
09.01.2023 23:03 1,6 C 1,1 C 92 % 1013,0 hPa 0,0 l/m 4,3 km/h (1 Bft) W-SW 241 0 min 0,0 UV-I 0 W/m 0,4 C 1,6 C 6,4 km/h (2 Bft)
09.01.2023 23:06 1,6 C 1,1 C 92 % 1013,0 hPa 0,0 l/m 7,0 km/h (2 Bft) W-SW 238 0 min 0,0 UV-I 0 W/m 0,4 C 1,0 C 12,9 km/h (3 Bft)
09.01.2023 23:09 1,7 C 1,1 C 92 % 1013,1 hPa 0,0 l/m 6,7 km/h (2 Bft) W-SW 237 0 min 0,0 UV-I 0 W/m 0,5 C 1,4 C 12,9 km/h (3 Bft)
09.01.2023 23:12 1,7 C 1,1 C 92 % 1013,2 hPa 0,0 l/m 7,4 km/h (2 Bft) SW 222 0 min 0,0 UV-I 0 W/m 0,5 C 0,7 C 16,1 km/h (3 Bft)
09.01.2023 23:15 1,7 C 1,1 C 92 % 1013,2 hPa 0,0 l/m 3,7 km/h (1 Bft) SW 217 0 min 0,0 UV-I 0 W/m 0,5 C 1,7 C 8,0 km/h (2 Bft)
09.01.2023 23:18 1,8 C 1,1 C 92 % 1013,2 hPa 0,0 l/m 5,6 km/h (1 Bft) SW 221 0 min 0,0 UV-I 0 W/m 0,6 C 1,8 C 9,7 km/h (2 Bft)
09.01.2023 23:21 1,8 C 1,7 C 92 % 1013,4 hPa 0,0 l/m 6,8 km/h (2 Bft) W-SW 244 0 min 0,0 UV-I 0 W/m 0,6 C 1,4 C 12,9 km/h (3 Bft)
09.01.2023 23:24 1,8 C 1,7 C 92 % 1013,5 hPa 0,0 l/m 6,7 km/h (2 Bft) SW 225 0 min 0,0 UV-I 0 W/m 0,6 C 1,5 C 12,9 km/h (3 Bft)
09.01.2023 23:27 1,8 C 1,7 C 92 % 1013,6 hPa 0,0 l/m 7,7 km/h (2 Bft) SW 223 0 min 0,0 UV-I 0 W/m 0,6 C 0,5 C 16,1 km/h (3 Bft)
09.01.2023 23:30 1,9 C 1,7 C 92 % 1013,5 hPa 0,0 l/m 7,6 km/h (2 Bft) S-SW 198 0 min 0,0 UV-I 0 W/m 0,7 C 0,7 C 14,5 km/h (3 Bft)
09.01.2023 23:33 1,9 C 1,7 C 92 % 1013,6 hPa 0,0 l/m 5,7 km/h (1 Bft) W-SW 242 0 min 0,0 UV-I 0 W/m 0,7 C 1,9 C 9,7 km/h (2 Bft)
09.01.2023 23:36 1,9 C 1,7 C 92 % 1013,6 hPa 0,0 l/m 8,5 km/h (2 Bft) SW 227 0 min 0,0 UV-I 0 W/m 0,7 C -0,1 C 16,1 km/h (3 Bft)
09.01.2023 23:39 2,0 C 1,7 C 92 % 1013,7 hPa 0,0 l/m 7,1 km/h (2 Bft) SW 225 0 min 0,0 UV-I 0 W/m 0,8 C 1,3 C 16,1 km/h (3 Bft)
09.01.2023 23:42 2,0 C 1,1 C 92 % 1013,7 hPa 0,0 l/m 7,4 km/h (2 Bft) W-SW 237 0 min 0,0 UV-I 0 W/m 0,8 C 1,0 C 14,5 km/h (3 Bft)
09.01.2023 23:45 2,1 C 1,1 C 92 % 1013,7 hPa 0,0 l/m 8,6 km/h (2 Bft) SW 223 0 min 0,0 UV-I 0 W/m 0,9 C 0,0 C 16,1 km/h (3 Bft)
09.01.2023 23:48 2,1 C 1,7 C 92 % 1013,8 hPa 0,0 l/m 9,9 km/h (2 Bft) W 261 0 min 0,0 UV-I 0 W/m 0,9 C -1,1 C 16,1 km/h (3 Bft)
09.01.2023 23:51 2,1 C 1,7 C 92 % 1013,9 hPa 0,0 l/m 6,0 km/h (2 Bft) W-SW 245 0 min 0,0 UV-I 0 W/m 0,9 C 2,1 C 11,3 km/h (2 Bft)
09.01.2023 23:54 2,1 C 1,7 C 92 % 1014,0 hPa 0,0 l/m 6,4 km/h (2 Bft) W-SW 240 0 min 0,0 UV-I 0 W/m 0,9 C 2,1 C 11,3 km/h (2 Bft)
09.01.2023 23:57 2,1 C 1,7 C 92 % 1013,9 hPa 0,0 l/m 6,6 km/h (2 Bft) W-SW 244 0 min 0,0 UV-I 0 W/m 0,9 C 1,9 C 14,5 km/h (3 Bft)
09.01.2023 23:58 2,1 C 1,7 C 92 % 1013,9 hPa 0,0 l/m 9,7 km/h (2 Bft) SW 225 0 min 0,0 UV-I 0 W/m 0,9 C -0,9 C 16,1 km/h (3 Bft)
09.01.2023 23:59 2,2 C 1,7 C 92 % 1013,8 hPa 0,0 l/m 11,3 km/h (2 Bft) SW 225 0 min 0,0 UV-I 0 W/m 1,0 C -2,0 C 17,7 km/h (3 Bft)
_ Min-Zeit 22:30 22:24 00:00 01:23 - 22:24 - - - - - 22:33 07:11 22:24
Minimum _ 1,4 C 0,6 C 89 % 997,2 hPa - 3,4 km/h (1 Bft) - - - - - 0,1 C -8,5 C 4,8 km/h (1 Bft)
_ Max-Zeit 11:45 10:57 02:11 23:54 00:01 07:11 - - 00:00 12:42 13:09 11:45 20:24 09:54
Maximum _ 4,3 C 3,9 C 92 % 1014,0 hPa 0,2 l/m 30,6 km/h
S-SW (5 Bft)
- - 0 min 0,5 UV-I 107 W/m 3,0 C 3,2 C 49,9 km/h
S (6 Bft)
Durchschnitt _ 3,3 C 2,7 C 91 % 1003,2 hPa #9,0 l/m 14,3 km/h (3 Bft) S-SW - #0 min. 0,4 UV-I 38 W/m 2,0 C -2,0 C 22,8 km/h (4 Bft)